Wetterdaten: Dienstag, 16.10.2018
Datum Zeit Temp. A. Feuchte A. Luftdruck Regen Wind Richtung Richtung Sonnenschein ET UV Solar Taupunkt Windchill Windböen
16.10.2018 00:00 10,0 °C 65 % 1014,5 hPa 0,0 mm 0,0 km/h (0 Bft) S 189 ° 0 min 0,000 mm 0,0 UV-I 0 W/m² 3,7 °C 10,0 °C 0,0 km/h (0 Bft)
16.10.2018 00:01 9,8 °C 67 % 1014,5 hPa 0,0 mm 0,0 km/h (0 Bft) S 189 ° 0 min 0,000 mm 0,0 UV-I 0 W/m² 4,0 °C 9,8 °C 0,0 km/h (0 Bft)
16.10.2018 00:02 9,8 °C 68 % 1014,5 hPa 0,0 mm 0,0 km/h (0 Bft) S 189 ° 0 min 0,000 mm 0,0 UV-I 0 W/m² 4,2 °C 9,8 °C 0,0 km/h (0 Bft)
16.10.2018 00:03 9,8 °C 67 % 1014,4 hPa 0,0 mm 0,0 km/h (0 Bft) S 189 ° 0 min 0,000 mm 0,0 UV-I 0 W/m² 4,0 °C 9,8 °C 0,0 km/h (0 Bft)
16.10.2018 00:04 10,0 °C 66 % 1014,5 hPa 0,0 mm 0,0 km/h (0 Bft) S 189 ° 0 min 0,000 mm 0,0 UV-I 0 W/m² 3,9 °C 10,0 °C 0,0 km/h (0 Bft)
16.10.2018 00:05 10,3 °C 65 % 1014,5 hPa 0,0 mm 0,0 km/h (0 Bft) S 189 ° 0 min 0,000 mm 0,0 UV-I 0 W/m² 4,0 °C 10,3 °C 0,0 km/h (0 Bft)
16.10.2018 00:06 10,4 °C 64 % 1014,5 hPa 0,0 mm 0,0 km/h (0 Bft) S 189 ° 0 min 0,000 mm 0,0 UV-I 0 W/m² 3,9 °C 10,4 °C 0,0 km/h (0 Bft)
16.10.2018 00:07 10,7 °C 63 % 1014,5 hPa 0,0 mm 0,0 km/h (0 Bft) S 189 ° 0 min 0,000 mm 0,0 UV-I 0 W/m² 3,9 °C 10,7 °C 0,0 km/h (0 Bft)
16.10.2018 00:08 10,8 °C 63 % 1014,5 hPa 0,0 mm 0,0 km/h (0 Bft) S 189 ° 0 min 0,000 mm 0,0 UV-I 0 W/m² 4,0 °C 10,8 °C 0,0 km/h (0 Bft)
16.10.2018 00:09 10,9 °C 62 % 1014,5 hPa 0,0 mm 0,0 km/h (0 Bft) S 189 ° 0 min 0,000 mm 0,0 UV-I 0 W/m² 3,9 °C 10,9 °C 0,0 km/h (0 Bft)
16.10.2018 00:10 11,1 °C 62 % 1014,5 hPa 0,0 mm 0,0 km/h (0 Bft) S 189 ° 0 min 0,000 mm 0,0 UV-I 0 W/m² 4,1 °C 11,1 °C 0,0 km/h (0 Bft)
16.10.2018 00:11 11,2 °C 61 % 1014,5 hPa 0,0 mm 0,0 km/h (0 Bft) S 189 ° 0 min 0,000 mm 0,0 UV-I 0 W/m² 4,0 °C 11,2 °C 0,0 km/h (0 Bft)
16.10.2018 00:12 11,2 °C 62 % 1014,5 hPa 0,0 mm 0,0 km/h (0 Bft) S 189 ° 0 min 0,000 mm 0,0 UV-I 0 W/m² 4,2 °C 11,2 °C 0,0 km/h (0 Bft)
16.10.2018 00:13 11,3 °C 62 % 1014,5 hPa 0,0 mm 0,0 km/h (0 Bft) S 189 ° 0 min 0,000 mm 0,0 UV-I 0 W/m² 4,3 °C 11,3 °C 0,0 km/h (0 Bft)
16.10.2018 00:14 11,2 °C 61 % 1014,4 hPa 0,0 mm 0,0 km/h (0 Bft) S 189 ° 0 min 0,000 mm 0,0 UV-I 0 W/m² 4,0 °C 11,2 °C 0,0 km/h (0 Bft)
16.10.2018 00:15 11,2 °C 63 % 1014,5 hPa 0,0 mm 0,0 km/h (0 Bft) S 189 ° 0 min 0,000 mm 0,0 UV-I 0 W/m² 4,4 °C 11,2 °C 0,0 km/h (0 Bft)
16.10.2018 00:16 11,2 °C 63 % 1014,5 hPa 0,0 mm 0,0 km/h (0 Bft) S 189 ° 0 min 0,000 mm 0,0 UV-I 0 W/m² 4,4 °C 11,2 °C 0,0 km/h (0 Bft)
16.10.2018 00:17 11,1 °C 61 % 1014,5 hPa 0,0 mm 0,0 km/h (0 Bft) S 189 ° 0 min 0,000 mm 0,0 UV-I 0 W/m² 3,9 °C 11,1 °C 0,0 km/h (0 Bft)
16.10.2018 00:18 11,1 °C 62 % 1014,5 hPa 0,0 mm 0,0 km/h (0 Bft) S 189 ° 0 min 0,000 mm 0,0 UV-I 0 W/m² 4,1 °C 11,1 °C 0,0 km/h (0 Bft)
16.10.2018 00:19 10,8 °C 63 % 1014,5 hPa 0,0 mm 0,0 km/h (0 Bft) S 189 ° 0 min 0,000 mm 0,0 UV-I 0 W/m² 4,0 °C 10,8 °C 0,0 km/h (0 Bft)
16.10.2018 00:20 10,4 °C 65 % 1014,5 hPa 0,0 mm 0,0 km/h (0 Bft) S 189 ° 0 min 0,000 mm 0,0 UV-I 0 W/m² 4,1 °C 10,4 °C 0,0 km/h (0 Bft)
16.10.2018 00:21 10,1 °C 66 % 1014,5 hPa 0,0 mm 0,0 km/h (0 Bft) S 189 ° 0 min 0,000 mm 0,0 UV-I 0 W/m² 4,0 °C 10,1 °C 0,0 km/h (0 Bft)
16.10.2018 00:22 9,7 °C 67 % 1014,5 hPa 0,0 mm 0,0 km/h (0 Bft) S 189 ° 0 min 0,000 mm 0,0 UV-I 0 W/m² 3,9 °C 9,7 °C 0,0 km/h (0 Bft)
16.10.2018 00:23 9,3 °C 69 % 1014,5 hPa 0,0 mm 0,0 km/h (0 Bft) S 189 ° 0 min 0,000 mm 0,0 UV-I 0 W/m² 3,9 °C 9,3 °C 0,0 km/h (0 Bft)
16.10.2018 00:24 9,0 °C 70 % 1014,5 hPa 0,0 mm 0,0 km/h (0 Bft) S 189 ° 0 min 0,000 mm 0,0 UV-I 0 W/m² 3,8 °C 9,0 °C 0,0 km/h (0 Bft)
16.10.2018 00:25 8,9 °C 71 % 1014,6 hPa 0,0 mm 0,0 km/h (0 Bft) S 189 ° 0 min 0,000 mm 0,0 UV-I 0 W/m² 3,9 °C 8,9 °C 0,0 km/h (0 Bft)
16.10.2018 00:26 8,9 °C 70 % 1014,6 hPa 0,0 mm 0,0 km/h (0 Bft) S 189 ° 0 min 0,000 mm 0,0 UV-I 0 W/m² 3,7 °C 8,9 °C 0,0 km/h (0 Bft)
16.10.2018 00:27 8,9 °C 70 % 1014,6 hPa 0,0 mm 0,0 km/h (0 Bft) S 189 ° 0 min 0,000 mm 0,0 UV-I 0 W/m² 3,7 °C 8,9 °C 0,0 km/h (0 Bft)
16.10.2018 00:28 9,0 °C 70 % 1014,5 hPa 0,0 mm 0,0 km/h (0 Bft) S 189 ° 0 min 0,000 mm 0,0 UV-I 0 W/m² 3,8 °C 9,0 °C 0,0 km/h (0 Bft)
16.10.2018 00:29 9,0 °C 70 % 1014,6 hPa 0,0 mm 0,0 km/h (0 Bft) S 189 ° 0 min 0,000 mm 0,0 UV-I 0 W/m² 3,8 °C 9,0 °C 0,0 km/h (0 Bft)
16.10.2018 00:30 8,9 °C 70 % 1014,5 hPa 0,0 mm 0,0 km/h (0 Bft) S 189 ° 0 min 0,000 mm 0,0 UV-I 0 W/m² 3,7 °C 8,9 °C 0,0 km/h (0 Bft)
16.10.2018 00:31 8,8 °C 70 % 1014,5 hPa 0,0 mm 0,0 km/h (0 Bft) S 189 ° 0 min 0,000 mm 0,0 UV-I 0 W/m² 3,6 °C 8,8 °C 0,0 km/h (0 Bft)
16.10.2018 00:32 8,7 °C 71 % 1014,5 hPa 0,0 mm 0,0 km/h (0 Bft) S 189 ° 0 min 0,000 mm 0,0 UV-I 0 W/m² 3,7 °C 8,7 °C 0,0 km/h (0 Bft)
16.10.2018 00:33 8,6 °C 71 % 1014,5 hPa 0,0 mm 0,0 km/h (0 Bft) S 189 ° 0 min 0,000 mm 0,0 UV-I 0 W/m² 3,6 °C 8,6 °C 0,0 km/h (0 Bft)
16.10.2018 00:34 8,6 °C 71 % 1014,5 hPa 0,0 mm 0,0 km/h (0 Bft) S 189 ° 0 min 0,000 mm 0,0 UV-I 0 W/m² 3,6 °C 8,6 °C 0,0 km/h (0 Bft)
16.10.2018 00:35 8,6 °C 71 % 1014,5 hPa 0,0 mm 0,0 km/h (0 Bft) S 189 ° 0 min 0,000 mm 0,0 UV-I 0 W/m² 3,6 °C 8,6 °C 0,0 km/h (0 Bft)
16.10.2018 00:36 8,7 °C 72 % 1014,5 hPa 0,0 mm 0,0 km/h (0 Bft) S 189 ° 0 min 0,000 mm 0,0 UV-I 0 W/m² 3,9 °C 8,7 °C 0,0 km/h (0 Bft)
16.10.2018 00:37 8,5 °C 72 % 1014,5 hPa 0,0 mm 0,0 km/h (0 Bft) S 189 ° 0 min 0,000 mm 0,0 UV-I 0 W/m² 3,7 °C 8,5 °C 0,0 km/h (0 Bft)
16.10.2018 00:38 8,3 °C 72 % 1014,6 hPa 0,0 mm 0,0 km/h (0 Bft) S 189 ° 0 min 0,000 mm 0,0 UV-I 0 W/m² 3,6 °C 8,3 °C 0,0 km/h (0 Bft)
16.10.2018 00:39 8,2 °C 73 % 1014,5 hPa 0,0 mm 0,0 km/h (0 Bft) S 189 ° 0 min 0,000 mm 0,0 UV-I 0 W/m² 3,7 °C 8,2 °C 0,0 km/h (0 Bft)
16.10.2018 00:40 8,1 °C 73 % 1014,5 hPa 0,0 mm 0,0 km/h (0 Bft) S 189 ° 0 min 0,000 mm 0,0 UV-I 0 W/m² 3,6 °C 8,1 °C 0,0 km/h (0 Bft)
16.10.2018 00:41 7,9 °C 74 % 1014,5 hPa 0,0 mm 0,0 km/h (0 Bft) S 189 ° 0 min 0,000 mm 0,0 UV-I 0 W/m² 3,6 °C 7,9 °C 0,0 km/h (0 Bft)
16.10.2018 00:42 7,9 °C 74 % 1014,6 hPa 0,0 mm 0,0 km/h (0 Bft) S 189 ° 0 min 0,000 mm 0,0 UV-I 0 W/m² 3,6 °C 7,9 °C 0,0 km/h (0 Bft)
16.10.2018 00:43 7,9 °C 74 % 1014,5 hPa 0,0 mm 0,0 km/h (0 Bft) S 189 ° 0 min 0,000 mm 0,0 UV-I 0 W/m² 3,6 °C 7,9 °C 0,0 km/h (0 Bft)
16.10.2018 00:44 7,9 °C 74 % 1014,5 hPa 0,0 mm 0,0 km/h (0 Bft) S 189 ° 0 min 0,000 mm 0,0 UV-I 0 W/m² 3,6 °C 7,9 °C 0,0 km/h (0 Bft)
16.10.2018 00:45 8,0 °C 75 % 1014,6 hPa 0,0 mm 0,0 km/h (0 Bft) S 189 ° 0 min 0,000 mm 0,0 UV-I 0 W/m² 3,8 °C 8,0 °C 0,0 km/h (0 Bft)
16.10.2018 00:46 8,1 °C 75 % 1014,6 hPa 0,0 mm 0,0 km/h (0 Bft) S 189 ° 0 min 0,000 mm 0,0 UV-I 0 W/m² 3,9 °C 8,1 °C 0,0 km/h (0 Bft)
16.10.2018 00:47 8,4 °C 75 % 1014,5 hPa 0,0 mm 0,0 km/h (0 Bft) S 189 ° 0 min 0,000 mm 0,0 UV-I 0 W/m² 4,2 °C 8,4 °C 0,0 km/h (0 Bft)
16.10.2018 00:48 8,7 °C 75 % 1014,6 hPa 0,0 mm 0,0 km/h (0 Bft) S 189 ° 0 min 0,000 mm 0,0 UV-I 0 W/m² 4,5 °C 8,7 °C 0,0 km/h (0 Bft)
16.10.2018 00:49 8,9 °C 72 % 1014,6 hPa 0,0 mm 0,0 km/h (0 Bft) S 189 ° 0 min 0,000 mm 0,0 UV-I 0 W/m² 4,1 °C 8,9 °C 0,0 km/h (0 Bft)
16.10.2018 00:50 9,3 °C 70 % 1014,6 hPa 0,0 mm 0,0 km/h (0 Bft) S 189 ° 0 min 0,000 mm 0,0 UV-I 0 W/m² 4,1 °C 9,3 °C 0,0 km/h (0 Bft)
16.10.2018 00:51 9,6 °C 69 % 1014,6 hPa 0,0 mm 0,0 km/h (0 Bft) S 189 ° 0 min 0,000 mm 0,0 UV-I 0 W/m² 4,2 °C 9,6 °C 0,0 km/h (0 Bft)
16.10.2018 00:52 10,0 °C 67 % 1014,6 hPa 0,0 mm 0,0 km/h (0 Bft) S 189 ° 0 min 0,000 mm 0,0 UV-I 0 W/m² 4,2 °C 10,0 °C 0,0 km/h (0 Bft)
16.10.2018 00:53 10,3 °C 66 % 1014,6 hPa 0,0 mm 0,0 km/h (0 Bft) S 189 ° 0 min 0,000 mm 0,0 UV-I 0 W/m² 4,2 °C 10,3 °C 0,0 km/h (0 Bft)
16.10.2018 00:54 10,4 °C 65 % 1014,6 hPa 0,0 mm 0,0 km/h (0 Bft) S 189 ° 0 min 0,000 mm 0,0 UV-I 0 W/m² 4,1 °C 10,4 °C 0,0 km/h (0 Bft)
16.10.2018 00:55 10,4 °C 65 % 1014,6 hPa 0,0 mm 0,0 km/h (0 Bft) S 189 ° 0 min 0,000 mm 0,0 UV-I 0 W/m² 4,1 °C 10,4 °C 0,0 km/h (0 Bft)
16.10.2018 00:56 10,4 °C 65 % 1014,6 hPa 0,0 mm 0,0 km/h (0 Bft) S 189 ° 0 min 0,000 mm 0,0 UV-I 0 W/m² 4,1 °C 10,4 °C 0,0 km/h (0 Bft)
16.10.2018 00:57 10,4 °C 65 % 1014,6 hPa 0,0 mm 0,0 km/h (0 Bft) S 189 ° 0 min 0,000 mm 0,0 UV-I 0 W/m² 4,1 °C 10,4 °C 0,0 km/h (0 Bft)
16.10.2018 00:58 10,3 °C 65 % 1014,6 hPa 0,0 mm 0,0 km/h (0 Bft) S 189 ° 0 min 0,000 mm 0,0 UV-I 0 W/m² 4,0 °C 10,3 °C 0,0 km/h (0 Bft)
16.10.2018 00:59 10,1 °C 66 % 1014,6 hPa 0,0 mm 0,0 km/h (0 Bft) S 189 ° 0 min 0,000 mm 0,0 UV-I 0 W/m² 4,0 °C 10,1 °C 0,0 km/h (0 Bft)
16.10.2018 01:00 9,8 °C 67 % 1014,6 hPa 0,0 mm 0,0 km/h (0 Bft) S 189 ° 0 min 0,025 mm 0,0 UV-I 0 W/m² 4,0 °C 9,8 °C 0,0 km/h (0 Bft)
16.10.2018 01:01 9,7 °C 68 % 1014,6 hPa 0,0 mm 0,0 km/h (0 Bft) S 189 ° 0 min 0,000 mm 0,0 UV-I 0 W/m² 4,1 °C 9,7 °C 0,0 km/h (0 Bft)
16.10.2018 01:02 9,7 °C 68 % 1014,6 hPa 0,0 mm 0,0 km/h (0 Bft) S 189 ° 0 min 0,000 mm 0,0 UV-I 0 W/m² 4,1 °C 9,7 °C 0,0 km/h (0 Bft)
16.10.2018 01:03 9,8 °C 68 % 1014,6 hPa 0,0 mm 0,0 km/h (0 Bft) S 189 ° 0 min 0,000 mm 0,0 UV-I 0 W/m² 4,2 °C 9,8 °C 0,0 km/h (0 Bft)
16.10.2018 01:04 10,0 °C 67 % 1014,6 hPa 0,0 mm 0,0 km/h (0 Bft) S 189 ° 0 min 0,000 mm 0,0 UV-I 0 W/m² 4,2 °C 10,0 °C 0,0 km/h (0 Bft)
16.10.2018 01:05 10,2 °C 66 % 1014,6 hPa 0,0 mm 0,0 km/h (0 Bft) S 189 ° 0 min 0,000 mm 0,0 UV-I 0 W/m² 4,1 °C 10,2 °C 0,0 km/h (0 Bft)
16.10.2018 01:06 10,4 °C 66 % 1014,6 hPa 0,0 mm 0,0 km/h (0 Bft) S 189 ° 0 min 0,000 mm 0,0 UV-I 0 W/m² 4,3 °C 10,4 °C 0,0 km/h (0 Bft)
16.10.2018 01:07 10,6 °C 65 % 1014,6 hPa 0,0 mm 0,0 km/h (0 Bft) S 189 ° 0 min 0,000 mm 0,0 UV-I 0 W/m² 4,3 °C 10,6 °C 0,0 km/h (0 Bft)
16.10.2018 01:08 10,8 °C 64 % 1014,6 hPa 0,0 mm 0,0 km/h (0 Bft) S 189 ° 0 min 0,000 mm 0,0 UV-I 0 W/m² 4,3 °C 10,8 °C 0,0 km/h (0 Bft)
16.10.2018 01:09 10,9 °C 64 % 1014,6 hPa 0,0 mm 0,0 km/h (0 Bft) S 189 ° 0 min 0,000 mm 0,0 UV-I 0 W/m² 4,4 °C 10,9 °C 0,0 km/h (0 Bft)
16.10.2018 01:10 10,9 °C 62 % 1014,6 hPa 0,0 mm 0,0 km/h (0 Bft) S 189 ° 0 min 0,000 mm 0,0 UV-I 0 W/m² 3,9 °C 10,9 °C 0,0 km/h (0 Bft)
16.10.2018 01:11 11,2 °C 62 % 1014,6 hPa 0,0 mm 0,0 km/h (0 Bft) S 189 ° 0 min 0,000 mm 0,0 UV-I 0 W/m² 4,2 °C 11,2 °C 0,0 km/h (0 Bft)
16.10.2018 01:12 11,3 °C 62 % 1014,6 hPa 0,0 mm 0,0 km/h (0 Bft) S 189 ° 0 min 0,000 mm 0,0 UV-I 0 W/m² 4,3 °C 11,3 °C 0,0 km/h (0 Bft)
16.10.2018 01:13 11,4 °C 61 % 1014,6 hPa 0,0 mm 0,0 km/h (0 Bft) S 189 ° 0 min 0,000 mm 0,0 UV-I 0 W/m² 4,2 °C 11,4 °C 0,0 km/h (0 Bft)
16.10.2018 01:14 11,5 °C 61 % 1014,6 hPa 0,0 mm 0,0 km/h (0 Bft) S 189 ° 0 min 0,000 mm 0,0 UV-I 0 W/m² 4,2 °C 11,5 °C 0,0 km/h (0 Bft)
16.10.2018 01:15 11,5 °C 61 % 1014,6 hPa 0,0 mm 0,0 km/h (0 Bft) S 189 ° 0 min 0,000 mm 0,0 UV-I 0 W/m² 4,2 °C 11,5 °C 0,0 km/h (0 Bft)
16.10.2018 01:16 11,5 °C 61 % 1014,6 hPa 0,0 mm 0,0 km/h (0 Bft) S 189 ° 0 min 0,000 mm 0,0 UV-I 0 W/m² 4,2 °C 11,5 °C 0,0 km/h (0 Bft)
16.10.2018 01:17 11,4 °C 61 % 1014,6 hPa 0,0 mm 0,0 km/h (0 Bft) S 189 ° 0 min 0,000 mm 0,0 UV-I 0 W/m² 4,2 °C 11,4 °C 0,0 km/h (0 Bft)
16.10.2018 01:18 11,3 °C 62 % 1014,6 hPa 0,0 mm 0,0 km/h (0 Bft) S 189 ° 0 min 0,000 mm 0,0 UV-I 0 W/m² 4,3 °C 11,3 °C 0,0 km/h (0 Bft)
16.10.2018 01:19 11,1 °C 62 % 1014,6 hPa 0,0 mm 0,0 km/h (0 Bft) S 189 ° 0 min 0,000 mm 0,0 UV-I 0 W/m² 4,1 °C 11,1 °C 0,0 km/h (0 Bft)
16.10.2018 01:20 10,8 °C 63 % 1014,6 hPa 0,0 mm 0,0 km/h (0 Bft) S 189 ° 0 min 0,000 mm 0,0 UV-I 0 W/m² 4,0 °C 10,8 °C 0,0 km/h (0 Bft)
16.10.2018 01:21 10,5 °C 64 % 1014,6 hPa 0,0 mm 0,0 km/h (0 Bft) S 189 ° 0 min 0,000 mm 0,0 UV-I 0 W/m² 4,0 °C 10,5 °C 0,0 km/h (0 Bft)
16.10.2018 01:22 10,4 °C 64 % 1014,6 hPa 0,0 mm 0,0 km/h (0 Bft) S 189 ° 0 min 0,000 mm 0,0 UV-I 0 W/m² 3,9 °C 10,4 °C 0,0 km/h (0 Bft)
16.10.2018 01:23 10,4 °C 65 % 1014,6 hPa 0,0 mm 0,0 km/h (0 Bft) S 189 ° 0 min 0,000 mm 0,0 UV-I 0 W/m² 4,1 °C 10,4 °C 0,0 km/h (0 Bft)
16.10.2018 01:24 10,3 °C 65 % 1014,6 hPa 0,0 mm 0,0 km/h (0 Bft) S 189 ° 0 min 0,000 mm 0,0 UV-I 0 W/m² 4,0 °C 10,3 °C 0,0 km/h (0 Bft)
16.10.2018 01:25 10,4 °C 65 % 1014,6 hPa 0,0 mm 0,0 km/h (0 Bft) S 189 ° 0 min 0,000 mm 0,0 UV-I 0 W/m² 4,1 °C 10,4 °C 0,0 km/h (0 Bft)
16.10.2018 01:26 10,5 °C 66 % 1014,6 hPa 0,0 mm 0,0 km/h (0 Bft) S 189 ° 0 min 0,000 mm 0,0 UV-I 0 W/m² 4,4 °C 10,5 °C 0,0 km/h (0 Bft)
16.10.2018 01:27 10,6 °C 66 % 1014,6 hPa 0,0 mm 0,0 km/h (0 Bft) S 189 ° 0 min 0,000 mm 0,0 UV-I 0 W/m² 4,5 °C 10,6 °C 0,0 km/h (0 Bft)
16.10.2018 01:28 10,6 °C 65 % 1014,6 hPa 0,0 mm 0,0 km/h (0 Bft) S 189 ° 0 min 0,000 mm 0,0 UV-I 0 W/m² 4,3 °C 10,6 °C 0,0 km/h (0 Bft)
16.10.2018 01:29 10,7 °C 64 % 1014,7 hPa 0,0 mm 0,0 km/h (0 Bft) S 189 ° 0 min 0,000 mm 0,0 UV-I 0 W/m² 4,2 °C 10,7 °C 0,0 km/h (0 Bft)
16.10.2018 01:30 10,8 °C 63 % 1014,7 hPa 0,0 mm 0,0 km/h (0 Bft) S 189 ° 0 min 0,000 mm 0,0 UV-I 0 W/m² 4,0 °C 10,8 °C 0,0 km/h (0 Bft)
16.10.2018 01:31 10,9 °C 63 % 1014,6 hPa 0,0 mm 0,0 km/h (0 Bft) S 189 ° 0 min 0,000 mm 0,0 UV-I 0 W/m² 4,1 °C 10,9 °C 0,0 km/h (0 Bft)
16.10.2018 01:32 10,9 °C 63 % 1014,7 hPa 0,0 mm 0,0 km/h (0 Bft) S 189 ° 0 min 0,000 mm 0,0 UV-I 0 W/m² 4,1 °C 10,9 °C 0,0 km/h (0 Bft)
16.10.2018 01:33 10,9 °C 64 % 1014,7 hPa 0,0 mm 0,0 km/h (0 Bft) S 189 ° 0 min 0,000 mm 0,0 UV-I 0 W/m² 4,4 °C 10,9 °C 0,0 km/h (0 Bft)
16.10.2018 01:34 10,8 °C 65 % 1014,7 hPa 0,0 mm 0,0 km/h (0 Bft) S 189 ° 0 min 0,000 mm 0,0 UV-I 0 W/m² 4,5 °C 10,8 °C 0,0 km/h (0 Bft)
16.10.2018 01:35 10,8 °C 64 % 1014,7 hPa 0,0 mm 0,0 km/h (0 Bft) S 189 ° 0 min 0,000 mm 0,0 UV-I 0 W/m² 4,3 °C 10,8 °C 0,0 km/h (0 Bft)
16.10.2018 01:36 10,7 °C 65 % 1014,7 hPa 0,0 mm 0,0 km/h (0 Bft) S 189 ° 0 min 0,000 mm 0,0 UV-I 0 W/m² 4,4 °C 10,7 °C 0,0 km/h (0 Bft)
16.10.2018 01:37 10,6 °C 65 % 1014,7 hPa 0,0 mm 0,0 km/h (0 Bft) S 189 ° 0 min 0,000 mm 0,0 UV-I 0 W/m² 4,3 °C 10,6 °C 0,0 km/h (0 Bft)
16.10.2018 01:38 10,3 °C 65 % 1014,7 hPa 0,0 mm 0,0 km/h (0 Bft) S 189 ° 0 min 0,000 mm 0,0 UV-I 0 W/m² 4,0 °C 10,3 °C 0,0 km/h (0 Bft)
16.10.2018 01:39 10,3 °C 65 % 1014,7 hPa 0,0 mm 0,0 km/h (0 Bft) S 189 ° 0 min 0,000 mm 0,0 UV-I 0 W/m² 4,0 °C 10,3 °C 0,0 km/h (0 Bft)
16.10.2018 01:40 10,2 °C 66 % 1014,8 hPa 0,0 mm 0,0 km/h (0 Bft) S 189 ° 0 min 0,000 mm 0,0 UV-I 0 W/m² 4,1 °C 10,2 °C 0,0 km/h (0 Bft)
16.10.2018 01:41 10,2 °C 65 % 1014,8 hPa 0,0 mm 0,0 km/h (0 Bft) S 189 ° 0 min 0,000 mm 0,0 UV-I 0 W/m² 3,9 °C 10,2 °C 0,0 km/h (0 Bft)
16.10.2018 01:42 10,0 °C 66 % 1014,8 hPa 0,0 mm 0,0 km/h (0 Bft) S 189 ° 0 min 0,000 mm 0,0 UV-I 0 W/m² 3,9 °C 10,0 °C 0,0 km/h (0 Bft)
16.10.2018 01:43 9,9 °C 67 % 1014,8 hPa 0,0 mm 0,0 km/h (0 Bft) S 189 ° 0 min 0,000 mm 0,0 UV-I 0 W/m² 4,1 °C 9,9 °C 0,0 km/h (0 Bft)
16.10.2018 01:44 9,9 °C 67 % 1014,9 hPa 0,0 mm 0,0 km/h (0 Bft) S 189 ° 0 min 0,000 mm 0,0 UV-I 0 W/m² 4,1 °C 9,9 °C 0,0 km/h (0 Bft)
16.10.2018 01:45 9,9 °C 67 % 1014,9 hPa 0,0 mm 0,0 km/h (0 Bft) S 189 ° 0 min 0,000 mm 0,0 UV-I 0 W/m² 4,1 °C 9,9 °C 0,0 km/h (0 Bft)
16.10.2018 01:46 9,8 °C 67 % 1014,9 hPa 0,0 mm 0,0 km/h (0 Bft) S 189 ° 0 min 0,000 mm 0,0 UV-I 0 W/m² 4,0 °C 9,8 °C 0,0 km/h (0 Bft)
16.10.2018 01:47 9,7 °C 68 % 1014,9 hPa 0,0 mm 0,0 km/h (0 Bft) S 189 ° 0 min 0,000 mm 0,0 UV-I 0 W/m² 4,1 °C 9,7 °C 0,0 km/h (0 Bft)
16.10.2018 01:48 9,6 °C 68 % 1014,9 hPa 0,0 mm 0,0 km/h (0 Bft) S 189 ° 0 min 0,000 mm 0,0 UV-I 0 W/m² 4,0 °C 9,6 °C 0,0 km/h (0 Bft)
16.10.2018 01:49 9,4 °C 68 % 1014,9 hPa 0,0 mm 0,0 km/h (0 Bft) S 189 ° 0 min 0,000 mm 0,0 UV-I 0 W/m² 3,8 °C 9,4 °C 0,0 km/h (0 Bft)
16.10.2018 01:50 9,2 °C 68 % 1014,9 hPa 0,0 mm 0,0 km/h (0 Bft) S 189 ° 0 min 0,000 mm 0,0 UV-I 0 W/m² 3,6 °C 9,2 °C 0,0 km/h (0 Bft)
16.10.2018 01:51 9,1 °C 70 % 1014,9 hPa 0,0 mm 0,0 km/h (0 Bft) S 189 ° 0 min 0,000 mm 0,0 UV-I 0 W/m² 3,9 °C 9,1 °C 0,0 km/h (0 Bft)
16.10.2018 01:52 9,1 °C 70 % 1014,9 hPa 0,0 mm 0,0 km/h (0 Bft) S 189 ° 0 min 0,000 mm 0,0 UV-I 0 W/m² 3,9 °C 9,1 °C 0,0 km/h (0 Bft)
16.10.2018 01:53 9,0 °C 70 % 1014,9 hPa 0,0 mm 0,0 km/h (0 Bft) S 189 ° 0 min 0,000 mm 0,0 UV-I 0 W/m² 3,8 °C 9,0 °C 0,0 km/h (0 Bft)
16.10.2018 01:54 9,0 °C 71 % 1014,9 hPa 0,0 mm 0,0 km/h (0 Bft) S 189 ° 0 min 0,000 mm 0,0 UV-I 0 W/m² 4,0 °C 9,0 °C 0,0 km/h (0 Bft)
16.10.2018 01:55 8,9 °C 71 % 1014,9 hPa 0,0 mm 0,0 km/h (0 Bft) S 189 ° 0 min 0,000 mm 0,0 UV-I 0 W/m² 3,9 °C 8,9 °C 0,0 km/h (0 Bft)
16.10.2018 01:56 8,9 °C 71 % 1015,0 hPa 0,0 mm 0,0 km/h (0 Bft) S 189 ° 0 min 0,000 mm 0,0 UV-I 0 W/m² 3,9 °C 8,9 °C 0,0 km/h (0 Bft)
16.10.2018 01:57 8,7 °C 71 % 1015,0 hPa 0,0 mm 0,0 km/h (0 Bft) S 189 ° 0 min 0,000 mm 0,0 UV-I 0 W/m² 3,7 °C 8,7 °C 0,0 km/h (0 Bft)
16.10.2018 01:58 8,5 °C 72 % 1015,0 hPa 0,0 mm 0,0 km/h (0 Bft) S 189 ° 0 min 0,000 mm 0,0 UV-I 0 W/m² 3,7 °C 8,5 °C 0,0 km/h (0 Bft)
16.10.2018 01:59 8,5 °C 73 % 1015,0 hPa 0,0 mm 0,0 km/h (0 Bft) S 189 ° 0 min 0,000 mm 0,0 UV-I 0 W/m² 3,9 °C 8,5 °C 0,0 km/h (0 Bft)
16.10.2018 02:00 8,6 °C 73 % 1015,0 hPa 0,0 mm 0,0 km/h (0 Bft) S 189 ° 0 min 0,000 mm 0,0 UV-I 0 W/m² 4,0 °C 8,6 °C 0,0 km/h (0 Bft)
16.10.2018 02:01 8,4 °C 72 % 1015,0 hPa 0,0 mm 0,0 km/h (0 Bft) S 189 ° 0 min 0,026 mm 0,0 UV-I 0 W/m² 3,7 °C 8,4 °C 0,0 km/h (0 Bft)
16.10.2018 02:02 8,4 °C 73 % 1015,0 hPa 0,0 mm 0,0 km/h (0 Bft) S 189 ° 0 min 0,000 mm 0,0 UV-I 0 W/m² 3,8 °C 8,4 °C 0,0 km/h (0 Bft)
16.10.2018 02:03 8,4 °C 73 % 1015,0 hPa 0,0 mm 0,0 km/h (0 Bft) S 189 ° 0 min 0,000 mm 0,0 UV-I 0 W/m² 3,8 °C 8,4 °C 0,0 km/h (0 Bft)
16.10.2018 02:04 8,4 °C 73 % 1015,0 hPa 0,0 mm 0,0 km/h (0 Bft) S 189 ° 0 min 0,000 mm 0,0 UV-I 0 W/m² 3,8 °C 8,4 °C 0,0 km/h (0 Bft)
16.10.2018 02:05 8,4 °C 74 % 1015,0 hPa 0,0 mm 0,0 km/h (0 Bft) S 189 ° 0 min 0,000 mm 0,0 UV-I 0 W/m² 4,0 °C 8,4 °C 0,0 km/h (0 Bft)
16.10.2018 02:06 8,6 °C 75 % 1015,0 hPa 0,0 mm 0,0 km/h (0 Bft) S 189 ° 0 min 0,000 mm 0,0 UV-I 0 W/m² 4,4 °C 8,6 °C 0,0 km/h (0 Bft)
16.10.2018 02:07 8,7 °C 74 % 1015,0 hPa 0,0 mm 0,0 km/h (0 Bft) S 189 ° 0 min 0,000 mm 0,0 UV-I 0 W/m² 4,3 °C 8,7 °C 0,0 km/h (0 Bft)
16.10.2018 02:08 8,8 °C 73 % 1015,1 hPa 0,0 mm 0,0 km/h (0 Bft) S 189 ° 0 min 0,000 mm 0,0 UV-I 0 W/m² 4,2 °C 8,8 °C 0,0 km/h (0 Bft)
16.10.2018 02:09 8,7 °C 72 % 1015,1 hPa 0,0 mm 0,0 km/h (0 Bft) S 189 ° 0 min 0,000 mm 0,0 UV-I 0 W/m² 3,9 °C 8,7 °C 0,0 km/h (0 Bft)
16.10.2018 02:10 8,6 °C 72 % 1015,1 hPa 0,0 mm 0,0 km/h (0 Bft) S 189 ° 0 min 0,000 mm 0,0 UV-I 0 W/m² 3,8 °C 8,6 °C 0,0 km/h (0 Bft)
16.10.2018 02:11 8,4 °C 73 % 1015,1 hPa 0,0 mm 0,0 km/h (0 Bft) S 189 ° 0 min 0,000 mm 0,0 UV-I 0 W/m² 3,8 °C 8,4 °C 0,0 km/h (0 Bft)
16.10.2018 02:12 8,2 °C 73 % 1015,1 hPa 0,0 mm 0,0 km/h (0 Bft) S 189 ° 0 min 0,000 mm 0,0 UV-I 0 W/m² 3,7 °C 8,2 °C 0,0 km/h (0 Bft)
16.10.2018 02:13 8,1 °C 74 % 1015,1 hPa 0,0 mm 0,0 km/h (0 Bft) S 189 ° 0 min 0,000 mm 0,0 UV-I 0 W/m² 3,8 °C 8,1 °C 0,0 km/h (0 Bft)
16.10.2018 02:14 8,0 °C 74 % 1015,1 hPa 0,0 mm 0,0 km/h (0 Bft) S 189 ° 0 min 0,000 mm 0,0 UV-I 0 W/m² 3,7 °C 8,0 °C 0,0 km/h (0 Bft)
16.10.2018 02:15 7,9 °C 75 % 1015,1 hPa 0,0 mm 0,0 km/h (0 Bft) S 189 ° 0 min 0,000 mm 0,0 UV-I 0 W/m² 3,7 °C 7,9 °C 0,0 km/h (0 Bft)
16.10.2018 02:16 8,1 °C 76 % 1015,1 hPa 0,0 mm 0,0 km/h (0 Bft) S 189 ° 0 min 0,000 mm 0,0 UV-I 0 W/m² 4,1 °C 8,1 °C 0,0 km/h (0 Bft)
16.10.2018 02:17 8,3 °C 76 % 1015,1 hPa 0,0 mm 0,0 km/h (0 Bft) S 189 ° 0 min 0,000 mm 0,0 UV-I 0 W/m² 4,3 °C 8,3 °C 0,0 km/h (0 Bft)
16.10.2018 02:18 8,4 °C 75 % 1015,1 hPa 0,0 mm 0,0 km/h (0 Bft) S 189 ° 0 min 0,000 mm 0,0 UV-I 0 W/m² 4,2 °C 8,4 °C 0,0 km/h (0 Bft)
16.10.2018 02:19 8,6 °C 74 % 1015,1 hPa 0,0 mm 0,0 km/h (0 Bft) S 189 ° 0 min 0,000 mm 0,0 UV-I 0 W/m² 4,2 °C 8,6 °C 0,0 km/h (0 Bft)
16.10.2018 02:20 8,7 °C 74 % 1015,0 hPa 0,0 mm 0,0 km/h (0 Bft) S 189 ° 0 min 0,000 mm 0,0 UV-I 0 W/m² 4,3 °C 8,7 °C 0,0 km/h (0 Bft)
16.10.2018 02:21 8,8 °C 72 % 1015,1 hPa 0,0 mm 0,0 km/h (0 Bft) S 189 ° 0 min 0,000 mm 0,0 UV-I 0 W/m² 4,0 °C 8,8 °C 0,0 km/h (0 Bft)
16.10.2018 02:22 8,7 °C 72 % 1015,1 hPa 0,0 mm 0,0 km/h (0 Bft) S 189 ° 0 min 0,000 mm 0,0 UV-I 0 W/m² 3,9 °C 8,7 °C 0,0 km/h (0 Bft)
16.10.2018 02:23 8,6 °C 72 % 1015,1 hPa 0,0 mm 0,0 km/h (0 Bft) S 189 ° 0 min 0,000 mm 0,0 UV-I 0 W/m² 3,8 °C 8,6 °C 0,0 km/h (0 Bft)
16.10.2018 02:24 8,5 °C 73 % 1015,1 hPa 0,0 mm 0,0 km/h (0 Bft) S 189 ° 0 min 0,000 mm 0,0 UV-I 0 W/m² 3,9 °C 8,5 °C 0,0 km/h (0 Bft)
16.10.2018 02:25 8,6 °C 74 % 1015,1 hPa 0,0 mm 0,0 km/h (0 Bft) S 189 ° 0 min 0,000 mm 0,0 UV-I 0 W/m² 4,2 °C 8,6 °C 0,0 km/h (0 Bft)
16.10.2018 02:26 8,8 °C 73 % 1015,0 hPa 0,0 mm 0,0 km/h (0 Bft) S 189 ° 0 min 0,000 mm 0,0 UV-I 0 W/m² 4,2 °C 8,8 °C 0,0 km/h (0 Bft)
16.10.2018 02:27 9,1 °C 72 % 1015,1 hPa 0,0 mm 0,0 km/h (0 Bft) S 189 ° 0 min 0,000 mm 0,0 UV-I 0 W/m² 4,3 °C 9,1 °C 0,0 km/h (0 Bft)
16.10.2018 02:28 9,2 °C 72 % 1015,0 hPa 0,0 mm 0,0 km/h (0 Bft) S 189 ° 0 min 0,000 mm 0,0 UV-I 0 W/m² 4,4 °C 9,2 °C 0,0 km/h (0 Bft)
16.10.2018 02:29 9,4 °C 71 % 1015,1 hPa 0,0 mm 0,0 km/h (0 Bft) S 189 ° 0 min 0,000 mm 0,0 UV-I 0 W/m² 4,4 °C 9,4 °C 0,0 km/h (0 Bft)
16.10.2018 02:30 9,6 °C 70 % 1015,1 hPa 0,0 mm 0,0 km/h (0 Bft) S 189 ° 0 min 0,000 mm 0,0 UV-I 0 W/m² 4,4 °C 9,6 °C 0,0 km/h (0 Bft)
16.10.2018 02:31 9,8 °C 69 % 1015,0 hPa 0,0 mm 0,0 km/h (0 Bft) S 189 ° 0 min 0,000 mm 0,0 UV-I 0 W/m² 4,4 °C 9,8 °C 0,0 km/h (0 Bft)
16.10.2018 02:32 10,1 °C 68 % 1015,0 hPa 0,0 mm 0,0 km/h (0 Bft) S 189 ° 0 min 0,000 mm 0,0 UV-I 0 W/m² 4,5 °C 10,1 °C 0,0 km/h (0 Bft)
16.10.2018 02:33 10,2 °C 67 % 1015,1 hPa 0,0 mm 0,0 km/h (0 Bft) S 189 ° 0 min 0,000 mm 0,0 UV-I 0 W/m² 4,4 °C 10,2 °C 0,0 km/h (0 Bft)
16.10.2018 02:34 10,4 °C 67 % 1015,1 hPa 0,0 mm 0,0 km/h (0 Bft) S 189 ° 0 min 0,000 mm 0,0 UV-I 0 W/m² 4,5 °C 10,4 °C 0,0 km/h (0 Bft)
16.10.2018 02:35 10,6 °C 67 % 1015,1 hPa 0,0 mm 0,0 km/h (0 Bft) S 189 ° 0 min 0,000 mm 0,0 UV-I 0 W/m² 4,7 °C 10,6 °C 0,0 km/h (0 Bft)
16.10.2018 02:36 10,7 °C 66 % 1015,1 hPa 0,0 mm 0,0 km/h (0 Bft) S 189 ° 0 min 0,000 mm 0,0 UV-I 0 W/m² 4,6 °C 10,7 °C 0,0 km/h (0 Bft)
16.10.2018 02:37 10,8 °C 65 % 1015,1 hPa 0,0 mm 0,0 km/h (0 Bft) S 189 ° 0 min 0,000 mm 0,0 UV-I 0 W/m² 4,5 °C 10,8 °C 0,0 km/h (0 Bft)
16.10.2018 02:38 10,8 °C 64 % 1015,1 hPa 0,0 mm 0,0 km/h (0 Bft) S 189 ° 0 min 0,000 mm 0,0 UV-I 0 W/m² 4,3 °C 10,8 °C 0,0 km/h (0 Bft)
16.10.2018 02:39 10,9 °C 64 % 1015,1 hPa 0,0 mm 0,0 km/h (0 Bft) S 189 ° 0 min 0,000 mm 0,0 UV-I 0 W/m² 4,4 °C 10,9 °C 0,0 km/h (0 Bft)
16.10.2018 02:40 10,9 °C 64 % 1015,1 hPa 0,0 mm 0,0 km/h (0 Bft) S 189 ° 0 min 0,000 mm 0,0 UV-I 0 W/m² 4,4 °C 10,9 °C 0,0 km/h (0 Bft)
16.10.2018 02:41 11,0 °C 64 % 1015,1 hPa 0,0 mm 0,0 km/h (0 Bft) S 189 ° 0 min 0,000 mm 0,0 UV-I 0 W/m² 4,5 °C 11,0 °C 0,0 km/h (0 Bft)
16.10.2018 02:42 11,1 °C 64 % 1015,0 hPa 0,0 mm 0,0 km/h (0 Bft) S 189 ° 0 min 0,000 mm 0,0 UV-I 0 W/m² 4,6 °C 11,1 °C 0,0 km/h (0 Bft)
16.10.2018 02:43 11,2 °C 64 % 1015,0 hPa 0,0 mm 0,0 km/h (0 Bft) S 189 ° 0 min 0,000 mm 0,0 UV-I 0 W/m² 4,6 °C 11,2 °C 0,0 km/h (0 Bft)
16.10.2018 02:44 11,2 °C 64 % 1015,0 hPa 0,0 mm 0,0 km/h (0 Bft) S 189 ° 0 min 0,000 mm 0,0 UV-I 0 W/m² 4,6 °C 11,2 °C 0,0 km/h (0 Bft)
16.10.2018 02:45 11,2 °C 63 % 1015,1 hPa 0,0 mm 0,0 km/h (0 Bft) S 189 ° 0 min 0,000 mm 0,0 UV-I 0 W/m² 4,4 °C 11,2 °C 0,0 km/h (0 Bft)
16.10.2018 02:46 11,2 °C 63 % 1015,1 hPa 0,0 mm 0,0 km/h (0 Bft) S 189 ° 0 min 0,000 mm 0,0 UV-I 0 W/m² 4,4 °C 11,2 °C 0,0 km/h (0 Bft)
16.10.2018 02:47 11,2 °C 63 % 1015,0 hPa 0,0 mm 0,0 km/h (0 Bft) S 189 ° 0 min 0,000 mm 0,0 UV-I 0 W/m² 4,4 °C 11,2 °C 0,0 km/h (0 Bft)
16.10.2018 02:48 11,2 °C 63 % 1015,0 hPa 0,0 mm 0,0 km/h (0 Bft) S 189 ° 0 min 0,000 mm 0,0 UV-I 0 W/m² 4,4 °C 11,2 °C 0,0 km/h (0 Bft)
16.10.2018 02:49 11,2 °C 63 % 1015,1 hPa 0,0 mm 0,0 km/h (0 Bft) S 189 ° 0 min 0,000 mm 0,0 UV-I 0 W/m² 4,4 °C 11,2 °C 0,0 km/h (0 Bft)
16.10.2018 02:50 11,1 °C 63 % 1015,0 hPa 0,0 mm 0,0 km/h (0 Bft) S 189 ° 0 min 0,000 mm 0,0 UV-I 0 W/m² 4,3 °C 11,1 °C 0,0 km/h (0 Bft)
16.10.2018 02:51 11,0 °C 63 % 1015,0 hPa 0,0 mm 0,0 km/h (0 Bft) S 189 ° 0 min 0,000 mm 0,0 UV-I 0 W/m² 4,2 °C 11,0 °C 0,0 km/h (0 Bft)
16.10.2018 02:52 10,9 °C 64 % 1015,0 hPa 0,0 mm 0,0 km/h (0 Bft) S 189 ° 0 min 0,000 mm 0,0 UV-I 0 W/m² 4,4 °C 10,9 °C 0,0 km/h (0 Bft)
16.10.2018 02:53 10,7 °C 65 % 1015,1 hPa 0,0 mm 0,0 km/h (0 Bft) S 189 ° 0 min 0,000 mm 0,0 UV-I 0 W/m² 4,4 °C 10,7 °C 0,0 km/h (0 Bft)
16.10.2018 02:54 10,4 °C 65 % 1015,0 hPa 0,0 mm 0,0 km/h (0 Bft) S 189 ° 0 min 0,000 mm 0,0 UV-I 0 W/m² 4,1 °C 10,4 °C 0,0 km/h (0 Bft)
16.10.2018 02:55 10,2 °C 66 % 1015,0 hPa 0,0 mm 0,0 km/h (0 Bft) S 189 ° 0 min 0,000 mm 0,0 UV-I 0 W/m² 4,1 °C 10,2 °C 0,0 km/h (0 Bft)
16.10.2018 02:56 10,1 °C 67 % 1015,1 hPa 0,0 mm 0,0 km/h (0 Bft) S 189 ° 0 min 0,000 mm 0,0 UV-I 0 W/m² 4,3 °C 10,1 °C 0,0 km/h (0 Bft)
16.10.2018 02:57 9,9 °C 68 % 1015,1 hPa 0,0 mm 0,0 km/h (0 Bft) S 189 ° 0 min 0,000 mm 0,0 UV-I 0 W/m² 4,3 °C 9,9 °C 0,0 km/h (0 Bft)
16.10.2018 02:58 10,0 °C 68 % 1015,1 hPa 0,0 mm 0,0 km/h (0 Bft) S 189 ° 0 min 0,000 mm 0,0 UV-I 0 W/m² 4,4 °C 10,0 °C 0,0 km/h (0 Bft)
16.10.2018 02:59 10,1 °C 68 % 1015,1 hPa 0,0 mm 0,0 km/h (0 Bft) S 189 ° 0 min 0,000 mm 0,0 UV-I 0 W/m² 4,5 °C 10,1 °C 0,0 km/h (0 Bft)
16.10.2018 03:00 10,2 °C 68 % 1015,0 hPa 0,0 mm 0,0 km/h (0 Bft) S 189 ° 0 min 0,000 mm 0,0 UV-I 0 W/m² 4,6 °C 10,2 °C 0,0 km/h (0 Bft)
16.10.2018 03:01 10,3 °C 67 % 1015,1 hPa 0,0 mm 0,0 km/h (0 Bft) S 189 ° 0 min 0,025 mm 0,0 UV-I 0 W/m² 4,4 °C 10,3 °C 0,0 km/h (0 Bft)
16.10.2018 03:02 10,3 °C 67 % 1015,1 hPa 0,0 mm 0,0 km/h (0 Bft) S 189 ° 0 min 0,000 mm 0,0 UV-I 0 W/m² 4,4 °C 10,3 °C 0,0 km/h (0 Bft)
16.10.2018 03:03 10,3 °C 66 % 1015,1 hPa 0,0 mm 0,0 km/h (0 Bft) S 189 ° 0 min 0,000 mm 0,0 UV-I 0 W/m² 4,2 °C 10,3 °C 0,0 km/h (0 Bft)
16.10.2018 03:04 10,3 °C 66 % 1015,1 hPa 0,0 mm 0,0 km/h (0 Bft) S 189 ° 0 min 0,000 mm 0,0 UV-I 0 W/m² 4,2 °C 10,3 °C 0,0 km/h (0 Bft)
16.10.2018 03:05 10,2 °C 67 % 1015,1 hPa 0,0 mm 0,0 km/h (0 Bft) S 189 ° 0 min 0,000 mm 0,0 UV-I 0 W/m² 4,4 °C 10,2 °C 0,0 km/h (0 Bft)
16.10.2018 03:06 10,2 °C 67 % 1015,1 hPa 0,0 mm 0,0 km/h (0 Bft) S 189 ° 0 min 0,000 mm 0,0 UV-I 0 W/m² 4,4 °C 10,2 °C 0,0 km/h (0 Bft)
16.10.2018 03:07 10,3 °C 68 % 1015,1 hPa 0,0 mm 0,0 km/h (0 Bft) S 189 ° 0 min 0,000 mm 0,0 UV-I 0 W/m² 4,7 °C 10,3 °C 0,0 km/h (0 Bft)
16.10.2018 03:08 10,3 °C 67 % 1015,1 hPa 0,0 mm 0,0 km/h (0 Bft) S 189 ° 0 min 0,000 mm 0,0 UV-I 0 W/m² 4,4 °C 10,3 °C 0,0 km/h (0 Bft)
16.10.2018 03:09 10,4 °C 67 % 1015,1 hPa 0,0 mm 0,0 km/h (0 Bft) S 189 ° 0 min 0,000 mm 0,0 UV-I 0 W/m² 4,5 °C 10,4 °C 0,0 km/h (0 Bft)
16.10.2018 03:10 10,6 °C 66 % 1015,1 hPa 0,0 mm 0,0 km/h (0 Bft) S 189 ° 0 min 0,000 mm 0,0 UV-I 0 W/m² 4,5 °C 10,6 °C 0,0 km/h (0 Bft)
16.10.2018 03:11 10,6 °C 67 % 1015,1 hPa 0,0 mm 0,0 km/h (0 Bft) S 189 ° 0 min 0,000 mm 0,0 UV-I 0 W/m² 4,7 °C 10,6 °C 0,0 km/h (0 Bft)
16.10.2018 03:12 10,7 °C 67 % 1015,1 hPa 0,0 mm 0,0 km/h (0 Bft) S 189 ° 0 min 0,000 mm 0,0 UV-I 0 W/m² 4,8 °C 10,7 °C 0,0 km/h (0 Bft)
16.10.2018 03:13 10,7 °C 66 % 1015,1 hPa 0,0 mm 0,0 km/h (0 Bft) S 189 ° 0 min 0,000 mm 0,0 UV-I 0 W/m² 4,6 °C 10,7 °C 0,0 km/h (0 Bft)
16.10.2018 03:14 10,8 °C 65 % 1015,1 hPa 0,0 mm 0,0 km/h (0 Bft) S 189 ° 0 min 0,000 mm 0,0 UV-I 0 W/m² 4,5 °C 10,8 °C 0,0 km/h (0 Bft)
16.10.2018 03:15 10,8 °C 66 % 1015,1 hPa 0,0 mm 0,0 km/h (0 Bft) S 189 ° 0 min 0,000 mm 0,0 UV-I 0 W/m² 4,7 °C 10,8 °C 0,0 km/h (0 Bft)
16.10.2018 03:16 10,8 °C 66 % 1015,1 hPa 0,0 mm 0,0 km/h (0 Bft) S 189 ° 0 min 0,000 mm 0,0 UV-I 0 W/m² 4,7 °C 10,8 °C 0,0 km/h (0 Bft)
16.10.2018 03:17 10,8 °C 66 % 1015,1 hPa 0,0 mm 0,0 km/h (0 Bft) S 189 ° 0 min 0,000 mm 0,0 UV-I 0 W/m² 4,7 °C 10,8 °C 0,0 km/h (0 Bft)
16.10.2018 03:18 10,9 °C 66 % 1015,1 hPa 0,0 mm 0,0 km/h (0 Bft) S 189 ° 0 min 0,000 mm 0,0 UV-I 0 W/m² 4,8 °C 10,9 °C 0,0 km/h (0 Bft)
16.10.2018 03:19 10,9 °C 65 % 1015,1 hPa 0,0 mm 0,0 km/h (0 Bft) S 189 ° 0 min 0,000 mm 0,0 UV-I 0 W/m² 4,6 °C 10,9 °C 0,0 km/h (0 Bft)
16.10.2018 03:20 10,9 °C 65 % 1015,1 hPa 0,0 mm 0,0 km/h (0 Bft) S 189 ° 0 min 0,000 mm 0,0 UV-I 0 W/m² 4,6 °C 10,9 °C 0,0 km/h (0 Bft)
16.10.2018 03:21 10,9 °C 64 % 1015,1 hPa 0,0 mm 0,0 km/h (0 Bft) S 189 ° 0 min 0,000 mm 0,0 UV-I 0 W/m² 4,4 °C 10,9 °C 0,0 km/h (0 Bft)
16.10.2018 03:22 10,9 °C 64 % 1015,1 hPa 0,0 mm 0,0 km/h (0 Bft) S 189 ° 0 min 0,000 mm 0,0 UV-I 0 W/m² 4,4 °C 10,9 °C 0,0 km/h (0 Bft)
16.10.2018 03:23 10,9 °C 64 % 1015,1 hPa 0,0 mm 0,0 km/h (0 Bft) S 189 ° 0 min 0,000 mm 0,0 UV-I 0 W/m² 4,4 °C 10,9 °C 0,0 km/h (0 Bft)
16.10.2018 03:24 10,9 °C 65 % 1015,0 hPa 0,0 mm 0,0 km/h (0 Bft) S 189 ° 0 min 0,000 mm 0,0 UV-I 0 W/m² 4,6 °C 10,9 °C 0,0 km/h (0 Bft)
16.10.2018 03:25 10,9 °C 66 % 1015,0 hPa 0,0 mm 0,0 km/h (0 Bft) S 189 ° 0 min 0,000 mm 0,0 UV-I 0 W/m² 4,8 °C 10,9 °C 0,0 km/h (0 Bft)
16.10.2018 03:26 10,9 °C 66 % 1015,1 hPa 0,0 mm 0,0 km/h (0 Bft) S 189 ° 0 min 0,000 mm 0,0 UV-I 0 W/m² 4,8 °C 10,9 °C 0,0 km/h (0 Bft)
16.10.2018 03:27 10,9 °C 66 % 1015,1 hPa 0,0 mm 0,0 km/h (0 Bft) S 189 ° 0 min 0,000 mm 0,0 UV-I 0 W/m² 4,8 °C 10,9 °C 0,0 km/h (0 Bft)
16.10.2018 03:28 10,8 °C 66 % 1015,1 hPa 0,0 mm 0,0 km/h (0 Bft) S 189 ° 0 min 0,000 mm 0,0 UV-I 0 W/m² 4,7 °C 10,8 °C 0,0 km/h (0 Bft)
16.10.2018 03:29 10,9 °C 66 % 1015,1 hPa 0,0 mm 0,0 km/h (0 Bft) S 189 ° 0 min 0,000 mm 0,0 UV-I 0 W/m² 4,8 °C 10,9 °C 0,0 km/h (0 Bft)
16.10.2018 03:30 10,9 °C 66 % 1015,1 hPa 0,0 mm 0,0 km/h (0 Bft) S 189 ° 0 min 0,000 mm 0,0 UV-I 0 W/m² 4,8 °C 10,9 °C 0,0 km/h (0 Bft)
16.10.2018 03:31 10,9 °C 66 % 1015,1 hPa 0,0 mm 0,0 km/h (0 Bft) S 189 ° 0 min 0,000 mm 0,0 UV-I 0 W/m² 4,8 °C 10,9 °C 0,0 km/h (0 Bft)
16.10.2018 03:32 10,9 °C 65 % 1015,1 hPa 0,0 mm 0,0 km/h (0 Bft) S 189 ° 0 min 0,000 mm 0,0 UV-I 0 W/m² 4,6 °C 10,9 °C 0,0 km/h (0 Bft)
16.10.2018 03:33 10,9 °C 65 % 1015,1 hPa 0,0 mm 0,0 km/h (0 Bft) S 189 ° 0 min 0,000 mm 0,0 UV-I 0 W/m² 4,6 °C 10,9 °C 0,0 km/h (0 Bft)
16.10.2018 03:34 11,0 °C 65 % 1015,1 hPa 0,0 mm 0,0 km/h (0 Bft) S 189 ° 0 min 0,000 mm 0,0 UV-I 0 W/m² 4,7 °C 11,0 °C 0,0 km/h (0 Bft)
16.10.2018 03:35 11,0 °C 64 % 1015,1 hPa 0,0 mm 0,0 km/h (0 Bft) S 189 ° 0 min 0,000 mm 0,0 UV-I 0 W/m² 4,5 °C 11,0 °C 0,0 km/h (0 Bft)
16.10.2018 03:36 11,1 °C 64 % 1015,1 hPa 0,0 mm 0,0 km/h (0 Bft) S 189 ° 0 min 0,000 mm 0,0 UV-I 0 W/m² 4,6 °C 11,1 °C 0,0 km/h (0 Bft)
16.10.2018 03:37 11,1 °C 64 % 1015,2 hPa 0,0 mm 0,0 km/h (0 Bft) S 189 ° 0 min 0,000 mm 0,0 UV-I 0 W/m² 4,6 °C 11,1 °C 0,0 km/h (0 Bft)
16.10.2018 03:38 11,2 °C 64 % 1015,1 hPa 0,0 mm 0,0 km/h (0 Bft) S 189 ° 0 min 0,000 mm 0,0 UV-I 0 W/m² 4,6 °C 11,2 °C 0,0 km/h (0 Bft)
16.10.2018 03:39 11,2 °C 64 % 1015,1 hPa 0,0 mm 0,0 km/h (0 Bft) S 189 ° 0 min 0,000 mm 0,0 UV-I 0 W/m² 4,6 °C 11,2 °C 0,0 km/h (0 Bft)
16.10.2018 03:40 11,2 °C 64 % 1015,1 hPa 0,0 mm 0,0 km/h (0 Bft) S 189 ° 0 min 0,000 mm 0,0 UV-I 0 W/m² 4,6 °C 11,2 °C 0,0 km/h (0 Bft)
16.10.2018 03:41 11,1 °C 64 % 1015,1 hPa 0,0 mm 0,0 km/h (0 Bft) S 189 ° 0 min 0,000 mm 0,0 UV-I 0 W/m² 4,6 °C 11,1 °C 0,0 km/h (0 Bft)
16.10.2018 03:42 11,1 °C 64 % 1015,1 hPa 0,0 mm 0,0 km/h (0 Bft) S 189 ° 0 min 0,000 mm 0,0 UV-I 0 W/m² 4,6 °C 11,1 °C 0,0 km/h (0 Bft)
16.10.2018 03:43 11,1 °C 64 % 1015,1 hPa 0,0 mm 0,0 km/h (0 Bft) S 189 ° 0 min 0,000 mm 0,0 UV-I 0 W/m² 4,6 °C 11,1 °C 0,0 km/h (0 Bft)
16.10.2018 03:44 11,1 °C 64 % 1015,2 hPa 0,0 mm 0,0 km/h (0 Bft) S 189 ° 0 min 0,000 mm 0,0 UV-I 0 W/m² 4,6 °C 11,1 °C 0,0 km/h (0 Bft)
16.10.2018 03:45 11,1 °C 64 % 1015,1 hPa 0,0 mm 0,0 km/h (0 Bft) S 189 ° 0 min 0,000 mm 0,0 UV-I 0 W/m² 4,6 °C 11,1 °C 0,0 km/h (0 Bft)
16.10.2018 03:46 11,1 °C 64 % 1015,2 hPa 0,0 mm 0,0 km/h (0 Bft) S 189 ° 0 min 0,000 mm 0,0 UV-I 0 W/m² 4,6 °C 11,1 °C 0,0 km/h (0 Bft)
16.10.2018 03:47 11,1 °C 64 % 1015,1 hPa 0,0 mm 0,0 km/h (0 Bft) S 189 ° 0 min 0,000 mm 0,0 UV-I 0 W/m² 4,6 °C 11,1 °C 0,0 km/h (0 Bft)
16.10.2018 03:48 11,1 °C 64 % 1015,1 hPa 0,0 mm 0,0 km/h (0 Bft) S 189 ° 0 min 0,000 mm 0,0 UV-I 0 W/m² 4,6 °C 11,1 °C 0,0 km/h (0 Bft)
16.10.2018 03:49 11,0 °C 65 % 1015,1 hPa 0,0 mm 0,0 km/h (0 Bft) S 189 ° 0 min 0,000 mm 0,0 UV-I 0 W/m² 4,7 °C 11,0 °C 0,0 km/h (0 Bft)
16.10.2018 03:50 10,9 °C 65 % 1015,1 hPa 0,0 mm 0,0 km/h (0 Bft) S 189 ° 0 min 0,000 mm 0,0 UV-I 0 W/m² 4,6 °C 10,9 °C 0,0 km/h (0 Bft)
16.10.2018 03:51 10,9 °C 65 % 1015,1 hPa 0,0 mm 0,0 km/h (0 Bft) S 189 ° 0 min 0,000 mm 0,0 UV-I 0 W/m² 4,6 °C 10,9 °C 0,0 km/h (0 Bft)
16.10.2018 03:52 10,9 °C 65 % 1015,1 hPa 0,0 mm 0,0 km/h (0 Bft) S 189 ° 0 min 0,000 mm 0,0 UV-I 0 W/m² 4,6 °C 10,9 °C 0,0 km/h (0 Bft)
16.10.2018 03:53 10,9 °C 66 % 1015,1 hPa 0,0 mm 0,0 km/h (0 Bft) S 189 ° 0 min 0,000 mm 0,0 UV-I 0 W/m² 4,8 °C 10,9 °C 0,0 km/h (0 Bft)
16.10.2018 03:54 10,8 °C 66 % 1015,1 hPa 0,0 mm 0,0 km/h (0 Bft) S 189 ° 0 min 0,000 mm 0,0 UV-I 0 W/m² 4,7 °C 10,8 °C 0,0 km/h (0 Bft)
16.10.2018 03:55 10,8 °C 66 % 1015,0 hPa 0,0 mm 0,0 km/h (0 Bft) S 189 ° 0 min 0,000 mm 0,0 UV-I 0 W/m² 4,7 °C 10,8 °C 0,0 km/h (0 Bft)
16.10.2018 03:56 10,8 °C 65 % 1015,1 hPa 0,0 mm 0,0 km/h (0 Bft) S 189 ° 0 min 0,000 mm 0,0 UV-I 0 W/m² 4,5 °C 10,8 °C 0,0 km/h (0 Bft)
16.10.2018 03:57 10,8 °C 66 % 1015,1 hPa 0,0 mm 0,0 km/h (0 Bft) S 189 ° 0 min 0,000 mm 0,0 UV-I 0 W/m² 4,7 °C 10,8 °C 0,0 km/h (0 Bft)
16.10.2018 03:58 10,8 °C 66 % 1015,1 hPa 0,0 mm 0,0 km/h (0 Bft) S 189 ° 0 min 0,000 mm 0,0 UV-I 0 W/m² 4,7 °C 10,8 °C 0,0 km/h (0 Bft)
16.10.2018 03:59 10,8 °C 66 % 1015,1 hPa 0,0 mm 0,0 km/h (0 Bft) S 189 ° 0 min 0,000 mm 0,0 UV-I 0 W/m² 4,7 °C 10,8 °C 0,0 km/h (0 Bft)
16.10.2018 04:00 10,7 °C 66 % 1015,2 hPa 0,0 mm 0,0 km/h (0 Bft) S 189 ° 0 min 0,026 mm 0,0 UV-I 0 W/m² 4,6 °C 10,7 °C 0,0 km/h (0 Bft)
16.10.2018 04:01 10,6 °C 66 % 1015,1 hPa 0,0 mm 0,4 km/h (0 Bft) S-SW 200 ° 0 min 0,000 mm 0,0 UV-I 0 W/m² 4,5 °C 10,6 °C 3,2 km/h (1 Bft)
16.10.2018 04:02 10,3 °C 66 % 1015,1 hPa 0,0 mm 0,7 km/h (0 Bft) S-SW 200 ° 0 min 0,000 mm 0,0 UV-I 0 W/m² 4,2 °C 10,3 °C 3,2 km/h (1 Bft)
16.10.2018 04:03 10,0 °C 66 % 1015,1 hPa 0,0 mm 0,7 km/h (0 Bft) S 179 ° 0 min 0,000 mm 0,0 UV-I 0 W/m² 3,9 °C 10,0 °C 3,2 km/h (1 Bft)
16.10.2018 04:04 9,7 °C 67 % 1015,2 hPa 0,0 mm 0,1 km/h (0 Bft) S 179 ° 0 min 0,000 mm 0,0 UV-I 0 W/m² 3,9 °C 9,7 °C 1,6 km/h (1 Bft)
16.10.2018 04:05 9,5 °C 68 % 1015,2 hPa 0,0 mm 0,0 km/h (0 Bft) S 179 ° 0 min 0,000 mm 0,0 UV-I 0 W/m² 3,9 °C 9,5 °C 0,0 km/h (0 Bft)
16.10.2018 04:06 9,3 °C 69 % 1015,2 hPa 0,0 mm 0,0 km/h (0 Bft) S 179 ° 0 min 0,000 mm 0,0 UV-I 0 W/m² 3,9 °C 9,3 °C 0,0 km/h (0 Bft)
16.10.2018 04:07 9,2 °C 69 % 1015,2 hPa 0,0 mm 0,0 km/h (0 Bft) S 179 ° 0 min 0,000 mm 0,0 UV-I 0 W/m² 3,8 °C 9,2 °C 0,0 km/h (0 Bft)
16.10.2018 04:08 9,2 °C 69 % 1015,2 hPa 0,0 mm 0,0 km/h (0 Bft) S 179 ° 0 min 0,000 mm 0,0 UV-I 0 W/m² 3,8 °C 9,2 °C 0,0 km/h (0 Bft)
16.10.2018 04:09 9,1 °C 70 % 1015,3 hPa 0,0 mm 0,0 km/h (0 Bft) S 179 ° 0 min 0,000 mm 0,0 UV-I 0 W/m² 3,9 °C 9,1 °C 0,0 km/h (0 Bft)
16.10.2018 04:10 9,2 °C 69 % 1015,2 hPa 0,0 mm 0,0 km/h (0 Bft) S 179 ° 0 min 0,000 mm 0,0 UV-I 0 W/m² 3,8 °C 9,2 °C 0,0 km/h (0 Bft)
16.10.2018 04:11 9,2 °C 69 % 1015,3 hPa 0,0 mm 0,0 km/h (0 Bft) S 179 ° 0 min 0,000 mm 0,0 UV-I 0 W/m² 3,8 °C 9,2 °C 0,0 km/h (0 Bft)
16.10.2018 04:12 9,2 °C 69 % 1015,2 hPa 0,0 mm 0,0 km/h (0 Bft) S 179 ° 0 min 0,000 mm 0,0 UV-I 0 W/m² 3,8 °C 9,2 °C 0,0 km/h (0 Bft)
16.10.2018 04:13 9,2 °C 69 % 1015,3 hPa 0,0 mm 0,0 km/h (0 Bft) S 179 ° 0 min 0,000 mm 0,0 UV-I 0 W/m² 3,8 °C 9,2 °C 0,0 km/h (0 Bft)
16.10.2018 04:14 9,3 °C 69 % 1015,3 hPa 0,0 mm 0,0 km/h (0 Bft) S 179 ° 0 min 0,000 mm 0,0 UV-I 0 W/m² 3,9 °C 9,3 °C 0,0 km/h (0 Bft)
16.10.2018 04:15 9,2 °C 69 % 1015,3 hPa 0,0 mm 0,0 km/h (0 Bft) S 179 ° 0 min 0,000 mm 0,0 UV-I 0 W/m² 3,8 °C 9,2 °C 0,0 km/h (0 Bft)
16.10.2018 04:16 9,2 °C 69 % 1015,3 hPa 0,0 mm 0,0 km/h (0 Bft) S 179 ° 0 min 0,000 mm 0,0 UV-I 0 W/m² 3,8 °C 9,2 °C 0,0 km/h (0 Bft)
16.10.2018 04:17 9,2 °C 69 % 1015,3 hPa 0,0 mm 0,0 km/h (0 Bft) S 179 ° 0 min 0,000 mm 0,0 UV-I 0 W/m² 3,8 °C 9,2 °C 0,0 km/h (0 Bft)
16.10.2018 04:18 9,1 °C 69 % 1015,3 hPa 0,0 mm 0,0 km/h (0 Bft) S 179 ° 0 min 0,000 mm 0,0 UV-I 0 W/m² 3,7 °C 9,1 °C 0,0 km/h (0 Bft)
16.10.2018 04:19 8,9 °C 69 % 1015,3 hPa 0,0 mm 0,0 km/h (0 Bft) S 179 ° 0 min 0,000 mm 0,0 UV-I 0 W/m² 3,5 °C 8,9 °C 0,0 km/h (0 Bft)
16.10.2018 04:20 8,8 °C 70 % 1015,3 hPa 0,0 mm 0,0 km/h (0 Bft) S 179 ° 0 min 0,000 mm 0,0 UV-I 0 W/m² 3,6 °C 8,8 °C 0,0 km/h (0 Bft)
16.10.2018 04:21 8,8 °C 70 % 1015,3 hPa 0,0 mm 0,0 km/h (0 Bft) S 179 ° 0 min 0,000 mm 0,0 UV-I 0 W/m² 3,6 °C 8,8 °C 0,0 km/h (0 Bft)
16.10.2018 04:22 8,7 °C 71 % 1015,3 hPa 0,0 mm 0,0 km/h (0 Bft) S 179 ° 0 min 0,000 mm 0,0 UV-I 0 W/m² 3,7 °C 8,7 °C 0,0 km/h (0 Bft)
16.10.2018 04:23 8,7 °C 71 % 1015,3 hPa 0,0 mm 0,0 km/h (0 Bft) S 179 ° 0 min 0,000 mm 0,0 UV-I 0 W/m² 3,7 °C 8,7 °C 0,0 km/h (0 Bft)
16.10.2018 04:24 8,6 °C 71 % 1015,4 hPa 0,0 mm 0,0 km/h (0 Bft) S 179 ° 0 min 0,000 mm 0,0 UV-I 0 W/m² 3,6 °C 8,6 °C 0,0 km/h (0 Bft)
16.10.2018 04:25 8,6 °C 71 % 1015,4 hPa 0,0 mm 0,0 km/h (0 Bft) S 179 ° 0 min 0,000 mm 0,0 UV-I 0 W/m² 3,6 °C 8,6 °C 0,0 km/h (0 Bft)
16.10.2018 04:26 8,4 °C 72 % 1015,4 hPa 0,0 mm 0,0 km/h (0 Bft) S 179 ° 0 min 0,000 mm 0,0 UV-I 0 W/m² 3,7 °C 8,4 °C 0,0 km/h (0 Bft)
16.10.2018 04:27 8,3 °C 72 % 1015,4 hPa 0,0 mm 0,0 km/h (0 Bft) S 179 ° 0 min 0,000 mm 0,0 UV-I 0 W/m² 3,6 °C 8,3 °C 0,0 km/h (0 Bft)
16.10.2018 04:28 8,2 °C 73 % 1015,4 hPa 0,0 mm 0,0 km/h (0 Bft) S 179 ° 0 min 0,000 mm 0,0 UV-I 0 W/m² 3,7 °C 8,2 °C 0,0 km/h (0 Bft)
16.10.2018 04:29 8,1 °C 73 % 1015,4 hPa 0,0 mm 0,0 km/h (0 Bft) S 179 ° 0 min 0,000 mm 0,0 UV-I 0 W/m² 3,6 °C 8,1 °C 0,0 km/h (0 Bft)
16.10.2018 04:30 8,1 °C 73 % 1015,4 hPa 0,0 mm 0,0 km/h (0 Bft) S 179 ° 0 min 0,000 mm 0,0 UV-I 0 W/m² 3,6 °C 8,1 °C 0,0 km/h (0 Bft)
16.10.2018 04:31 7,9 °C 74 % 1015,4 hPa 0,0 mm 0,0 km/h (0 Bft) S 179 ° 0 min 0,000 mm 0,0 UV-I 0 W/m² 3,6 °C 7,9 °C 0,0 km/h (0 Bft)
16.10.2018 04:32 8,0 °C 73 % 1015,4 hPa 0,0 mm 0,0 km/h (0 Bft) S 179 ° 0 min 0,000 mm 0,0 UV-I 0 W/m² 3,5 °C 8,0 °C 0,0 km/h (0 Bft)
16.10.2018 04:33 7,9 °C 73 % 1015,4 hPa 0,0 mm 0,0 km/h (0 Bft) S 179 ° 0 min 0,000 mm 0,0 UV-I 0 W/m² 3,4 °C 7,9 °C 0,0 km/h (0 Bft)
16.10.2018 04:34 7,8 °C 73 % 1015,4 hPa 0,0 mm 0,0 km/h (0 Bft) S 179 ° 0 min 0,000 mm 0,0 UV-I 0 W/m² 3,3 °C 7,8 °C 0,0 km/h (0 Bft)
16.10.2018 04:35 7,8 °C 74 % 1015,4 hPa 0,0 mm 0,0 km/h (0 Bft) S 179 ° 0 min 0,000 mm 0,0 UV-I 0 W/m² 3,5 °C 7,8 °C 0,0 km/h (0 Bft)
16.10.2018 04:36 7,8 °C 74 % 1015,4 hPa 0,0 mm 0,0 km/h (0 Bft) S 179 ° 0 min 0,000 mm 0,0 UV-I 0 W/m² 3,5 °C 7,8 °C 0,0 km/h (0 Bft)
16.10.2018 04:37 7,9 °C 74 % 1015,4 hPa 0,0 mm 0,0 km/h (0 Bft) S 179 ° 0 min 0,000 mm 0,0 UV-I 0 W/m² 3,6 °C 7,9 °C 0,0 km/h (0 Bft)
16.10.2018 04:38 8,0 °C 74 % 1015,4 hPa 0,0 mm 0,0 km/h (0 Bft) S 179 ° 0 min 0,000 mm 0,0 UV-I 0 W/m² 3,7 °C 8,0 °C 0,0 km/h (0 Bft)
16.10.2018 04:39 8,1 °C 73 % 1015,4 hPa 0,0 mm 0,0 km/h (0 Bft) S 179 ° 0 min 0,000 mm 0,0 UV-I 0 W/m² 3,6 °C 8,1 °C 0,0 km/h (0 Bft)
16.10.2018 04:40 8,2 °C 73 % 1015,4 hPa 0,0 mm 0,0 km/h (0 Bft) S 179 ° 0 min 0,000 mm 0,0 UV-I 0 W/m² 3,7 °C 8,2 °C 0,0 km/h (0 Bft)
16.10.2018 04:41 8,2 °C 73 % 1015,4 hPa 0,0 mm 0,0 km/h (0 Bft) S 179 ° 0 min 0,000 mm 0,0 UV-I 0 W/m² 3,7 °C 8,2 °C 0,0 km/h (0 Bft)
16.10.2018 04:42 8,2 °C 73 % 1015,4 hPa 0,0 mm 0,0 km/h (0 Bft) S 179 ° 0 min 0,000 mm 0,0 UV-I 0 W/m² 3,7 °C 8,2 °C 0,0 km/h (0 Bft)
16.10.2018 04:43 8,1 °C 73 % 1015,4 hPa 0,0 mm 0,0 km/h (0 Bft) S 179 ° 0 min 0,000 mm 0,0 UV-I 0 W/m² 3,6 °C 8,1 °C 0,0 km/h (0 Bft)
16.10.2018 04:44 8,1 °C 73 % 1015,4 hPa 0,0 mm 0,0 km/h (0 Bft) S 179 ° 0 min 0,000 mm 0,0 UV-I 0 W/m² 3,6 °C 8,1 °C 0,0 km/h (0 Bft)
16.10.2018 04:45 8,0 °C 73 % 1015,4 hPa 0,0 mm 0,0 km/h (0 Bft) S 179 ° 0 min 0,000 mm 0,0 UV-I 0 W/m² 3,5 °C 8,0 °C 0,0 km/h (0 Bft)
16.10.2018 04:46 7,9 °C 73 % 1015,4 hPa 0,0 mm 0,0 km/h (0 Bft) S 179 ° 0 min 0,000 mm 0,0 UV-I 0 W/m² 3,4 °C 7,9 °C 0,0 km/h (0 Bft)
16.10.2018 04:47 7,8 °C 74 % 1015,4 hPa 0,0 mm 0,0 km/h (0 Bft) S 179 ° 0 min 0,000 mm 0,0 UV-I 0 W/m² 3,5 °C 7,8 °C 0,0 km/h (0 Bft)
16.10.2018 04:48 7,8 °C 75 % 1015,4 hPa 0,0 mm 0,0 km/h (0 Bft) S 179 ° 0 min 0,000 mm 0,0 UV-I 0 W/m² 3,7 °C 7,8 °C 0,0 km/h (0 Bft)
16.10.2018 04:49 7,7 °C 75 % 1015,4 hPa 0,0 mm 0,0 km/h (0 Bft) S 179 ° 0 min 0,000 mm 0,0 UV-I 0 W/m² 3,6 °C 7,7 °C 0,0 km/h (0 Bft)
16.10.2018 04:50 7,7 °C 75 % 1015,5 hPa 0,0 mm 0,0 km/h (0 Bft) S 179 ° 0 min 0,000 mm 0,0 UV-I 0 W/m² 3,6 °C 7,7 °C 0,0 km/h (0 Bft)
16.10.2018 04:51 7,7 °C 75 % 1015,4 hPa 0,0 mm 0,0 km/h (0 Bft) S 179 ° 0 min 0,000 mm 0,0 UV-I 0 W/m² 3,6 °C 7,7 °C 0,0 km/h (0 Bft)
16.10.2018 04:52 7,6 °C 75 % 1015,4 hPa 0,0 mm 0,0 km/h (0 Bft) S 179 ° 0 min 0,000 mm 0,0 UV-I 0 W/m² 3,5 °C 7,6 °C 0,0 km/h (0 Bft)
16.10.2018 04:53 7,7 °C 76 % 1015,5 hPa 0,0 mm 0,0 km/h (0 Bft) S 179 ° 0 min 0,000 mm 0,0 UV-I 0 W/m² 3,7 °C 7,7 °C 0,0 km/h (0 Bft)
16.10.2018 04:54 7,7 °C 75 % 1015,4 hPa 0,0 mm 0,0 km/h (0 Bft) S 179 ° 0 min 0,000 mm 0,0 UV-I 0 W/m² 3,6 °C 7,7 °C 0,0 km/h (0 Bft)
16.10.2018 04:55 7,6 °C 75 % 1015,5 hPa 0,0 mm 0,0 km/h (0 Bft) S 179 ° 0 min 0,000 mm 0,0 UV-I 0 W/m² 3,5 °C 7,6 °C 0,0 km/h (0 Bft)
16.10.2018 04:56 7,4 °C 75 % 1015,4 hPa 0,0 mm 0,0 km/h (0 Bft) S 179 ° 0 min 0,000 mm 0,0 UV-I 0 W/m² 3,3 °C 7,4 °C 0,0 km/h (0 Bft)
16.10.2018 04:57 7,3 °C 75 % 1015,5 hPa 0,0 mm 0,0 km/h (0 Bft) S 179 ° 0 min 0,000 mm 0,0 UV-I 0 W/m² 3,2 °C 7,3 °C 0,0 km/h (0 Bft)
16.10.2018 04:58 7,2 °C 76 % 1015,5 hPa 0,0 mm 0,0 km/h (0 Bft) S 179 ° 0 min 0,000 mm 0,0 UV-I 0 W/m² 3,3 °C 7,2 °C 0,0 km/h (0 Bft)
16.10.2018 04:59 7,1 °C 77 % 1015,5 hPa 0,0 mm 0,0 km/h (0 Bft) S 179 ° 0 min 0,000 mm 0,0 UV-I 0 W/m² 3,3 °C 7,1 °C 0,0 km/h (0 Bft)
16.10.2018 05:00 7,2 °C 77 % 1015,5 hPa 0,0 mm 0,0 km/h (0 Bft) S 179 ° 0 min 0,000 mm 0,0 UV-I 0 W/m² 3,4 °C 7,2 °C 0,0 km/h (0 Bft)
16.10.2018 05:01 7,3 °C 77 % 1015,5 hPa 0,0 mm 0,0 km/h (0 Bft) S 179 ° 0 min 0,025 mm 0,0 UV-I 0 W/m² 3,5 °C 7,3 °C 0,0 km/h (0 Bft)
16.10.2018 05:02 7,4 °C 77 % 1015,6 hPa 0,0 mm 0,0 km/h (0 Bft) S 179 ° 0 min 0,000 mm 0,0 UV-I 0 W/m² 3,6 °C 7,4 °C 0,0 km/h (0 Bft)
16.10.2018 05:03 7,6 °C 76 % 1015,6 hPa 0,0 mm 0,0 km/h (0 Bft) S 179 ° 0 min 0,000 mm 0,0 UV-I 0 W/m² 3,6 °C 7,6 °C 0,0 km/h (0 Bft)
16.10.2018 05:04 7,7 °C 76 % 1015,6 hPa 0,0 mm 0,0 km/h (0 Bft) S 179 ° 0 min 0,000 mm 0,0 UV-I 0 W/m² 3,7 °C 7,7 °C 0,0 km/h (0 Bft)
16.10.2018 05:05 7,8 °C 75 % 1015,7 hPa 0,0 mm 0,0 km/h (0 Bft) S 179 ° 0 min 0,000 mm 0,0 UV-I 0 W/m² 3,7 °C 7,8 °C 0,0 km/h (0 Bft)
16.10.2018 05:06 8,0 °C 75 % 1015,6 hPa 0,0 mm 0,0 km/h (0 Bft) S 179 ° 0 min 0,000 mm 0,0 UV-I 0 W/m² 3,8 °C 8,0 °C 0,0 km/h (0 Bft)
16.10.2018 05:07 7,9 °C 74 % 1015,6 hPa 0,0 mm 0,0 km/h (0 Bft) S 179 ° 0 min 0,000 mm 0,0 UV-I 0 W/m² 3,6 °C 7,9 °C 0,0 km/h (0 Bft)
16.10.2018 05:08 7,9 °C 74 % 1015,7 hPa 0,0 mm 0,0 km/h (0 Bft) S 179 ° 0 min 0,000 mm 0,0 UV-I 0 W/m² 3,6 °C 7,9 °C 0,0 km/h (0 Bft)
16.10.2018 05:09 7,8 °C 74 % 1015,7 hPa 0,0 mm 0,0 km/h (0 Bft) S 179 ° 0 min 0,000 mm 0,0 UV-I 0 W/m² 3,5 °C 7,8 °C 0,0 km/h (0 Bft)
16.10.2018 05:10 7,8 °C 74 % 1015,7 hPa 0,0 mm 0,0 km/h (0 Bft) S 179 ° 0 min 0,000 mm 0,0 UV-I 0 W/m² 3,5 °C 7,8 °C 0,0 km/h (0 Bft)
16.10.2018 05:11 7,8 °C 75 % 1015,7 hPa 0,0 mm 0,0 km/h (0 Bft) S 179 ° 0 min 0,000 mm 0,0 UV-I 0 W/m² 3,7 °C 7,8 °C 0,0 km/h (0 Bft)
16.10.2018 05:12 7,7 °C 75 % 1015,7 hPa 0,0 mm 0,0 km/h (0 Bft) S 179 ° 0 min 0,000 mm 0,0 UV-I 0 W/m² 3,6 °C 7,7 °C 0,0 km/h (0 Bft)
16.10.2018 05:13 7,7 °C 75 % 1015,7 hPa 0,0 mm 0,0 km/h (0 Bft) S 179 ° 0 min 0,000 mm 0,0 UV-I 0 W/m² 3,6 °C 7,7 °C 0,0 km/h (0 Bft)
16.10.2018 05:14 7,6 °C 75 % 1015,7 hPa 0,0 mm 0,0 km/h (0 Bft) S 179 ° 0 min 0,000 mm 0,0 UV-I 0 W/m² 3,5 °C 7,6 °C 0,0 km/h (0 Bft)
16.10.2018 05:15 7,4 °C 75 % 1015,7 hPa 0,0 mm 0,0 km/h (0 Bft) S 179 ° 0 min 0,000 mm 0,0 UV-I 0 W/m² 3,3 °C 7,4 °C 0,0 km/h (0 Bft)
16.10.2018 05:16 7,4 °C 76 % 1015,7 hPa 0,0 mm 0,0 km/h (0 Bft) S 179 ° 0 min 0,000 mm 0,0 UV-I 0 W/m² 3,5 °C 7,4 °C 0,0 km/h (0 Bft)
16.10.2018 05:17 7,3 °C 76 % 1015,7 hPa 0,0 mm 0,0 km/h (0 Bft) S 179 ° 0 min 0,000 mm 0,0 UV-I 0 W/m² 3,4 °C 7,3 °C 0,0 km/h (0 Bft)
16.10.2018 05:18 7,1 °C 77 % 1015,7 hPa 0,0 mm 0,1 km/h (0 Bft) S 179 ° 0 min 0,000 mm 0,0 UV-I 0 W/m² 3,3 °C 7,1 °C 1,6 km/h (1 Bft)
16.10.2018 05:19 7,1 °C 77 % 1015,7 hPa 0,0 mm 0,0 km/h (0 Bft) S 179 ° 0 min 0,000 mm 0,0 UV-I 0 W/m² 3,3 °C 7,1 °C 0,0 km/h (0 Bft)
16.10.2018 05:20 7,0 °C 77 % 1015,7 hPa 0,0 mm 0,0 km/h (0 Bft) S 179 ° 0 min 0,000 mm 0,0 UV-I 0 W/m² 3,2 °C 7,0 °C 0,0 km/h (0 Bft)
16.10.2018 05:21 7,1 °C 78 % 1015,7 hPa 0,0 mm 0,0 km/h (0 Bft) S 179 ° 0 min 0,000 mm 0,0 UV-I 0 W/m² 3,5 °C 7,1 °C 0,0 km/h (0 Bft)
16.10.2018 05:22 7,0 °C 78 % 1015,7 hPa 0,0 mm 0,0 km/h (0 Bft) S 179 ° 0 min 0,000 mm 0,0 UV-I 0 W/m² 3,4 °C 7,0 °C 0,0 km/h (0 Bft)
16.10.2018 05:23 7,0 °C 78 % 1015,7 hPa 0,0 mm 0,0 km/h (0 Bft) S 179 ° 0 min 0,000 mm 0,0 UV-I 0 W/m² 3,4 °C 7,0 °C 0,0 km/h (0 Bft)
16.10.2018 05:24 6,9 °C 78 % 1015,8 hPa 0,0 mm 0,0 km/h (0 Bft) S 179 ° 0 min 0,000 mm 0,0 UV-I 0 W/m² 3,3 °C 6,9 °C 0,0 km/h (0 Bft)
16.10.2018 05:25 6,9 °C 78 % 1015,8 hPa 0,0 mm 0,0 km/h (0 Bft) S 179 ° 0 min 0,000 mm 0,0 UV-I 0 W/m² 3,3 °C 6,9 °C 0,0 km/h (0 Bft)
16.10.2018 05:26 6,9 °C 77 % 1015,7 hPa 0,0 mm 0,0 km/h (0 Bft) S 179 ° 0 min 0,000 mm 0,0 UV-I 0 W/m² 3,2 °C 6,9 °C 0,0 km/h (0 Bft)
16.10.2018 05:27 7,0 °C 77 % 1015,8 hPa 0,0 mm 0,0 km/h (0 Bft) S 179 ° 0 min 0,000 mm 0,0 UV-I 0 W/m² 3,2 °C 7,0 °C 0,0 km/h (0 Bft)
16.10.2018 05:28 7,0 °C 77 % 1015,8 hPa 0,0 mm 0,0 km/h (0 Bft) S 179 ° 0 min 0,000 mm 0,0 UV-I 0 W/m² 3,2 °C 7,0 °C 0,0 km/h (0 Bft)
16.10.2018 05:29 7,1 °C 77 % 1015,8 hPa 0,0 mm 0,2 km/h (0 Bft) S 179 ° 0 min 0,000 mm 0,0 UV-I 0 W/m² 3,3 °C 7,1 °C 1,6 km/h (1 Bft)
16.10.2018 05:30 7,1 °C 77 % 1015,8 hPa 0,0 mm 0,3 km/h (0 Bft) S 179 ° 0 min 0,000 mm 0,0 UV-I 0 W/m² 3,3 °C 7,1 °C 1,6 km/h (1 Bft)
16.10.2018 05:31 7,2 °C 76 % 1015,8 hPa 0,0 mm 0,9 km/h (0 Bft) S 179 ° 0 min 0,000 mm 0,0 UV-I 0 W/m² 3,3 °C 7,2 °C 1,6 km/h (1 Bft)
16.10.2018 05:32 7,2 °C 76 % 1015,8 hPa 0,0 mm 1,6 km/h (1 Bft) S 179 ° 0 min 0,000 mm 0,0 UV-I 0 W/m² 3,3 °C 7,2 °C 3,2 km/h (1 Bft)
16.10.2018 05:33 7,2 °C 76 % 1015,8 hPa 0,0 mm 0,3 km/h (0 Bft) S 179 ° 0 min 0,000 mm 0,0 UV-I 0 W/m² 3,3 °C 7,2 °C 1,6 km/h (1 Bft)
16.10.2018 05:34 7,1 °C 77 % 1015,8 hPa 0,0 mm 0,0 km/h (0 Bft) S 179 ° 0 min 0,000 mm 0,0 UV-I 0 W/m² 3,3 °C 7,1 °C 0,0 km/h (0 Bft)
16.10.2018 05:35 7,1 °C 77 % 1015,8 hPa 0,0 mm 0,2 km/h (0 Bft) S 179 ° 0 min 0,000 mm 0,0 UV-I 0 W/m² 3,3 °C 7,1 °C 1,6 km/h (1 Bft)
16.10.2018 05:36 7,1 °C 77 % 1015,8 hPa 0,0 mm 0,1 km/h (0 Bft) S 179 ° 0 min 0,000 mm 0,0 UV-I 0 W/m² 3,3 °C 7,1 °C 1,6 km/h (1 Bft)
16.10.2018 05:37 7,1 °C 77 % 1015,8 hPa 0,0 mm 0,0 km/h (0 Bft) S 179 ° 0 min 0,000 mm 0,0 UV-I 0 W/m² 3,3 °C 7,1 °C 0,0 km/h (0 Bft)
16.10.2018 05:38 7,1 °C 77 % 1015,9 hPa 0,0 mm 0,0 km/h (0 Bft) S 179 ° 0 min 0,000 mm 0,0 UV-I 0 W/m² 3,3 °C 7,1 °C 0,0 km/h (0 Bft)
16.10.2018 05:39 7,1 °C 77 % 1015,9 hPa 0,0 mm 0,0 km/h (0 Bft) S 179 ° 0 min 0,000 mm 0,0 UV-I 0 W/m² 3,3 °C 7,1 °C 0,0 km/h (0 Bft)
16.10.2018 05:40 7,1 °C 76 % 1015,9 hPa 0,0 mm 0,0 km/h (0 Bft) S 179 ° 0 min 0,000 mm 0,0 UV-I 0 W/m² 3,2 °C 7,1 °C 0,0 km/h (0 Bft)
16.10.2018 05:41 7,1 °C 77 % 1015,9 hPa 0,0 mm 0,0 km/h (0 Bft) S 179 ° 0 min 0,000 mm 0,0 UV-I 0 W/m² 3,3 °C 7,1 °C 0,0 km/h (0 Bft)
16.10.2018 05:42 7,2 °C 76 % 1016,0 hPa 0,0 mm 0,0 km/h (0 Bft) S 179 ° 0 min 0,000 mm 0,0 UV-I 0 W/m² 3,3 °C 7,2 °C 0,0 km/h (0 Bft)
16.10.2018 05:43 7,2 °C 77 % 1016,0 hPa 0,0 mm 0,0 km/h (0 Bft) S 179 ° 0 min 0,000 mm 0,0 UV-I 0 W/m² 3,4 °C 7,2 °C 0,0 km/h (0 Bft)
16.10.2018 05:44 7,2 °C 77 % 1015,9 hPa 0,0 mm 0,0 km/h (0 Bft) S 179 ° 0 min 0,000 mm 0,0 UV-I 0 W/m² 3,4 °C 7,2 °C 0,0 km/h (0 Bft)
16.10.2018 05:45 7,2 °C 77 % 1015,9 hPa 0,0 mm 0,0 km/h (0 Bft) S 179 ° 0 min 0,000 mm 0,0 UV-I 0 W/m² 3,4 °C 7,2 °C 0,0 km/h (0 Bft)
16.10.2018 05:46 7,1 °C 77 % 1016,0 hPa 0,0 mm 0,0 km/h (0 Bft) S 179 ° 0 min 0,000 mm 0,0 UV-I 0 W/m² 3,3 °C 7,1 °C 0,0 km/h (0 Bft)
16.10.2018 05:47 7,1 °C 77 % 1016,0 hPa 0,0 mm 0,0 km/h (0 Bft) S 179 ° 0 min 0,000 mm 0,0 UV-I 0 W/m² 3,3 °C 7,1 °C 0,0 km/h (0 Bft)
16.10.2018 05:48 6,9 °C 77 % 1016,0 hPa 0,0 mm 0,0 km/h (0 Bft) S 179 ° 0 min 0,000 mm 0,0 UV-I 0 W/m² 3,2 °C 6,9 °C 0,0 km/h (0 Bft)
16.10.2018 05:49 6,9 °C 77 % 1016,0 hPa 0,0 mm 0,0 km/h (0 Bft) S 179 ° 0 min 0,000 mm 0,0 UV-I 0 W/m² 3,2 °C 6,9 °C 0,0 km/h (0 Bft)
16.10.2018 05:50 6,8 °C 77 % 1016,0 hPa 0,0 mm 0,0 km/h (0 Bft) S 179 ° 0 min 0,000 mm 0,0 UV-I 0 W/m² 3,1 °C 6,8 °C 0,0 km/h (0 Bft)
16.10.2018 05:51 6,8 °C 78 % 1016,1 hPa 0,0 mm 0,0 km/h (0 Bft) S 179 ° 0 min 0,000 mm 0,0 UV-I 0 W/m² 3,2 °C 6,8 °C 0,0 km/h (0 Bft)
16.10.2018 05:52 6,8 °C 78 % 1016,1 hPa 0,0 mm 0,0 km/h (0 Bft) S 179 ° 0 min 0,000 mm 0,0 UV-I 0 W/m² 3,2 °C 6,8 °C 0,0 km/h (0 Bft)
16.10.2018 05:53 6,8 °C 78 % 1016,1 hPa 0,0 mm 0,0 km/h (0 Bft) S 179 ° 0 min 0,000 mm 0,0 UV-I 0 W/m² 3,2 °C 6,8 °C 0,0 km/h (0 Bft)
16.10.2018 05:54 6,8 °C 78 % 1016,1 hPa 0,0 mm 0,0 km/h (0 Bft) S 179 ° 0 min 0,000 mm 0,0 UV-I 0 W/m² 3,2 °C 6,8 °C 0,0 km/h (0 Bft)
16.10.2018 05:55 6,8 °C 78 % 1016,1 hPa 0,0 mm 0,0 km/h (0 Bft) S 179 ° 0 min 0,000 mm 0,0 UV-I 0 W/m² 3,2 °C 6,8 °C 0,0 km/h (0 Bft)
16.10.2018 05:56 6,7 °C 78 % 1016,1 hPa 0,0 mm 0,0 km/h (0 Bft) S 179 ° 0 min 0,000 mm 0,0 UV-I 0 W/m² 3,1 °C 6,7 °C 0,0 km/h (0 Bft)
16.10.2018 05:57 6,7 °C 79 % 1016,2 hPa 0,0 mm 0,0 km/h (0 Bft) S 179 ° 0 min 0,000 mm 0,0 UV-I 0 W/m² 3,3 °C 6,7 °C 0,0 km/h (0 Bft)
16.10.2018 05:58 6,7 °C 79 % 1016,1 hPa 0,0 mm 0,0 km/h (0 Bft) S 179 ° 0 min 0,000 mm 0,0 UV-I 0 W/m² 3,3 °C 6,7 °C 0,0 km/h (0 Bft)
16.10.2018 05:59 6,7 °C 79 % 1016,1 hPa 0,0 mm 0,0 km/h (0 Bft) S 179 ° 0 min 0,000 mm 0,0 UV-I 0 W/m² 3,3 °C 6,7 °C 0,0 km/h (0 Bft)
16.10.2018 06:00 6,8 °C 79 % 1016,1 hPa 0,0 mm 0,0 km/h (0 Bft) S 179 ° 0 min 0,000 mm 0,0 UV-I 0 W/m² 3,4 °C 6,8 °C 0,0 km/h (0 Bft)
16.10.2018 06:01 6,8 °C 79 % 1016,1 hPa 0,0 mm 0,0 km/h (0 Bft) S 179 ° 0 min 0,025 mm 0,0 UV-I 0 W/m² 3,4 °C 6,8 °C 0,0 km/h (0 Bft)
16.10.2018 06:02 6,8 °C 79 % 1016,1 hPa 0,0 mm 0,0 km/h (0 Bft) S 179 ° 0 min 0,000 mm 0,0 UV-I 0 W/m² 3,4 °C 6,8 °C 0,0 km/h (0 Bft)
16.10.2018 06:03 6,8 °C 79 % 1016,1 hPa 0,0 mm 0,0 km/h (0 Bft) S 179 ° 0 min 0,000 mm 0,0 UV-I 0 W/m² 3,4 °C 6,8 °C 0,0 km/h (0 Bft)
16.10.2018 06:04 6,8 °C 79 % 1016,1 hPa 0,0 mm 0,0 km/h (0 Bft) S 179 ° 0 min 0,000 mm 0,0 UV-I 0 W/m² 3,4 °C 6,8 °C 0,0 km/h (0 Bft)
16.10.2018 06:05 6,8 °C 79 % 1016,1 hPa 0,0 mm 0,0 km/h (0 Bft) S 179 ° 0 min 0,000 mm 0,0 UV-I 0 W/m² 3,4 °C 6,8 °C 0,0 km/h (0 Bft)
16.10.2018 06:06 6,8 °C 78 % 1016,1 hPa 0,0 mm 0,0 km/h (0 Bft) S 179 ° 0 min 0,000 mm 0,0 UV-I 0 W/m² 3,2 °C 6,8 °C 0,0 km/h (0 Bft)
16.10.2018 06:07 6,7 °C 78 % 1016,1 hPa 0,0 mm 0,0 km/h (0 Bft) S 179 ° 0 min 0,000 mm 0,0 UV-I 0 W/m² 3,1 °C 6,7 °C 0,0 km/h (0 Bft)
16.10.2018 06:08 6,6 °C 78 % 1016,1 hPa 0,0 mm 0,0 km/h (0 Bft) S 179 ° 0 min 0,000 mm 0,0 UV-I 0 W/m² 3,0 °C 6,6 °C 0,0 km/h (0 Bft)
16.10.2018 06:09 6,5 °C 79 % 1016,1 hPa 0,0 mm 0,0 km/h (0 Bft) S 179 ° 0 min 0,000 mm 0,0 UV-I 0 W/m² 3,1 °C 6,5 °C 0,0 km/h (0 Bft)
16.10.2018 06:10 6,5 °C 79 % 1016,2 hPa 0,0 mm 0,0 km/h (0 Bft) S 179 ° 0 min 0,000 mm 0,0 UV-I 0 W/m² 3,1 °C 6,5 °C 0,0 km/h (0 Bft)
16.10.2018 06:11 6,5 °C 80 % 1016,2 hPa 0,0 mm 0,0 km/h (0 Bft) S 179 ° 0 min 0,000 mm 0,0 UV-I 0 W/m² 3,3 °C 6,5 °C 0,0 km/h (0 Bft)
16.10.2018 06:12 6,5 °C 79 % 1016,3 hPa 0,0 mm 0,0 km/h (0 Bft) S 179 ° 0 min 0,000 mm 0,0 UV-I 0 W/m² 3,1 °C 6,5 °C 0,0 km/h (0 Bft)
16.10.2018 06:13 6,5 °C 79 % 1016,2 hPa 0,0 mm 0,1 km/h (0 Bft) S 179 ° 0 min 0,000 mm 0,0 UV-I 0 W/m² 3,1 °C 6,5 °C 1,6 km/h (1 Bft)
16.10.2018 06:14 6,5 °C 79 % 1016,2 hPa 0,0 mm 0,0 km/h (0 Bft) S 179 ° 0 min 0,000 mm 0,0 UV-I 0 W/m² 3,1 °C 6,5 °C 0,0 km/h (0 Bft)
16.10.2018 06:15 6,5 °C 79 % 1016,2 hPa 0,0 mm 0,0 km/h (0 Bft) S 179 ° 0 min 0,000 mm 0,0 UV-I 0 W/m² 3,1 °C 6,5 °C 0,0 km/h (0 Bft)
16.10.2018 06:16 6,5 °C 79 % 1016,2 hPa 0,0 mm 0,0 km/h (0 Bft) S 179 ° 0 min 0,000 mm 0,0 UV-I 0 W/m² 3,1 °C 6,5 °C 0,0 km/h (0 Bft)
16.10.2018 06:17 6,4 °C 79 % 1016,2 hPa 0,0 mm 0,0 km/h (0 Bft) S 179 ° 0 min 0,000 mm 0,0 UV-I 0 W/m² 3,0 °C 6,4 °C 0,0 km/h (0 Bft)
16.10.2018 06:18 6,4 °C 79 % 1016,2 hPa 0,0 mm 0,0 km/h (0 Bft) S 179 ° 0 min 0,000 mm 0,0 UV-I 0 W/m² 3,0 °C 6,4 °C 0,0 km/h (0 Bft)
16.10.2018 06:19 6,4 °C 80 % 1016,2 hPa 0,0 mm 0,0 km/h (0 Bft) S 179 ° 0 min 0,000 mm 0,0 UV-I 0 W/m² 3,2 °C 6,4 °C 0,0 km/h (0 Bft)
16.10.2018 06:20 6,4 °C 80 % 1016,2 hPa 0,0 mm 0,0 km/h (0 Bft) S 179 ° 0 min 0,000 mm 0,0 UV-I 0 W/m² 3,2 °C 6,4 °C 0,0 km/h (0 Bft)
16.10.2018 06:21 6,3 °C 80 % 1016,3 hPa 0,0 mm 0,0 km/h (0 Bft) S 179 ° 0 min 0,000 mm 0,0 UV-I 0 W/m² 3,1 °C 6,3 °C 0,0 km/h (0 Bft)
16.10.2018 06:22 6,3 °C 80 % 1016,3 hPa 0,0 mm 0,0 km/h (0 Bft) S 179 ° 0 min 0,000 mm 0,0 UV-I 0 W/m² 3,1 °C 6,3 °C 0,0 km/h (0 Bft)
16.10.2018 06:23 6,2 °C 80 % 1016,3 hPa 0,0 mm 0,0 km/h (0 Bft) S 179 ° 0 min 0,000 mm 0,0 UV-I 0 W/m² 3,0 °C 6,2 °C 0,0 km/h (0 Bft)
16.10.2018 06:24 6,2 °C 80 % 1016,4 hPa 0,0 mm 0,0 km/h (0 Bft) S 179 ° 0 min 0,000 mm 0,0 UV-I 0 W/m² 3,0 °C 6,2 °C 0,0 km/h (0 Bft)
16.10.2018 06:25 6,3 °C 81 % 1016,3 hPa 0,0 mm 0,0 km/h (0 Bft) S 179 ° 0 min 0,000 mm 0,0 UV-I 0 W/m² 3,3 °C 6,3 °C 0,0 km/h (0 Bft)
16.10.2018 06:26 6,3 °C 80 % 1016,3 hPa 0,0 mm 0,0 km/h (0 Bft) S 179 ° 0 min 0,000 mm 0,0 UV-I 0 W/m² 3,1 °C 6,3 °C 0,0 km/h (0 Bft)
16.10.2018 06:27 6,4 °C 80 % 1016,3 hPa 0,0 mm 0,0 km/h (0 Bft) S 179 ° 0 min 0,000 mm 0,0 UV-I 0 W/m² 3,2 °C 6,4 °C 0,0 km/h (0 Bft)
16.10.2018 06:28 6,4 °C 80 % 1016,2 hPa 0,0 mm 0,0 km/h (0 Bft) S 179 ° 0 min 0,000 mm 0,0 UV-I 0 W/m² 3,2 °C 6,4 °C 0,0 km/h (0 Bft)
16.10.2018 06:29 6,4 °C 80 % 1016,3 hPa 0,0 mm 0,0 km/h (0 Bft) S 179 ° 0 min 0,000 mm 0,0 UV-I 0 W/m² 3,2 °C 6,4 °C 0,0 km/h (0 Bft)
16.10.2018 06:30 6,3 °C 80 % 1016,3 hPa 0,0 mm 0,0 km/h (0 Bft) S 179 ° 0 min 0,000 mm 0,0 UV-I 0 W/m² 3,1 °C 6,3 °C 0,0 km/h (0 Bft)
16.10.2018 06:31 6,2 °C 80 % 1016,2 hPa 0,0 mm 0,0 km/h (0 Bft) S 179 ° 0 min 0,000 mm 0,0 UV-I 0 W/m² 3,0 °C 6,2 °C 0,0 km/h (0 Bft)
16.10.2018 06:32 6,1 °C 80 % 1016,3 hPa 0,0 mm 0,0 km/h (0 Bft) S 179 ° 0 min 0,000 mm 0,0 UV-I 0 W/m² 2,9 °C 6,1 °C 0,0 km/h (0 Bft)
16.10.2018 06:33 6,0 °C 81 % 1016,4 hPa 0,0 mm 0,0 km/h (0 Bft) S 179 ° 0 min 0,000 mm 0,0 UV-I 0 W/m² 3,0 °C 6,0 °C 0,0 km/h (0 Bft)
16.10.2018 06:34 6,0 °C 81 % 1016,3 hPa 0,0 mm 0,0 km/h (0 Bft) S 179 ° 0 min 0,000 mm 0,0 UV-I 0 W/m² 3,0 °C 6,0 °C 0,0 km/h (0 Bft)
16.10.2018 06:35 6,0 °C 81 % 1016,3 hPa 0,0 mm 0,0 km/h (0 Bft) S 179 ° 0 min 0,000 mm 0,0 UV-I 0 W/m² 3,0 °C 6,0 °C 0,0 km/h (0 Bft)
16.10.2018 06:36 5,9 °C 81 % 1016,3 hPa 0,0 mm 0,0 km/h (0 Bft) S 179 ° 0 min 0,000 mm 0,0 UV-I 0 W/m² 2,9 °C 5,9 °C 0,0 km/h (0 Bft)
16.10.2018 06:37 5,9 °C 81 % 1016,3 hPa 0,0 mm 0,0 km/h (0 Bft) S 179 ° 0 min 0,000 mm 0,0 UV-I 0 W/m² 2,9 °C 5,9 °C 0,0 km/h (0 Bft)
16.10.2018 06:38 5,9 °C 82 % 1016,3 hPa 0,0 mm 0,0 km/h (0 Bft) S 179 ° 0 min 0,000 mm 0,0 UV-I 0 W/m² 3,1 °C 5,9 °C 0,0 km/h (0 Bft)
16.10.2018 06:39 5,9 °C 82 % 1016,4 hPa 0,0 mm 0,0 km/h (0 Bft) S 179 ° 0 min 0,000 mm 0,0 UV-I 0 W/m² 3,1 °C 5,9 °C 0,0 km/h (0 Bft)
16.10.2018 06:40 5,9 °C 82 % 1016,4 hPa 0,0 mm 0,0 km/h (0 Bft) S 179 ° 0 min 0,000 mm 0,0 UV-I 0 W/m² 3,1 °C 5,9 °C 0,0 km/h (0 Bft)
16.10.2018 06:41 5,9 °C 82 % 1016,4 hPa 0,0 mm 0,0 km/h (0 Bft) S 179 ° 0 min 0,000 mm 0,0 UV-I 0 W/m² 3,1 °C 5,9 °C 0,0 km/h (0 Bft)
16.10.2018 06:42 5,8 °C 82 % 1016,4 hPa 0,0 mm 0,0 km/h (0 Bft) S 179 ° 0 min 0,000 mm 0,0 UV-I 0 W/m² 3,0 °C 5,8 °C 0,0 km/h (0 Bft)
16.10.2018 06:43 5,8 °C 82 % 1016,4 hPa 0,0 mm 0,0 km/h (0 Bft) S 179 ° 0 min 0,000 mm 0,0 UV-I 0 W/m² 3,0 °C 5,8 °C 0,0 km/h (0 Bft)
16.10.2018 06:44 5,8 °C 83 % 1016,4 hPa 0,0 mm 0,0 km/h (0 Bft) S 179 ° 0 min 0,000 mm 0,0 UV-I 0 W/m² 3,1 °C 5,8 °C 0,0 km/h (0 Bft)
16.10.2018 06:45 5,8 °C 83 % 1016,4 hPa 0,0 mm 0,0 km/h (0 Bft) S 179 ° 0 min 0,000 mm 0,0 UV-I 0 W/m² 3,1 °C 5,8 °C 0,0 km/h (0 Bft)
16.10.2018 06:46 5,8 °C 83 % 1016,4 hPa 0,0 mm 0,0 km/h (0 Bft) S 179 ° 0 min 0,000 mm 0,0 UV-I 0 W/m² 3,1 °C 5,8 °C 0,0 km/h (0 Bft)
16.10.2018 06:47 5,9 °C 83 % 1016,4 hPa 0,0 mm 0,0 km/h (0 Bft) S 179 ° 0 min 0,000 mm 0,0 UV-I 0 W/m² 3,2 °C 5,9 °C 0,0 km/h (0 Bft)
16.10.2018 06:48 5,9 °C 83 % 1016,4 hPa 0,0 mm 0,0 km/h (0 Bft) S 179 ° 0 min 0,000 mm 0,0 UV-I 0 W/m² 3,2 °C 5,9 °C 0,0 km/h (0 Bft)
16.10.2018 06:49 5,9 °C 83 % 1016,4 hPa 0,0 mm 0,0 km/h (0 Bft) S 179 ° 0 min 0,000 mm 0,0 UV-I 0 W/m² 3,2 °C 5,9 °C 0,0 km/h (0 Bft)
16.10.2018 06:50 5,9 °C 83 % 1016,4 hPa 0,0 mm 0,0 km/h (0 Bft) S 179 ° 0 min 0,000 mm 0,0 UV-I 0 W/m² 3,2 °C 5,9 °C 0,0 km/h (0 Bft)
16.10.2018 06:51 5,9 °C 82 % 1016,4 hPa 0,0 mm 0,0 km/h (0 Bft) S 179 ° 0 min 0,000 mm 0,0 UV-I 0 W/m² 3,1 °C 5,9 °C 0,0 km/h (0 Bft)
16.10.2018 06:52 5,9 °C 82 % 1016,4 hPa 0,0 mm 0,0 km/h (0 Bft) S 179 ° 0 min 0,000 mm 0,0 UV-I 0 W/m² 3,1 °C 5,9 °C 0,0 km/h (0 Bft)
16.10.2018 06:53 5,9 °C 82 % 1016,4 hPa 0,0 mm 0,0 km/h (0 Bft) S 179 ° 0 min 0,000 mm 0,0 UV-I 0 W/m² 3,1 °C 5,9 °C 0,0 km/h (0 Bft)
16.10.2018 06:54 5,9 °C 82 % 1016,4 hPa 0,0 mm 0,0 km/h (0 Bft) S 179 ° 0 min 0,000 mm 0,0 UV-I 0 W/m² 3,1 °C 5,9 °C 0,0 km/h (0 Bft)
16.10.2018 06:55 5,9 °C 82 % 1016,4 hPa 0,0 mm 0,0 km/h (0 Bft) S 179 ° 0 min 0,000 mm 0,0 UV-I 0 W/m² 3,1 °C 5,9 °C 0,0 km/h (0 Bft)
16.10.2018 06:56 6,1 °C 82 % 1016,4 hPa 0,0 mm 0,0 km/h (0 Bft) S 179 ° 0 min 0,000 mm 0,0 UV-I 0 W/m² 3,3 °C 6,1 °C 0,0 km/h (0 Bft)
16.10.2018 06:57 6,1 °C 81 % 1016,4 hPa 0,0 mm 0,0 km/h (0 Bft) S 179 ° 0 min 0,000 mm 0,0 UV-I 0 W/m² 3,1 °C 6,1 °C 0,0 km/h (0 Bft)
16.10.2018 06:58 6,0 °C 81 % 1016,4 hPa 0,0 mm 0,0 km/h (0 Bft) S 179 ° 0 min 0,000 mm 0,0 UV-I 0 W/m² 3,0 °C 6,0 °C 0,0 km/h (0 Bft)
16.10.2018 06:59 5,9 °C 81 % 1016,4 hPa 0,0 mm 0,0 km/h (0 Bft) S 179 ° 0 min 0,000 mm 0,0 UV-I 0 W/m² 2,9 °C 5,9 °C 0,0 km/h (0 Bft)
16.10.2018 07:00 5,9 °C 81 % 1016,4 hPa 0,0 mm 0,0 km/h (0 Bft) S 179 ° 0 min 0,000 mm 0,0 UV-I 0 W/m² 2,9 °C 5,9 °C 0,0 km/h (0 Bft)
16.10.2018 07:01 5,9 °C 82 % 1016,4 hPa 0,0 mm 0,0 km/h (0 Bft) S 179 ° 0 min 0,000 mm 0,0 UV-I 0 W/m² 3,1 °C 5,9 °C 0,0 km/h (0 Bft)
16.10.2018 07:02 5,9 °C 82 % 1016,4 hPa 0,0 mm 0,0 km/h (0 Bft) S 179 ° 0 min 0,000 mm 0,0 UV-I 0 W/m² 3,1 °C 5,9 °C 0,0 km/h (0 Bft)
16.10.2018 07:03 5,9 °C 82 % 1016,4 hPa 0,0 mm 0,0 km/h (0 Bft) S 179 ° 0 min 0,000 mm 0,0 UV-I 0 W/m² 3,1 °C 5,9 °C 0,0 km/h (0 Bft)
16.10.2018 07:04 5,9 °C 82 % 1016,4 hPa 0,0 mm 0,0 km/h (0 Bft) S 179 ° 0 min 0,000 mm 0,0 UV-I 0 W/m² 3,1 °C 5,9 °C 0,0 km/h (0 Bft)
16.10.2018 07:05 5,9 °C 82 % 1016,4 hPa 0,0 mm 0,0 km/h (0 Bft) S 179 ° 0 min 0,000 mm 0,0 UV-I 0 W/m² 3,1 °C 5,9 °C 0,0 km/h (0 Bft)
16.10.2018 07:06 5,8 °C 82 % 1016,5 hPa 0,0 mm 0,0 km/h (0 Bft) S 179 ° 0 min 0,000 mm 0,0 UV-I 0 W/m² 3,0 °C 5,8 °C 0,0 km/h (0 Bft)
16.10.2018 07:07 5,7 °C 82 % 1016,5 hPa 0,0 mm 0,0 km/h (0 Bft) S 179 ° 0 min 0,000 mm 0,0 UV-I 0 W/m² 2,9 °C 5,7 °C 0,0 km/h (0 Bft)
16.10.2018 07:08 5,6 °C 82 % 1016,5 hPa 0,0 mm 0,0 km/h (0 Bft) S 179 ° 0 min 0,000 mm 0,0 UV-I 0 W/m² 2,8 °C 5,6 °C 0,0 km/h (0 Bft)
16.10.2018 07:09 5,5 °C 82 % 1016,5 hPa 0,0 mm 0,0 km/h (0 Bft) S 179 ° 0 min 0,000 mm 0,0 UV-I 0 W/m² 2,7 °C 5,5 °C 0,0 km/h (0 Bft)
16.10.2018 07:10 5,4 °C 83 % 1016,5 hPa 0,0 mm 0,0 km/h (0 Bft) S 179 ° 0 min 0,000 mm 0,0 UV-I 0 W/m² 2,7 °C 5,4 °C 0,0 km/h (0 Bft)
16.10.2018 07:11 5,4 °C 83 % 1016,5 hPa 0,0 mm 0,0 km/h (0 Bft) S 179 ° 0 min 0,000 mm 0,0 UV-I 0 W/m² 2,7 °C 5,4 °C 0,0 km/h (0 Bft)
16.10.2018 07:12 5,4 °C 83 % 1016,5 hPa 0,0 mm 0,0 km/h (0 Bft) S 179 ° 0 min 0,000 mm 0,0 UV-I 0 W/m² 2,7 °C 5,4 °C 0,0 km/h (0 Bft)
16.10.2018 07:13 5,3 °C 84 % 1016,6 hPa 0,0 mm 0,0 km/h (0 Bft) S 179 ° 0 min 0,000 mm 0,0 UV-I 0 W/m² 2,8 °C 5,3 °C 0,0 km/h (0 Bft)
16.10.2018 07:14 5,4 °C 84 % 1016,6 hPa 0,0 mm 0,0 km/h (0 Bft) S 179 ° 0 min 0,000 mm 0,0 UV-I 0 W/m² 2,9 °C 5,4 °C 0,0 km/h (0 Bft)
16.10.2018 07:15 5,4 °C 84 % 1016,6 hPa 0,0 mm 0,0 km/h (0 Bft) S 179 ° 0 min 0,000 mm 0,0 UV-I 0 W/m² 2,9 °C 5,4 °C 0,0 km/h (0 Bft)
16.10.2018 07:16 5,4 °C 84 % 1016,6 hPa 0,0 mm 0,0 km/h (0 Bft) S 179 ° 0 min 0,000 mm 0,0 UV-I 0 W/m² 2,9 °C 5,4 °C 0,0 km/h (0 Bft)
16.10.2018 07:17 5,4 °C 84 % 1016,6 hPa 0,0 mm 0,0 km/h (0 Bft) S 179 ° 0 min 0,000 mm 0,0 UV-I 0 W/m² 2,9 °C 5,4 °C 0,0 km/h (0 Bft)
16.10.2018 07:18 5,4 °C 84 % 1016,6 hPa 0,0 mm 0,0 km/h (0 Bft) S 179 ° 0 min 0,000 mm 0,0 UV-I 0 W/m² 2,9 °C 5,4 °C 0,0 km/h (0 Bft)
16.10.2018 07:19 5,4 °C 84 % 1016,6 hPa 0,0 mm 0,0 km/h (0 Bft) S 179 ° 0 min 0,000 mm 0,0 UV-I 0 W/m² 2,9 °C 5,4 °C 0,0 km/h (0 Bft)
16.10.2018 07:20 5,4 °C 84 % 1016,6 hPa 0,0 mm 0,0 km/h (0 Bft) S 179 ° 0 min 0,000 mm 0,0 UV-I 0 W/m² 2,9 °C 5,4 °C 0,0 km/h (0 Bft)
16.10.2018 07:21 5,4 °C 84 % 1016,6 hPa 0,0 mm 0,0 km/h (0 Bft) S 179 ° 0 min 0,000 mm 0,0 UV-I 0 W/m² 2,9 °C 5,4 °C 0,0 km/h (0 Bft)
16.10.2018 07:22 5,4 °C 84 % 1016,6 hPa 0,0 mm 0,0 km/h (0 Bft) S 179 ° 0 min 0,000 mm 0,0 UV-I 0 W/m² 2,9 °C 5,4 °C 0,0 km/h (0 Bft)
16.10.2018 07:23 5,4 °C 84 % 1016,6 hPa 0,0 mm 0,0 km/h (0 Bft) S 179 ° 0 min 0,000 mm 0,0 UV-I 0 W/m² 2,9 °C 5,4 °C 0,0 km/h (0 Bft)
16.10.2018 07:24 5,4 °C 84 % 1016,6 hPa 0,0 mm 0,0 km/h (0 Bft) S 179 ° 0 min 0,000 mm 0,0 UV-I 0 W/m² 2,9 °C 5,4 °C 0,0 km/h (0 Bft)
16.10.2018 07:25 5,4 °C 84 % 1016,6 hPa 0,0 mm 0,0 km/h (0 Bft) S 179 ° 0 min 0,000 mm 0,0 UV-I 0 W/m² 2,9 °C 5,4 °C 0,0 km/h (0 Bft)
16.10.2018 07:26 5,3 °C 84 % 1016,6 hPa 0,0 mm 0,0 km/h (0 Bft) S 179 ° 0 min 0,000 mm 0,0 UV-I 0 W/m² 2,8 °C 5,3 °C 0,0 km/h (0 Bft)
16.10.2018 07:27 5,3 °C 84 % 1016,6 hPa 0,0 mm 0,0 km/h (0 Bft) S 179 ° 0 min 0,000 mm 0,0 UV-I 0 W/m² 2,8 °C 5,3 °C 0,0 km/h (0 Bft)
16.10.2018 07:28 5,3 °C 84 % 1016,6 hPa 0,0 mm 0,0 km/h (0 Bft) S 179 ° 0 min 0,000 mm 0,0 UV-I 0 W/m² 2,8 °C 5,3 °C 0,0 km/h (0 Bft)
16.10.2018 07:29 5,3 °C 84 % 1016,6 hPa 0,0 mm 0,0 km/h (0 Bft) S 179 ° 0 min 0,000 mm 0,0 UV-I 0 W/m² 2,8 °C 5,3 °C 0,0 km/h (0 Bft)
16.10.2018 07:30 5,3 °C 84 % 1016,6 hPa 0,0 mm 0,0 km/h (0 Bft) S 179 ° 0 min 0,000 mm 0,0 UV-I 0 W/m² 2,8 °C 5,3 °C 0,0 km/h (0 Bft)
16.10.2018 07:31 5,3 °C 85 % 1016,7 hPa 0,0 mm 0,0 km/h (0 Bft) S 179 ° 0 min 0,000 mm 0,0 UV-I 0 W/m² 3,0 °C 5,3 °C 0,0 km/h (0 Bft)
16.10.2018 07:32 5,3 °C 85 % 1016,7 hPa 0,0 mm 0,0 km/h (0 Bft) S 179 ° 0 min 0,000 mm 0,0 UV-I 0 W/m² 3,0 °C 5,3 °C 0,0 km/h (0 Bft)
16.10.2018 07:33 5,3 °C 85 % 1016,7 hPa 0,0 mm 0,0 km/h (0 Bft) S 179 ° 0 min 0,000 mm 0,0 UV-I 0 W/m² 3,0 °C 5,3 °C 0,0 km/h (0 Bft)
16.10.2018 07:34 5,3 °C 85 % 1016,7 hPa 0,0 mm 0,0 km/h (0 Bft) S 179 ° 0 min 0,000 mm 0,0 UV-I 0 W/m² 3,0 °C 5,3 °C 0,0 km/h (0 Bft)
16.10.2018 07:35 5,3 °C 85 % 1016,8 hPa 0,0 mm 0,0 km/h (0 Bft) S 179 ° 0 min 0,000 mm 0,0 UV-I 0 W/m² 3,0 °C 5,3 °C 0,0 km/h (0 Bft)
16.10.2018 07:36 5,3 °C 85 % 1016,7 hPa 0,0 mm 0,0 km/h (0 Bft) S 179 ° 0 min 0,000 mm 0,0 UV-I 0 W/m² 3,0 °C 5,3 °C 0,0 km/h (0 Bft)
16.10.2018 07:37 5,3 °C 85 % 1016,7 hPa 0,0 mm 0,0 km/h (0 Bft) S 179 ° 0 min 0,000 mm 0,0 UV-I 0 W/m² 3,0 °C 5,3 °C 0,0 km/h (0 Bft)
16.10.2018 07:38 5,3 °C 85 % 1016,7 hPa 0,0 mm 0,0 km/h (0 Bft) S 179 ° 0 min 0,000 mm 0,0 UV-I 0 W/m² 3,0 °C 5,3 °C 0,0 km/h (0 Bft)
16.10.2018 07:39 5,3 °C 85 % 1016,7 hPa 0,0 mm 0,0 km/h (0 Bft) S 179 ° 0 min 0,000 mm 0,0 UV-I 5 W/m² 3,0 °C 5,3 °C 0,0 km/h (0 Bft)
16.10.2018 07:40 5,3 °C 84 % 1016,7 hPa 0,0 mm 0,0 km/h (0 Bft) S 179 ° 0 min 0,000 mm 0,0 UV-I 5 W/m² 2,8 °C 5,3 °C 0,0 km/h (0 Bft)
16.10.2018 07:41 5,3 °C 84 % 1016,8 hPa 0,0 mm 0,0 km/h (0 Bft) S 179 ° 0 min 0,000 mm 0,0 UV-I 5 W/m² 2,8 °C 5,3 °C 0,0 km/h (0 Bft)
16.10.2018 07:42 5,3 °C 84 % 1016,8 hPa 0,0 mm 0,0 km/h (0 Bft) S 179 ° 0 min 0,000 mm 0,0 UV-I 5 W/m² 2,8 °C 5,3 °C 0,0 km/h (0 Bft)
16.10.2018 07:43 5,4 °C 84 % 1016,8 hPa 0,0 mm 0,0 km/h (0 Bft) S 179 ° 0 min 0,000 mm 0,0 UV-I 7 W/m² 2,9 °C 5,4 °C 0,0 km/h (0 Bft)
16.10.2018 07:44 5,4 °C 85 % 1016,8 hPa 0,0 mm 0,0 km/h (0 Bft) S 179 ° 0 min 0,000 mm 0,0 UV-I 7 W/m² 3,1 °C 5,4 °C 0,0 km/h (0 Bft)
16.10.2018 07:45 5,5 °C 85 % 1016,7 hPa 0,0 mm 0,0 km/h (0 Bft) S 179 ° 0 min 0,000 mm 0,0 UV-I 7 W/m² 3,2 °C 5,5 °C 0,0 km/h (0 Bft)
16.10.2018 07:46 5,6 °C 85 % 1016,9 hPa 0,0 mm 0,0 km/h (0 Bft) S 179 ° 0 min 0,000 mm 0,0 UV-I 7 W/m² 3,3 °C 5,6 °C 0,0 km/h (0 Bft)
16.10.2018 07:47 5,6 °C 84 % 1016,9 hPa 0,0 mm 0,0 km/h (0 Bft) S 179 ° 0 min 0,000 mm 0,0 UV-I 9 W/m² 3,1 °C 5,6 °C 0,0 km/h (0 Bft)
16.10.2018 07:48 5,6 °C 84 % 1016,9 hPa 0,0 mm 0,0 km/h (0 Bft) S 179 ° 0 min 0,000 mm 0,0 UV-I 9 W/m² 3,1 °C 5,6 °C 0,0 km/h (0 Bft)
16.10.2018 07:49 5,5 °C 84 % 1016,9 hPa 0,0 mm 0,0 km/h (0 Bft) S 179 ° 0 min 0,000 mm 0,0 UV-I 9 W/m² 3,0 °C 5,5 °C 0,0 km/h (0 Bft)
16.10.2018 07:50 5,5 °C 84 % 1016,8 hPa 0,0 mm 0,0 km/h (0 Bft) S 179 ° 0 min 0,000 mm 0,0 UV-I 9 W/m² 3,0 °C 5,5 °C 0,0 km/h (0 Bft)
16.10.2018 07:51 5,6 °C 84 % 1016,9 hPa 0,0 mm 0,0 km/h (0 Bft) S 179 ° 0 min 0,000 mm 0,0 UV-I 11 W/m² 3,1 °C 5,6 °C 0,0 km/h (0 Bft)
16.10.2018 07:52 5,6 °C 84 % 1016,9 hPa 0,0 mm 0,0 km/h (0 Bft) S 179 ° 0 min 0,000 mm 0,0 UV-I 11 W/m² 3,1 °C 5,6 °C 0,0 km/h (0 Bft)
16.10.2018 07:53 5,7 °C 83 % 1016,9 hPa 0,0 mm 0,0 km/h (0 Bft) S 179 ° 0 min 0,000 mm 0,0 UV-I 11 W/m² 3,0 °C 5,7 °C 0,0 km/h (0 Bft)
16.10.2018 07:54 5,8 °C 83 % 1016,9 hPa 0,0 mm 0,0 km/h (0 Bft) S 179 ° 0 min 0,000 mm 0,0 UV-I 12 W/m² 3,1 °C 5,8 °C 0,0 km/h (0 Bft)
16.10.2018 07:55 5,9 °C 83 % 1016,9 hPa 0,0 mm 0,0 km/h (0 Bft) S 179 ° 0 min 0,000 mm 0,0 UV-I 12 W/m² 3,2 °C 5,9 °C 0,0 km/h (0 Bft)
16.10.2018 07:56 6,1 °C 82 % 1017,0 hPa 0,0 mm 0,0 km/h (0 Bft) S 179 ° 0 min 0,000 mm 0,0 UV-I 12 W/m² 3,3 °C 6,1 °C 0,0 km/h (0 Bft)
16.10.2018 07:57 6,1 °C 82 % 1017,0 hPa 0,0 mm 0,0 km/h (0 Bft) S 179 ° 0 min 0,000 mm 0,0 UV-I 12 W/m² 3,3 °C 6,1 °C 0,0 km/h (0 Bft)
16.10.2018 07:58 6,2 °C 82 % 1017,0 hPa 0,0 mm 0,0 km/h (0 Bft) S 179 ° 0 min 0,000 mm 0,0 UV-I 14 W/m² 3,4 °C 6,2 °C 0,0 km/h (0 Bft)
16.10.2018 07:59 6,2 °C 82 % 1017,0 hPa 0,0 mm 0,0 km/h (0 Bft) S 179 ° 0 min 0,000 mm 0,0 UV-I 14 W/m² 3,4 °C 6,2 °C 0,0 km/h (0 Bft)
16.10.2018 08:00 6,2 °C 82 % 1017,0 hPa 0,0 mm 0,0 km/h (0 Bft) S 179 ° 0 min 0,000 mm 0,0 UV-I 14 W/m² 3,4 °C 6,2 °C 0,0 km/h (0 Bft)
16.10.2018 08:01 6,2 °C 82 % 1017,0 hPa 0,0 mm 0,0 km/h (0 Bft) S 179 ° 0 min 0,000 mm 0,0 UV-I 14 W/m² 3,4 °C 6,2 °C 0,0 km/h (0 Bft)
16.10.2018 08:02 6,2 °C 82 % 1017,1 hPa 0,0 mm 0,0 km/h (0 Bft) S 179 ° 0 min 0,000 mm 0,0 UV-I 16 W/m² 3,4 °C 6,2 °C 0,0 km/h (0 Bft)
16.10.2018 08:03 6,1 °C 82 % 1017,1 hPa 0,0 mm 0,0 km/h (0 Bft) S 179 ° 0 min 0,000 mm 0,0 UV-I 16 W/m² 3,3 °C 6,1 °C 0,0 km/h (0 Bft)
16.10.2018 08:04 6,1 °C 83 % 1017,1 hPa 0,0 mm 0,0 km/h (0 Bft) S 179 ° 0 min 0,000 mm 0,0 UV-I 16 W/m² 3,4 °C 6,1 °C 0,0 km/h (0 Bft)
16.10.2018 08:05 6,1 °C 83 % 1017,1 hPa 0,0 mm 0,0 km/h (0 Bft) S 179 ° 0 min 0,000 mm 0,0 UV-I 18 W/m² 3,4 °C 6,1 °C 0,0 km/h (0 Bft)
16.10.2018 08:06 6,2 °C 84 % 1017,1 hPa 0,0 mm 0,0 km/h (0 Bft) S 179 ° 0 min 0,000 mm 0,0 UV-I 18 W/m² 3,7 °C 6,2 °C 0,0 km/h (0 Bft)
16.10.2018 08:07 6,2 °C 84 % 1017,1 hPa 0,0 mm 0,0 km/h (0 Bft) S 179 ° 0 min 0,000 mm 0,0 UV-I 18 W/m² 3,7 °C 6,2 °C 0,0 km/h (0 Bft)
16.10.2018 08:08 6,2 °C 84 % 1017,1 hPa 0,0 mm 0,0 km/h (0 Bft) S 179 ° 0 min 0,000 mm 0,0 UV-I 18 W/m² 3,7 °C 6,2 °C 0,0 km/h (0 Bft)
16.10.2018 08:09 6,3 °C 84 % 1017,1 hPa 0,0 mm 0,0 km/h (0 Bft) S 179 ° 0 min 0,000 mm 0,0 UV-I 19 W/m² 3,8 °C 6,3 °C 0,0 km/h (0 Bft)
16.10.2018 08:10 6,3 °C 84 % 1017,1 hPa 0,0 mm 0,0 km/h (0 Bft) S 179 ° 0 min 0,000 mm 0,0 UV-I 19 W/m² 3,8 °C 6,3 °C 0,0 km/h (0 Bft)
16.10.2018 08:11 6,3 °C 84 % 1017,1 hPa 0,0 mm 0,0 km/h (0 Bft) S 179 ° 0 min 0,000 mm 0,0 UV-I 19 W/m² 3,8 °C 6,3 °C 0,0 km/h (0 Bft)
16.10.2018 08:12 6,2 °C 84 % 1017,2 hPa 0,0 mm 0,0 km/h (0 Bft) S 179 ° 0 min 0,000 mm 0,0 UV-I 19 W/m² 3,7 °C 6,2 °C 0,0 km/h (0 Bft)
16.10.2018 08:13 6,2 °C 84 % 1017,2 hPa 0,0 mm 0,0 km/h (0 Bft) S 179 ° 0 min 0,000 mm 0,0 UV-I 19 W/m² 3,7 °C 6,2 °C 0,0 km/h (0 Bft)
16.10.2018 08:14 6,1 °C 84 % 1017,2 hPa 0,0 mm 0,0 km/h (0 Bft) S 179 ° 0 min 0,000 mm 0,0 UV-I 21 W/m² 3,6 °C 6,1 °C 0,0 km/h (0 Bft)
16.10.2018 08:15 6,1 °C 84 % 1017,2 hPa 0,0 mm 0,0 km/h (0 Bft) S 179 ° 0 min 0,000 mm 0,0 UV-I 21 W/m² 3,6 °C 6,1 °C 0,0 km/h (0 Bft)
16.10.2018 08:16 6,0 °C 84 % 1017,2 hPa 0,0 mm 0,0 km/h (0 Bft) S 179 ° 0 min 0,000 mm 0,0 UV-I 21 W/m² 3,5 °C 6,0 °C 0,0 km/h (0 Bft)
16.10.2018 08:17 6,1 °C 85 % 1017,2 hPa 0,0 mm 0,0 km/h (0 Bft) S 179 ° 0 min 0,000 mm 0,0 UV-I 21 W/m² 3,8 °C 6,1 °C 0,0 km/h (0 Bft)
16.10.2018 08:18 6,2 °C 85 % 1017,3 hPa 0,0 mm 0,0 km/h (0 Bft) S 179 ° 0 min 0,000 mm 0,0 UV-I 21 W/m² 3,9 °C 6,2 °C 0,0 km/h (0 Bft)
16.10.2018 08:19 6,4 °C 84 % 1017,3 hPa 0,0 mm 0,0 km/h (0 Bft) S 179 ° 0 min 0,000 mm 0,0 UV-I 21 W/m² 3,9 °C 6,4 °C 0,0 km/h (0 Bft)
16.10.2018 08:20 6,4 °C 83 % 1017,3 hPa 0,0 mm 0,0 km/h (0 Bft) S 179 ° 0 min 0,000 mm 0,0 UV-I 23 W/m² 3,7 °C 6,4 °C 0,0 km/h (0 Bft)
16.10.2018 08:21 6,4 °C 83 % 1017,3 hPa 0,0 mm 0,0 km/h (0 Bft) S 179 ° 0 min 0,000 mm 0,0 UV-I 23 W/m² 3,7 °C 6,4 °C 0,0 km/h (0 Bft)
16.10.2018 08:22 6,4 °C 83 % 1017,3 hPa 0,0 mm 0,0 km/h (0 Bft) S 179 ° 0 min 0,000 mm 0,0 UV-I 23 W/m² 3,7 °C 6,4 °C 0,0 km/h (0 Bft)
16.10.2018 08:23 6,3 °C 83 % 1017,3 hPa 0,0 mm 0,0 km/h (0 Bft) S 179 ° 0 min 0,000 mm 0,0 UV-I 23 W/m² 3,6 °C 6,3 °C 0,0 km/h (0 Bft)
16.10.2018 08:24 6,2 °C 83 % 1017,3 hPa 0,0 mm 0,0 km/h (0 Bft) S 179 ° 0 min 0,000 mm 0,0 UV-I 23 W/m² 3,5 °C 6,2 °C 0,0 km/h (0 Bft)
16.10.2018 08:25 6,2 °C 83 % 1017,3 hPa 0,0 mm 0,0 km/h (0 Bft) S 179 ° 0 min 0,000 mm 0,0 UV-I 23 W/m² 3,5 °C 6,2 °C 0,0 km/h (0 Bft)
16.10.2018 08:26 6,2 °C 84 % 1017,3 hPa 0,0 mm 0,0 km/h (0 Bft) S 179 ° 0 min 0,000 mm 0,0 UV-I 25 W/m² 3,7 °C 6,2 °C 0,0 km/h (0 Bft)
16.10.2018 08:27 6,2 °C 84 % 1017,3 hPa 0,0 mm 0,0 km/h (0 Bft) S 179 ° 0 min 0,000 mm 0,0 UV-I 25 W/m² 3,7 °C 6,2 °C 0,0 km/h (0 Bft)
16.10.2018 08:28 6,2 °C 84 % 1017,3 hPa 0,0 mm 0,0 km/h (0 Bft) S 179 ° 0 min 0,000 mm 0,0 UV-I 25 W/m² 3,7 °C 6,2 °C 0,0 km/h (0 Bft)
16.10.2018 08:29 6,2 °C 84 % 1017,3 hPa 0,0 mm 0,0 km/h (0 Bft) S 179 ° 0 min 0,000 mm 0,0 UV-I 25 W/m² 3,7 °C 6,2 °C 0,0 km/h (0 Bft)
16.10.2018 08:30 6,1 °C 84 % 1017,3 hPa 0,0 mm 0,0 km/h (0 Bft) S 179 ° 0 min 0,000 mm 0,0 UV-I 25 W/m² 3,6 °C 6,1 °C 0,0 km/h (0 Bft)
16.10.2018 08:31 6,2 °C 85 % 1017,3 hPa 0,0 mm 0,0 km/h (0 Bft) S 179 ° 0 min 0,000 mm 0,0 UV-I 25 W/m² 3,9 °C 6,2 °C 0,0 km/h (0 Bft)
16.10.2018 08:32 6,2 °C 85 % 1017,3 hPa 0,0 mm 0,0 km/h (0 Bft) S 179 ° 0 min 0,000 mm 0,0 UV-I 26 W/m² 3,9 °C 6,2 °C 0,0 km/h (0 Bft)
16.10.2018 08:33 6,2 °C 85 % 1017,3 hPa 0,0 mm 0,0 km/h (0 Bft) S 179 ° 0 min 0,000 mm 0,0 UV-I 26 W/m² 3,9 °C 6,2 °C 0,0 km/h (0 Bft)
16.10.2018 08:34 6,2 °C 85 % 1017,3 hPa 0,0 mm 0,0 km/h (0 Bft) S 179 ° 0 min 0,000 mm 0,0 UV-I 26 W/m² 3,9 °C 6,2 °C 0,0 km/h (0 Bft)
16.10.2018 08:35 6,2 °C 85 % 1017,3 hPa 0,0 mm 0,0 km/h (0 Bft) S 179 ° 0 min 0,000 mm 0,0 UV-I 26 W/m² 3,9 °C 6,2 °C 0,0 km/h (0 Bft)
16.10.2018 08:36 6,2 °C 85 % 1017,3 hPa 0,0 mm 0,0 km/h (0 Bft) S 179 ° 0 min 0,000 mm 0,0 UV-I 26 W/m² 3,9 °C 6,2 °C 0,0 km/h (0 Bft)
16.10.2018 08:37 6,2 °C 85 % 1017,3 hPa 0,0 mm 0,0 km/h (0 Bft) S 179 ° 0 min 0,000 mm 0,0 UV-I 26 W/m² 3,9 °C 6,2 °C 0,0 km/h (0 Bft)
16.10.2018 08:38 6,2 °C 85 % 1017,4 hPa 0,0 mm 0,0 km/h (0 Bft) S 179 ° 0 min 0,000 mm 0,0 UV-I 28 W/m² 3,9 °C 6,2 °C 0,0 km/h (0 Bft)
16.10.2018 08:39 6,2 °C 85 % 1017,3 hPa 0,0 mm 0,0 km/h (0 Bft) S 179 ° 0 min 0,000 mm 0,0 UV-I 28 W/m² 3,9 °C 6,2 °C 0,0 km/h (0 Bft)
16.10.2018 08:40 6,2 °C 85 % 1017,3 hPa 0,0 mm 0,0 km/h (0 Bft) S 179 ° 0 min 0,000 mm 0,0 UV-I 28 W/m² 3,9 °C 6,2 °C 0,0 km/h (0 Bft)
16.10.2018 08:41 6,3 °C 85 % 1017,3 hPa 0,0 mm 0,0 km/h (0 Bft) S 179 ° 0 min 0,000 mm 0,0 UV-I 28 W/m² 4,0 °C 6,3 °C 0,0 km/h (0 Bft)
16.10.2018 08:42 6,3 °C 85 % 1017,4 hPa 0,0 mm 0,0 km/h (0 Bft) S 179 ° 0 min 0,000 mm 0,0 UV-I 28 W/m² 4,0 °C 6,3 °C 0,0 km/h (0 Bft)
16.10.2018 08:43 6,3 °C 85 % 1017,4 hPa 0,0 mm 0,0 km/h (0 Bft) S 179 ° 0 min 0,000 mm 0,0 UV-I 28 W/m² 4,0 °C 6,3 °C 0,0 km/h (0 Bft)
16.10.2018 08:44 6,4 °C 85 % 1017,4 hPa 0,0 mm 0,0 km/h (0 Bft) S 179 ° 0 min 0,000 mm 0,0 UV-I 30 W/m² 4,1 °C 6,4 °C 0,0 km/h (0 Bft)
16.10.2018 08:45 6,4 °C 84 % 1017,4 hPa 0,0 mm 0,0 km/h (0 Bft) S 179 ° 0 min 0,000 mm 0,0 UV-I 30 W/m² 3,9 °C 6,4 °C 0,0 km/h (0 Bft)
16.10.2018 08:46 6,6 °C 84 % 1017,4 hPa 0,0 mm 0,0 km/h (0 Bft) S 179 ° 0 min 0,000 mm 0,0 UV-I 30 W/m² 4,1 °C 6,6 °C 0,0 km/h (0 Bft)
16.10.2018 08:47 6,7 °C 83 % 1017,4 hPa 0,0 mm 0,0 km/h (0 Bft) S 179 ° 0 min 0,000 mm 0,0 UV-I 30 W/m² 4,0 °C 6,7 °C 0,0 km/h (0 Bft)
16.10.2018 08:48 6,7 °C 83 % 1017,4 hPa 0,0 mm 0,0 km/h (0 Bft) S 179 ° 0 min 0,000 mm 0,0 UV-I 30 W/m² 4,0 °C 6,7 °C 0,0 km/h (0 Bft)
16.10.2018 08:49 6,7 °C 83 % 1017,5 hPa 0,0 mm 0,0 km/h (0 Bft) S 179 ° 0 min 0,000 mm 0,0 UV-I 30 W/m² 4,0 °C 6,7 °C 0,0 km/h (0 Bft)
16.10.2018 08:50 6,7 °C 83 % 1017,5 hPa 0,0 mm 0,0 km/h (0 Bft) S 179 ° 0 min 0,000 mm 0,0 UV-I 30 W/m² 4,0 °C 6,7 °C 0,0 km/h (0 Bft)
16.10.2018 08:51 6,6 °C 83 % 1017,5 hPa 0,0 mm 0,0 km/h (0 Bft) S 179 ° 0 min 0,000 mm 0,0 UV-I 32 W/m² 3,9 °C 6,6 °C 0,0 km/h (0 Bft)
16.10.2018 08:52 6,6 °C 83 % 1017,5 hPa 0,0 mm 0,0 km/h (0 Bft) S 179 ° 0 min 0,000 mm 0,0 UV-I 32 W/m² 3,9 °C 6,6 °C 0,0 km/h (0 Bft)
16.10.2018 08:53 6,5 °C 83 % 1017,5 hPa 0,0 mm 0,0 km/h (0 Bft) S 179 ° 0 min 0,000 mm 0,0 UV-I 32 W/m² 3,8 °C 6,5 °C 0,0 km/h (0 Bft)
16.10.2018 08:54 6,6 °C 83 % 1017,5 hPa 0,0 mm 0,0 km/h (0 Bft) S 179 ° 0 min 0,000 mm 0,0 UV-I 32 W/m² 3,9 °C 6,6 °C 0,0 km/h (0 Bft)
16.10.2018 08:55 6,6 °C 83 % 1017,5 hPa 0,0 mm 0,0 km/h (0 Bft) S 179 ° 0 min 0,000 mm 0,0 UV-I 32 W/m² 3,9 °C 6,6 °C 0,0 km/h (0 Bft)
16.10.2018 08:56 6,6 °C 83 % 1017,5 hPa 0,0 mm 0,0 km/h (0 Bft) S 179 ° 0 min 0,000 mm 0,0 UV-I 33 W/m² 3,9 °C 6,6 °C 0,0 km/h (0 Bft)
16.10.2018 08:57 6,7 °C 83 % 1017,5 hPa 0,0 mm 0,0 km/h (0 Bft) S 179 ° 0 min 0,000 mm 0,0 UV-I 33 W/m² 4,0 °C 6,7 °C 0,0 km/h (0 Bft)
16.10.2018 08:58 6,8 °C 83 % 1017,4 hPa 0,0 mm 0,0 km/h (0 Bft) S 179 ° 0 min 0,000 mm 0,0 UV-I 33 W/m² 4,1 °C 6,8 °C 0,0 km/h (0 Bft)
16.10.2018 08:59 6,8 °C 83 % 1017,4 hPa 0,0 mm 0,0 km/h (0 Bft) S 179 ° 0 min 0,000 mm 0,0 UV-I 33 W/m² 4,1 °C 6,8 °C 0,0 km/h (0 Bft)
16.10.2018 09:00 6,9 °C 83 % 1017,4 hPa 0,0 mm 0,0 km/h (0 Bft) S 179 ° 0 min 0,000 mm 0,0 UV-I 33 W/m² 4,2 °C 6,9 °C 0,0 km/h (0 Bft)
16.10.2018 09:01 6,9 °C 82 % 1017,4 hPa 0,0 mm 0,0 km/h (0 Bft) S 179 ° 0 min 0,000 mm 0,0 UV-I 33 W/m² 4,0 °C 6,9 °C 0,0 km/h (0 Bft)
16.10.2018 09:02 7,0 °C 82 % 1017,4 hPa 0,0 mm 0,0 km/h (0 Bft) S 179 ° 0 min 0,000 mm 0,0 UV-I 33 W/m² 4,1 °C 7,0 °C 0,0 km/h (0 Bft)
16.10.2018 09:03 7,1 °C 82 % 1017,5 hPa 0,0 mm 0,0 km/h (0 Bft) S 179 ° 0 min 0,000 mm 0,0 UV-I 33 W/m² 4,2 °C 7,1 °C 0,0 km/h (0 Bft)
16.10.2018 09:04 7,1 °C 82 % 1017,5 hPa 0,0 mm 0,0 km/h (0 Bft) S 179 ° 0 min 0,000 mm 0,0 UV-I 35 W/m² 4,2 °C 7,1 °C 0,0 km/h (0 Bft)
16.10.2018 09:05 7,2 °C 82 % 1017,5 hPa 0,0 mm 0,0 km/h (0 Bft) S 179 ° 0 min 0,000 mm 0,0 UV-I 35 W/m² 4,3 °C 7,2 °C 0,0 km/h (0 Bft)
16.10.2018 09:06 7,2 °C 82 % 1017,5 hPa 0,0 mm 0,0 km/h (0 Bft) S 179 ° 0 min 0,000 mm 0,0 UV-I 35 W/m² 4,3 °C 7,2 °C 0,0 km/h (0 Bft)
16.10.2018 09:07 7,3 °C 82 % 1017,5 hPa 0,0 mm 0,0 km/h (0 Bft) S 179 ° 0 min 0,000 mm 0,0 UV-I 35 W/m² 4,4 °C 7,3 °C 0,0 km/h (0 Bft)
16.10.2018 09:08 7,4 °C 82 % 1017,5 hPa 0,0 mm 0,0 km/h (0 Bft) S 179 ° 0 min 0,000 mm 0,0 UV-I 35 W/m² 4,5 °C 7,4 °C 0,0 km/h (0 Bft)
16.10.2018 09:09 7,4 °C 82 % 1017,5 hPa 0,0 mm 0,0 km/h (0 Bft) S 179 ° 0 min 0,000 mm 0,0 UV-I 35 W/m² 4,5 °C 7,4 °C 0,0 km/h (0 Bft)
16.10.2018 09:10 7,4 °C 82 % 1017,5 hPa 0,0 mm 0,0 km/h (0 Bft) S 179 ° 0 min 0,000 mm 0,0 UV-I 35 W/m² 4,5 °C 7,4 °C 0,0 km/h (0 Bft)
16.10.2018 09:11 7,5 °C 82 % 1017,5 hPa 0,0 mm 0,0 km/h (0 Bft) S 179 ° 0 min 0,000 mm 0,0 UV-I 37 W/m² 4,6 °C 7,5 °C 0,0 km/h (0 Bft)
16.10.2018 09:12 7,6 °C 82 % 1017,5 hPa 0,0 mm 0,0 km/h (0 Bft) S 179 ° 0 min 0,000 mm 0,0 UV-I 37 W/m² 4,7 °C 7,6 °C 0,0 km/h (0 Bft)
16.10.2018 09:13 7,7 °C 81 % 1017,5 hPa 0,0 mm 0,0 km/h (0 Bft) S 179 ° 0 min 0,000 mm 0,0 UV-I 37 W/m² 4,7 °C 7,7 °C 0,0 km/h (0 Bft)
16.10.2018 09:14 7,8 °C 81 % 1017,5 hPa 0,0 mm 0,0 km/h (0 Bft) S 179 ° 0 min 0,000 mm 0,0 UV-I 37 W/m² 4,7 °C 7,8 °C 0,0 km/h (0 Bft)
16.10.2018 09:15 7,8 °C 81 % 1017,5 hPa 0,0 mm 0,0 km/h (0 Bft) S 179 ° 0 min 0,000 mm 0,0 UV-I 37 W/m² 4,7 °C 7,8 °C 0,0 km/h (0 Bft)
16.10.2018 09:16 8,0 °C 81 % 1017,4 hPa 0,0 mm 0,0 km/h (0 Bft) S 179 ° 0 min 0,000 mm 0,0 UV-I 37 W/m² 4,9 °C 8,0 °C 0,0 km/h (0 Bft)
16.10.2018 09:17 8,1 °C 80 % 1017,4 hPa 0,0 mm 0,0 km/h (0 Bft) S 179 ° 0 min 0,000 mm 0,0 UV-I 37 W/m² 4,9 °C 8,1 °C 0,0 km/h (0 Bft)
16.10.2018 09:18 8,2 °C 80 % 1017,5 hPa 0,0 mm 0,0 km/h (0 Bft) S 179 ° 0 min 0,000 mm 0,0 UV-I 39 W/m² 5,0 °C 8,2 °C 0,0 km/h (0 Bft)
16.10.2018 09:19 8,3 °C 80 % 1017,4 hPa 0,0 mm 0,0 km/h (0 Bft) S 179 ° 0 min 0,000 mm 0,0 UV-I 39 W/m² 5,1 °C 8,3 °C 0,0 km/h (0 Bft)
16.10.2018 09:20 8,4 °C 79 % 1017,5 hPa 0,0 mm 0,0 km/h (0 Bft) S 179 ° 0 min 0,000 mm 0,0 UV-I 39 W/m² 5,0 °C 8,4 °C 0,0 km/h (0 Bft)
16.10.2018 09:21 8,6 °C 79 % 1017,4 hPa 0,0 mm 0,1 km/h (0 Bft) S 179 ° 0 min 0,000 mm 0,0 UV-I 39 W/m² 5,2 °C 8,6 °C 1,6 km/h (1 Bft)
16.10.2018 09:22 8,7 °C 79 % 1017,5 hPa 0,0 mm 0,0 km/h (0 Bft) S 179 ° 0 min 0,000 mm 0,0 UV-I 39 W/m² 5,3 °C 8,7 °C 0,0 km/h (0 Bft)
16.10.2018 09:23 8,7 °C 79 % 1017,4 hPa 0,0 mm 0,0 km/h (0 Bft) S 179 ° 0 min 0,000 mm 0,0 UV-I 39 W/m² 5,3 °C 8,7 °C 0,0 km/h (0 Bft)
16.10.2018 09:24 8,8 °C 79 % 1017,4 hPa 0,0 mm 0,0 km/h (0 Bft) S 179 ° 0 min 0,000 mm 0,0 UV-I 39 W/m² 5,4 °C 8,8 °C 0,0 km/h (0 Bft)
16.10.2018 09:25 8,9 °C 79 % 1017,5 hPa 0,0 mm 0,0 km/h (0 Bft) S 179 ° 0 min 0,000 mm 0,0 UV-I 40 W/m² 5,5 °C 8,9 °C 0,0 km/h (0 Bft)
16.10.2018 09:26 9,1 °C 79 % 1017,4 hPa 0,0 mm 0,0 km/h (0 Bft) S 179 ° 0 min 0,000 mm 0,0 UV-I 40 W/m² 5,7 °C 9,1 °C 0,0 km/h (0 Bft)
16.10.2018 09:27 9,3 °C 78 % 1017,5 hPa 0,0 mm 0,0 km/h (0 Bft) S 179 ° 0 min 0,000 mm 0,0 UV-I 40 W/m² 5,7 °C 9,3 °C 0,0 km/h (0 Bft)
16.10.2018 09:28 9,3 °C 78 % 1017,5 hPa 0,0 mm 0,0 km/h (0 Bft) S 179 ° 0 min 0,000 mm 0,0 UV-I 40 W/m² 5,7 °C 9,3 °C 0,0 km/h (0 Bft)
16.10.2018 09:29 9,4 °C 79 % 1017,5 hPa 0,0 mm 0,0 km/h (0 Bft) S 179 ° 0 min 0,000 mm 0,0 UV-I 40 W/m² 5,9 °C 9,4 °C 0,0 km/h (0 Bft)
16.10.2018 09:30 9,6 °C 78 % 1017,5 hPa 0,0 mm 0,0 km/h (0 Bft) S 179 ° 0 min 0,000 mm 0,0 UV-I 40 W/m² 6,0 °C 9,6 °C 0,0 km/h (0 Bft)
16.10.2018 09:31 9,7 °C 78 % 1017,5 hPa 0,0 mm 0,0 km/h (0 Bft) S 179 ° 0 min 0,000 mm 0,0 UV-I 42 W/m² 6,1 °C 9,7 °C 0,0 km/h (0 Bft)
16.10.2018 09:32 9,8 °C 78 % 1017,5 hPa 0,0 mm 0,0 km/h (0 Bft) S 179 ° 0 min 0,000 mm 0,0 UV-I 42 W/m² 6,1 °C 9,8 °C 0,0 km/h (0 Bft)
16.10.2018 09:33 9,8 °C 77 % 1017,4 hPa 0,0 mm 0,0 km/h (0 Bft) S 179 ° 0 min 0,000 mm 0,0 UV-I 42 W/m² 6,0 °C 9,8 °C 0,0 km/h (0 Bft)
16.10.2018 09:34 9,9 °C 77 % 1017,5 hPa 0,0 mm 0,0 km/h (0 Bft) S 179 ° 0 min 0,000 mm 0,0 UV-I 42 W/m² 6,1 °C 9,9 °C 0,0 km/h (0 Bft)
16.10.2018 09:35 9,9 °C 77 % 1017,5 hPa 0,0 mm 0,0 km/h (0 Bft) S 179 ° 0 min 0,000 mm 0,0 UV-I 42 W/m² 6,1 °C 9,9 °C 0,0 km/h (0 Bft)
16.10.2018 09:36 9,8 °C 77 % 1017,5 hPa 0,0 mm 0,0 km/h (0 Bft) S 179 ° 0 min 0,000 mm 0,0 UV-I 42 W/m² 6,0 °C 9,8 °C 0,0 km/h (0 Bft)
16.10.2018 09:37 9,8 °C 77 % 1017,5 hPa 0,0 mm 0,0 km/h (0 Bft) S 179 ° 0 min 0,000 mm 0,0 UV-I 42 W/m² 6,0 °C 9,8 °C 0,0 km/h (0 Bft)
16.10.2018 09:38 9,9 °C 77 % 1017,5 hPa 0,0 mm 0,0 km/h (0 Bft) S 179 ° 0 min 0,000 mm 0,0 UV-I 42 W/m² 6,1 °C 9,9 °C 0,0 km/h (0 Bft)
16.10.2018 09:39 10,0 °C 77 % 1017,5 hPa 0,0 mm 0,0 km/h (0 Bft) S 179 ° 0 min 0,000 mm 0,0 UV-I 42 W/m² 6,2 °C 10,0 °C 0,0 km/h (0 Bft)
16.10.2018 09:40 10,1 °C 76 % 1017,5 hPa 0,0 mm 0,0 km/h (0 Bft) S 179 ° 0 min 0,000 mm 0,0 UV-I 42 W/m² 6,1 °C 10,1 °C 0,0 km/h (0 Bft)
16.10.2018 09:41 10,2 °C 76 % 1017,5 hPa 0,0 mm 0,0 km/h (0 Bft) S 179 ° 0 min 0,000 mm 0,0 UV-I 44 W/m² 6,2 °C 10,2 °C 0,0 km/h (0 Bft)
16.10.2018 09:42 10,2 °C 76 % 1017,5 hPa 0,0 mm 0,0 km/h (0 Bft) S 179 ° 0 min 0,000 mm 0,0 UV-I 44 W/m² 6,2 °C 10,2 °C 0,0 km/h (0 Bft)
16.10.2018 09:43 10,3 °C 76 % 1017,5 hPa 0,0 mm 0,0 km/h (0 Bft) S 179 ° 0 min 0,000 mm 0,0 UV-I 44 W/m² 6,3 °C 10,3 °C 0,0 km/h (0 Bft)
16.10.2018 09:44 10,3 °C 75 % 1017,5 hPa 0,0 mm 0,0 km/h (0 Bft) S 179 ° 0 min 0,000 mm 0,0 UV-I 44 W/m² 6,1 °C 10,3 °C 0,0 km/h (0 Bft)
16.10.2018 09:45 10,4 °C 75 % 1017,5 hPa 0,0 mm 0,0 km/h (0 Bft) S 179 ° 0 min 0,000 mm 0,0 UV-I 44 W/m² 6,2 °C 10,4 °C 0,0 km/h (0 Bft)
16.10.2018 09:46 10,4 °C 75 % 1017,5 hPa 0,0 mm 0,0 km/h (0 Bft) S 179 ° 0 min 0,000 mm 0,0 UV-I 44 W/m² 6,2 °C 10,4 °C 0,0 km/h (0 Bft)
16.10.2018 09:47 10,5 °C 75 % 1017,5 hPa 0,0 mm 0,0 km/h (0 Bft) S 179 ° 0 min 0,000 mm 0,0 UV-I 44 W/m² 6,3 °C 10,5 °C 0,0 km/h (0 Bft)
16.10.2018 09:48 10,6 °C 75 % 1017,5 hPa 0,0 mm 0,0 km/h (0 Bft) S 179 ° 0 min 0,000 mm 0,0 UV-I 44 W/m² 6,4 °C 10,6 °C 0,0 km/h (0 Bft)
16.10.2018 09:49 10,7 °C 74 % 1017,5 hPa 0,0 mm 0,0 km/h (0 Bft) S 179 ° 0 min 0,000 mm 0,0 UV-I 44 W/m² 6,3 °C 10,7 °C 0,0 km/h (0 Bft)
16.10.2018 09:50 10,9 °C 74 % 1017,5 hPa 0,0 mm 0,0 km/h (0 Bft) S 179 ° 0 min 0,000 mm 0,0 UV-I 46 W/m² 6,5 °C 10,9 °C 0,0 km/h (0 Bft)
16.10.2018 09:51 10,9 °C 74 % 1017,5 hPa 0,0 mm 0,0 km/h (0 Bft) S 179 ° 0 min 0,000 mm 0,0 UV-I 46 W/m² 6,5 °C 10,9 °C 0,0 km/h (0 Bft)
16.10.2018 09:52 11,0 °C 74 % 1017,5 hPa 0,0 mm 0,0 km/h (0 Bft) S 179 ° 0 min 0,000 mm 0,0 UV-I 46 W/m² 6,5 °C 11,0 °C 0,0 km/h (0 Bft)
16.10.2018 09:53 11,1 °C 74 % 1017,5 hPa 0,0 mm 0,0 km/h (0 Bft) S 179 ° 0 min 0,000 mm 0,0 UV-I 46 W/m² 6,6 °C 11,1 °C 0,0 km/h (0 Bft)
16.10.2018 09:54 11,1 °C 73 % 1017,5 hPa 0,0 mm 0,0 km/h (0 Bft) S 179 ° 0 min 0,000 mm 0,0 UV-I 46 W/m² 6,4 °C 11,1 °C 0,0 km/h (0 Bft)
16.10.2018 09:55 11,2 °C 73 % 1017,6 hPa 0,0 mm 0,0 km/h (0 Bft) S 179 ° 0 min 0,000 mm 0,0 UV-I 46 W/m² 6,5 °C 11,2 °C 0,0 km/h (0 Bft)
16.10.2018 09:56 11,2 °C 73 % 1017,5 hPa 0,0 mm 0,0 km/h (0 Bft) S 179 ° 0 min 0,000 mm 0,0 UV-I 46 W/m² 6,5 °C 11,2 °C 0,0 km/h (0 Bft)
16.10.2018 09:57 11,3 °C 72 % 1017,5 hPa 0,0 mm 0,0 km/h (0 Bft) S 179 ° 0 min 0,000 mm 0,0 UV-I 46 W/m² 6,4 °C 11,3 °C 0,0 km/h (0 Bft)
16.10.2018 09:58 11,3 °C 72 % 1017,5 hPa 0,0 mm 0,0 km/h (0 Bft) S 179 ° 0 min 0,000 mm 0,0 UV-I 46 W/m² 6,4 °C 11,3 °C 0,0 km/h (0 Bft)
16.10.2018 09:59 11,4 °C 72 % 1017,6 hPa 0,0 mm 0,0 km/h (0 Bft) S 179 ° 0 min 0,000 mm 0,0 UV-I 46 W/m² 6,5 °C 11,4 °C 0,0 km/h (0 Bft)
16.10.2018 10:00 11,5 °C 71 % 1017,6 hPa 0,0 mm 0,0 km/h (0 Bft) S 179 ° 0 min 0,000 mm 0,0 UV-I 46 W/m² 6,4 °C 11,5 °C 0,0 km/h (0 Bft)
16.10.2018 10:01 11,6 °C 71 % 1017,5 hPa 0,0 mm 0,0 km/h (0 Bft) S 179 ° 0 min 0,026 mm 0,0 UV-I 46 W/m² 6,5 °C 11,6 °C 0,0 km/h (0 Bft)
16.10.2018 10:02 11,7 °C 71 % 1017,5 hPa 0,0 mm 0,0 km/h (0 Bft) S 179 ° 0 min 0,000 mm 0,0 UV-I 47 W/m² 6,6 °C 11,7 °C 0,0 km/h (0 Bft)
16.10.2018 10:03 11,7 °C 70 % 1017,5 hPa 0,0 mm 0,0 km/h (0 Bft) S 179 ° 0 min 0,000 mm 0,0 UV-I 47 W/m² 6,4 °C 11,7 °C 0,0 km/h (0 Bft)
16.10.2018 10:04 11,8 °C 70 % 1017,5 hPa 0,0 mm 0,0 km/h (0 Bft) S 179 ° 0 min 0,000 mm 0,0 UV-I 47 W/m² 6,5 °C 11,8 °C 0,0 km/h (0 Bft)
16.10.2018 10:05 11,8 °C 70 % 1017,5 hPa 0,0 mm 0,0 km/h (0 Bft) S 179 ° 0 min 0,000 mm 0,0 UV-I 47 W/m² 6,5 °C 11,8 °C 0,0 km/h (0 Bft)
16.10.2018 10:06 11,9 °C 70 % 1017,5 hPa 0,0 mm 0,0 km/h (0 Bft) S 179 ° 0 min 0,000 mm 0,0 UV-I 47 W/m² 6,6 °C 11,9 °C 0,0 km/h (0 Bft)
16.10.2018 10:07 11,9 °C 69 % 1017,5 hPa 0,0 mm 0,0 km/h (0 Bft) S 179 ° 0 min 0,000 mm 0,0 UV-I 47 W/m² 6,4 °C 11,9 °C 0,0 km/h (0 Bft)
16.10.2018 10:08 12,0 °C 70 % 1017,5 hPa 0,0 mm 0,0 km/h (0 Bft) S 179 ° 0 min 0,000 mm 0,0 UV-I 47 W/m² 6,7 °C 12,0 °C 0,0 km/h (0 Bft)
16.10.2018 10:09 12,2 °C 68 % 1017,5 hPa 0,0 mm 0,0 km/h (0 Bft) S 179 ° 0 min 0,000 mm 0,0 UV-I 47 W/m² 6,5 °C 12,2 °C 0,0 km/h (0 Bft)
16.10.2018 10:10 12,3 °C 69 % 1017,5 hPa 0,0 mm 0,0 km/h (0 Bft) S 179 ° 0 min 0,000 mm 0,0 UV-I 47 W/m² 6,8 °C 12,3 °C 0,0 km/h (0 Bft)
16.10.2018 10:11 12,4 °C 68 % 1017,5 hPa 0,0 mm 0,0 km/h (0 Bft) S 179 ° 0 min 0,000 mm 0,0 UV-I 47 W/m² 6,7 °C 12,4 °C 0,0 km/h (0 Bft)
16.10.2018 10:12 12,4 °C 68 % 1017,5 hPa 0,0 mm 0,0 km/h (0 Bft) S 179 ° 0 min 0,000 mm 0,0 UV-I 47 W/m² 6,7 °C 12,4 °C 0,0 km/h (0 Bft)
16.10.2018 10:13 12,5 °C 68 % 1017,5 hPa 0,0 mm 0,0 km/h (0 Bft) S 179 ° 0 min 0,000 mm 0,0 UV-I 47 W/m² 6,8 °C 12,5 °C 0,0 km/h (0 Bft)
16.10.2018 10:14 12,7 °C 67 % 1017,5 hPa 0,0 mm 0,0 km/h (0 Bft) S 179 ° 0 min 0,000 mm 0,0 UV-I 47 W/m² 6,7 °C 12,7 °C 0,0 km/h (0 Bft)
16.10.2018 10:15 12,8 °C 67 % 1017,5 hPa 0,0 mm 0,0 km/h (0 Bft) S 179 ° 0 min 0,000 mm 0,0 UV-I 47 W/m² 6,8 °C 12,8 °C 0,0 km/h (0 Bft)
16.10.2018 10:16 12,9 °C 67 % 1017,5 hPa 0,0 mm 0,0 km/h (0 Bft) S 179 ° 0 min 0,000 mm 0,0 UV-I 47 W/m² 6,9 °C 12,9 °C 0,0 km/h (0 Bft)
16.10.2018 10:17 13,0 °C 66 % 1017,5 hPa 0,0 mm 0,0 km/h (0 Bft) S 179 ° 0 min 0,000 mm 0,0 UV-I 47 W/m² 6,8 °C 13,0 °C 0,0 km/h (0 Bft)
16.10.2018 10:18 13,1 °C 66 % 1017,5 hPa 0,0 mm 0,0 km/h (0 Bft) S 179 ° 0 min 0,000 mm 0,0 UV-I 47 W/m² 6,9 °C 13,1 °C 0,0 km/h (0 Bft)
16.10.2018 10:19 13,2 °C 66 % 1017,5 hPa 0,0 mm 0,0 km/h (0 Bft) S 179 ° 0 min 0,000 mm 0,0 UV-I 47 W/m² 7,0 °C 13,2 °C 0,0 km/h (0 Bft)
16.10.2018 10:20 13,4 °C 65 % 1017,5 hPa 0,0 mm 0,0 km/h (0 Bft) S 179 ° 0 min 0,000 mm 0,0 UV-I 47 W/m² 7,0 °C 13,4 °C 0,0 km/h (0 Bft)
16.10.2018 10:21 13,6 °C 64 % 1017,4 hPa 0,0 mm 0,0 km/h (0 Bft) S 179 ° 0 min 0,000 mm 0,0 UV-I 47 W/m² 6,9 °C 13,6 °C 0,0 km/h (0 Bft)
16.10.2018 10:22 13,8 °C 63 % 1017,5 hPa 0,0 mm 0,0 km/h (0 Bft) S 179 ° 0 min 0,000 mm 0,0 UV-I 49 W/m² 6,9 °C 13,8 °C 0,0 km/h (0 Bft)
16.10.2018 10:23 13,8 °C 63 % 1017,5 hPa 0,0 mm 0,0 km/h (0 Bft) S 179 ° 0 min 0,000 mm 0,0 UV-I 49 W/m² 6,9 °C 13,8 °C 0,0 km/h (0 Bft)
16.10.2018 10:24 14,0 °C 63 % 1017,5 hPa 0,0 mm 0,0 km/h (0 Bft) S 179 ° 0 min 0,000 mm 0,0 UV-I 49 W/m² 7,1 °C 14,0 °C 0,0 km/h (0 Bft)
16.10.2018 10:25 14,1 °C 62 % 1017,5 hPa 0,0 mm 0,0 km/h (0 Bft) S 179 ° 0 min 0,000 mm 0,0 UV-I 49 W/m² 6,9 °C 14,1 °C 0,0 km/h (0 Bft)
16.10.2018 10:26 14,1 °C 62 % 1017,5 hPa 0,0 mm 0,0 km/h (0 Bft) S 179 ° 0 min 0,000 mm 0,0 UV-I 49 W/m² 6,9 °C 14,1 °C 0,0 km/h (0 Bft)
16.10.2018 10:27 14,2 °C 62 % 1017,4 hPa 0,0 mm 0,0 km/h (0 Bft) S 179 ° 0 min 0,000 mm 0,0 UV-I 49 W/m² 7,0 °C 14,2 °C 0,0 km/h (0 Bft)
16.10.2018 10:28 14,2 °C 62 % 1017,4 hPa 0,0 mm 0,0 km/h (0 Bft) S 179 ° 0 min 0,000 mm 0,0 UV-I 49 W/m² 7,0 °C 14,2 °C 0,0 km/h (0 Bft)
16.10.2018 10:29 14,2 °C 62 % 1017,5 hPa 0,0 mm 0,0 km/h (0 Bft) S 179 ° 0 min 0,000 mm 0,0 UV-I 51 W/m² 7,0 °C 14,2 °C 0,0 km/h (0 Bft)
16.10.2018 10:30 14,2 °C 62 % 1017,5 hPa 0,0 mm 0,0 km/h (0 Bft) S 179 ° 0 min 0,000 mm 0,0 UV-I 51 W/m² 7,0 °C 14,2 °C 0,0 km/h (0 Bft)
16.10.2018 10:31 14,3 °C 62 % 1017,5 hPa 0,0 mm 0,0 km/h (0 Bft) S 179 ° 0 min 0,000 mm 0,0 UV-I 49 W/m² 7,1 °C 14,3 °C 0,0 km/h (0 Bft)
16.10.2018 10:32 14,3 °C 62 % 1017,4 hPa 0,0 mm 0,0 km/h (0 Bft) S 179 ° 0 min 0,000 mm 0,0 UV-I 49 W/m² 7,1 °C 14,3 °C 0,0 km/h (0 Bft)
16.10.2018 10:33 14,3 °C 61 % 1017,4 hPa 0,0 mm 0,0 km/h (0 Bft) S 179 ° 0 min 0,000 mm 0,0 UV-I 49 W/m² 6,9 °C 14,3 °C 0,0 km/h (0 Bft)
16.10.2018 10:34 14,4 °C 61 % 1017,5 hPa 0,0 mm 0,0 km/h (0 Bft) S 179 ° 0 min 0,000 mm 0,0 UV-I 51 W/m² 7,0 °C 14,4 °C 0,0 km/h (0 Bft)
16.10.2018 10:35 14,4 °C 61 % 1017,4 hPa 0,0 mm 0,0 km/h (0 Bft) S 179 ° 0 min 0,000 mm 0,0 UV-I 51 W/m² 7,0 °C 14,4 °C 0,0 km/h (0 Bft)
16.10.2018 10:36 14,5 °C 61 % 1017,5 hPa 0,0 mm 0,0 km/h (0 Bft) S 179 ° 0 min 0,000 mm 0,0 UV-I 53 W/m² 7,1 °C 14,5 °C 0,0 km/h (0 Bft)
16.10.2018 10:37 14,6 °C 61 % 1017,5 hPa 0,0 mm 0,0 km/h (0 Bft) S 179 ° 0 min 0,000 mm 0,0 UV-I 51 W/m² 7,2 °C 14,6 °C 0,0 km/h (0 Bft)
16.10.2018 10:38 14,7 °C 61 % 1017,5 hPa 0,0 mm 0,0 km/h (0 Bft) S 179 ° 0 min 0,000 mm 0,0 UV-I 51 W/m² 7,3 °C 14,7 °C 0,0 km/h (0 Bft)
16.10.2018 10:39 14,6 °C 62 % 1017,5 hPa 0,0 mm 0,0 km/h (0 Bft) S 179 ° 0 min 0,000 mm 0,0 UV-I 51 W/m² 7,4 °C 14,6 °C 0,0 km/h (0 Bft)
16.10.2018 10:40 14,6 °C 61 % 1017,5 hPa 0,0 mm 0,0 km/h (0 Bft) S 179 ° 0 min 0,000 mm 0,0 UV-I 51 W/m² 7,2 °C 14,6 °C 0,0 km/h (0 Bft)
16.10.2018 10:41 14,6 °C 61 % 1017,4 hPa 0,0 mm 0,0 km/h (0 Bft) S 179 ° 0 min 0,000 mm 0,0 UV-I 51 W/m² 7,2 °C 14,6 °C 0,0 km/h (0 Bft)
16.10.2018 10:42 14,7 °C 61 % 1017,5 hPa 0,0 mm 0,0 km/h (0 Bft) S 179 ° 0 min 0,000 mm 0,0 UV-I 51 W/m² 7,3 °C 14,7 °C 0,0 km/h (0 Bft)
16.10.2018 10:43 14,7 °C 61 % 1017,5 hPa 0,0 mm 0,0 km/h (0 Bft) S 179 ° 0 min 0,000 mm 0,0 UV-I 51 W/m² 7,3 °C 14,7 °C 0,0 km/h (0 Bft)
16.10.2018 10:44 14,8 °C 61 % 1017,5 hPa 0,0 mm 0,0 km/h (0 Bft) S 179 ° 0 min 0,000 mm 0,0 UV-I 51 W/m² 7,4 °C 14,8 °C 0,0 km/h (0 Bft)
16.10.2018 10:45 14,8 °C 61 % 1017,5 hPa 0,0 mm 0,0 km/h (0 Bft) S 179 ° 0 min 0,000 mm 0,0 UV-I 51 W/m² 7,4 °C 14,8 °C 0,0 km/h (0 Bft)
16.10.2018 10:46 14,8 °C 61 % 1017,5 hPa 0,0 mm 0,0 km/h (0 Bft) S 179 ° 0 min 0,000 mm 0,0 UV-I 51 W/m² 7,4 °C 14,8 °C 0,0 km/h (0 Bft)
16.10.2018 10:47 14,9 °C 60 % 1017,5 hPa 0,0 mm 0,0 km/h (0 Bft) S 179 ° 0 min 0,000 mm 0,0 UV-I 51 W/m² 7,2 °C 14,9 °C 0,0 km/h (0 Bft)
16.10.2018 10:48 14,9 °C 60 % 1017,5 hPa 0,0 mm 0,0 km/h (0 Bft) S 179 ° 0 min 0,000 mm 0,0 UV-I 51 W/m² 7,2 °C 14,9 °C 0,0 km/h (0 Bft)
16.10.2018 10:49 15,0 °C 60 % 1017,5 hPa 0,0 mm 0,0 km/h (0 Bft) S 179 ° 0 min 0,000 mm 0,0 UV-I 53 W/m² 7,3 °C 15,0 °C 0,0 km/h (0 Bft)
16.10.2018 10:50 15,0 °C 60 % 1017,5 hPa 0,0 mm 0,0 km/h (0 Bft) S 179 ° 0 min 0,000 mm 0,0 UV-I 54 W/m² 7,3 °C 15,0 °C 0,0 km/h (0 Bft)
16.10.2018 10:51 15,1 °C 60 % 1017,5 hPa 0,0 mm 0,0 km/h (0 Bft) S 179 ° 0 min 0,000 mm 0,0 UV-I 54 W/m² 7,4 °C 15,1 °C 0,0 km/h (0 Bft)
16.10.2018 10:52 15,1 °C 59 % 1017,5 hPa 0,0 mm 0,0 km/h (0 Bft) S 179 ° 0 min 0,000 mm 1,3 UV-I 56 W/m² 7,1 °C 15,1 °C 0,0 km/h (0 Bft)
16.10.2018 10:53 15,2 °C 58 % 1017,5 hPa 0,0 mm 0,0 km/h (0 Bft) S 179 ° 0 min 0,000 mm 1,3 UV-I 65 W/m² 7,0 °C 15,2 °C 0,0 km/h (0 Bft)
16.10.2018 10:54 15,2 °C 58 % 1017,5 hPa 0,0 mm 0,0 km/h (0 Bft) S 179 ° 0 min 0,000 mm 1,4 UV-I 69 W/m² 7,0 °C 15,2 °C 0,0 km/h (0 Bft)
16.10.2018 10:55 15,3 °C 58 % 1017,6 hPa 0,0 mm 0,0 km/h (0 Bft) S 179 ° 0 min 0,000 mm 1,4 UV-I 63 W/m² 7,1 °C 15,3 °C 0,0 km/h (0 Bft)
16.10.2018 10:56 15,3 °C 60 % 1017,5 hPa 0,0 mm 0,0 km/h (0 Bft) S 179 ° 0 min 0,000 mm 1,4 UV-I 77 W/m² 7,6 °C 15,3 °C 0,0 km/h (0 Bft)
16.10.2018 10:57 15,2 °C 60 % 1017,5 hPa 0,0 mm 0,0 km/h (0 Bft) S 179 ° 0 min 0,000 mm 1,4 UV-I 84 W/m² 7,5 °C 15,2 °C 0,0 km/h (0 Bft)
16.10.2018 10:58 15,2 °C 58 % 1017,5 hPa 0,0 mm 0,0 km/h (0 Bft) S 179 ° 0 min 0,000 mm 1,4 UV-I 169 W/m² 7,0 °C 15,2 °C 0,0 km/h (0 Bft)
16.10.2018 10:59 15,3 °C 58 % 1017,5 hPa 0,0 mm 0,0 km/h (0 Bft) S 179 ° 0 min 0,000 mm 1,5 UV-I 244 W/m² 7,1 °C 15,3 °C 0,0 km/h (0 Bft)
16.10.2018 11:00 15,5 °C 57 % 1017,5 hPa 0,0 mm 0,0 km/h (0 Bft) S 179 ° 0 min 0,025 mm 1,8 UV-I 336 W/m² 7,0 °C 15,5 °C 0,0 km/h (0 Bft)
16.10.2018 11:01 15,6 °C 57 % 1017,5 hPa 0,0 mm 0,0 km/h (0 Bft) S 179 ° 0 min 0,000 mm 1,9 UV-I 396 W/m² 7,1 °C 15,6 °C 0,0 km/h (0 Bft)
16.10.2018 11:02 15,3 °C 61 % 1017,5 hPa 0,0 mm 0,0 km/h (0 Bft) S 179 ° 0 min 0,000 mm 2,0 UV-I 399 W/m² 7,8 °C 15,3 °C 0,0 km/h (0 Bft)
16.10.2018 11:03 15,2 °C 59 % 1017,5 hPa 0,0 mm 0,0 km/h (0 Bft) S 179 ° 0 min 0,000 mm 2,0 UV-I 396 W/m² 7,2 °C 15,2 °C 0,0 km/h (0 Bft)
16.10.2018 11:04 15,4 °C 58 % 1017,5 hPa 0,0 mm 0,0 km/h (0 Bft) S 179 ° 0 min 0,000 mm 2,0 UV-I 399 W/m² 7,2 °C 15,4 °C 0,0 km/h (0 Bft)
16.10.2018 11:05 15,6 °C 58 % 1017,4 hPa 0,0 mm 0,0 km/h (0 Bft) S 179 ° 0 min 0,000 mm 2,0 UV-I 369 W/m² 7,4 °C 15,6 °C 0,0 km/h (0 Bft)
16.10.2018 11:06 15,7 °C 57 % 1017,5 hPa 0,0 mm 0,0 km/h (0 Bft) S 179 ° 0 min 0,000 mm 2,0 UV-I 316 W/m² 7,2 °C 15,7 °C 0,0 km/h (0 Bft)
16.10.2018 11:07 15,7 °C 57 % 1017,5 hPa 0,0 mm 0,0 km/h (0 Bft) S 179 ° 0 min 0,000 mm 1,9 UV-I 264 W/m² 7,2 °C 15,7 °C 0,0 km/h (0 Bft)
16.10.2018 11:08 15,8 °C 56 % 1017,5 hPa 0,0 mm 0,0 km/h (0 Bft) S 179 ° 0 min 0,000 mm 1,8 UV-I 264 W/m² 7,0 °C 15,8 °C 0,0 km/h (0 Bft)
16.10.2018 11:09 15,9 °C 56 % 1017,5 hPa 0,0 mm 0,0 km/h (0 Bft) S 179 ° 0 min 0,000 mm 1,8 UV-I 265 W/m² 7,1 °C 15,9 °C 0,0 km/h (0 Bft)
16.10.2018 11:10 15,8 °C 59 % 1017,5 hPa 0,0 mm 0,0 km/h (0 Bft) S 179 ° 0 min 0,000 mm 1,9 UV-I 225 W/m² 7,8 °C 15,8 °C 0,0 km/h (0 Bft)
16.10.2018 11:11 15,8 °C 57 % 1017,5 hPa 0,0 mm 0,0 km/h (0 Bft) S 179 ° 0 min 0,000 mm 1,8 UV-I 193 W/m² 7,3 °C 15,8 °C 0,0 km/h (0 Bft)
16.10.2018 11:12 15,9 °C 58 % 1017,4 hPa 0,0 mm 0,0 km/h (0 Bft) S 179 ° 0 min 0,000 mm 1,7 UV-I 144 W/m² 7,6 °C 15,9 °C 0,0 km/h (0 Bft)
16.10.2018 11:13 15,9 °C 58 % 1017,5 hPa 0,0 mm 0,0 km/h (0 Bft) S 179 ° 0 min 0,000 mm 1,6 UV-I 118 W/m² 7,6 °C 15,9 °C 0,0 km/h (0 Bft)
16.10.2018 11:14 16,1 °C 55 % 1017,5 hPa 0,0 mm 0,0 km/h (0 Bft) S 179 ° 0 min 0,000 mm 1,6 UV-I 149 W/m² 7,1 °C 16,1 °C 0,0 km/h (0 Bft)
16.10.2018 11:15 16,2 °C 55 % 1017,5 hPa 0,0 mm 1,4 km/h (1 Bft) S 179 ° 0 min 0,000 mm 1,7 UV-I 179 W/m² 7,2 °C 16,2 °C 3,2 km/h (1 Bft)
16.10.2018 11:16 16,3 °C 55 % 1017,5 hPa 0,0 mm 0,3 km/h (0 Bft) S 170 ° 0 min 0,000 mm 1,7 UV-I 104 W/m² 7,2 °C 16,3 °C 1,6 km/h (1 Bft)
16.10.2018 11:17 16,3 °C 54 % 1017,5 hPa 0,0 mm 0,4 km/h (0 Bft) S 170 ° 0 min 0,000 mm 1,6 UV-I 91 W/m² 7,0 °C 16,3 °C 1,6 km/h (1 Bft)
16.10.2018 11:18 16,3 °C 54 % 1017,5 hPa 0,0 mm 0,0 km/h (0 Bft) S 170 ° 0 min 0,000 mm 1,5 UV-I 63 W/m² 7,0 °C 16,3 °C 0,0 km/h (0 Bft)
16.10.2018 11:19 16,3 °C 55 % 1017,5 hPa 0,0 mm 0,0 km/h (0 Bft) S 170 ° 0 min 0,000 mm 1,5 UV-I 60 W/m² 7,2 °C 16,3 °C 0,0 km/h (0 Bft)
16.10.2018 11:20 16,2 °C 55 % 1017,5 hPa 0,0 mm 2,5 km/h (1 Bft) O-SO 115 ° 0 min 0,000 mm 1,5 UV-I 56 W/m² 7,2 °C 16,2 °C 3,2 km/h (1 Bft)
16.10.2018 11:21 16,1 °C 54 % 1017,6 hPa 0,0 mm 1,0 km/h (0 Bft) O-SO 115 ° 0 min 0,000 mm 1,5 UV-I 56 W/m² 6,8 °C 16,1 °C 3,2 km/h (1 Bft)
16.10.2018 11:22 16,1 °C 55 % 1017,5 hPa 0,0 mm 3,6 km/h (1 Bft) O-SO 115 ° 0 min 0,000 mm 1,5 UV-I 56 W/m² 7,1 °C 16,1 °C 4,8 km/h (1 Bft)
16.10.2018 11:23 16,3 °C 51 % 1017,5 hPa 0,0 mm 1,9 km/h (1 Bft) O-SO 115 ° 0 min 0,000 mm 1,5 UV-I 56 W/m² 6,1 °C 16,3 °C 3,2 km/h (1 Bft)
16.10.2018 11:24 16,3 °C 53 % 1017,5 hPa 0,0 mm 1,6 km/h (1 Bft) O-SO 115 ° 0 min 0,000 mm 1,5 UV-I 56 W/m² 6,7 °C 16,3 °C 3,2 km/h (1 Bft)
16.10.2018 11:25 16,3 °C 53 % 1017,5 hPa 0,0 mm 0,7 km/h (0 Bft) O-SO 115 ° 0 min 0,000 mm 1,5 UV-I 60 W/m² 6,7 °C 16,3 °C 1,6 km/h (1 Bft)
16.10.2018 11:26 16,4 °C 53 % 1017,6 hPa 0,0 mm 0,0 km/h (0 Bft) O-SO 115 ° 0 min 0,000 mm 1,5 UV-I 58 W/m² 6,8 °C 16,4 °C 0,0 km/h (0 Bft)
16.10.2018 11:27 16,3 °C 57 % 1017,6 hPa 0,0 mm 1,2 km/h (1 Bft) O 83 ° 0 min 0,000 mm 1,5 UV-I 60 W/m² 7,8 °C 16,3 °C 3,2 km/h (1 Bft)
16.10.2018 11:28 16,1 °C 55 % 1017,6 hPa 0,0 mm 0,1 km/h (0 Bft) O 83 ° 0 min 0,000 mm 1,5 UV-I 60 W/m² 7,1 °C 16,1 °C 1,6 km/h (1 Bft)
16.10.2018 11:29 16,1 °C 55 % 1017,5 hPa 0,0 mm 0,0 km/h (0 Bft) O 83 ° 0 min 0,000 mm 1,6 UV-I 58 W/m² 7,1 °C 16,1 °C 0,0 km/h (0 Bft)
16.10.2018 11:30 16,2 °C 54 % 1017,6 hPa 0,0 mm 0,0 km/h (0 Bft) O 83 ° 0 min 0,000 mm 1,6 UV-I 56 W/m² 6,9 °C 16,2 °C 0,0 km/h (0 Bft)
16.10.2018 11:31 16,3 °C 55 % 1017,7 hPa 0,0 mm 0,9 km/h (0 Bft) O 83 ° 0 min 0,000 mm 1,6 UV-I 58 W/m² 7,2 °C 16,3 °C 3,2 km/h (1 Bft)
16.10.2018 11:32 16,2 °C 56 % 1017,6 hPa 0,0 mm 1,2 km/h (1 Bft) O 83 ° 0 min 0,000 mm 1,6 UV-I 60 W/m² 7,4 °C 16,2 °C 1,6 km/h (1 Bft)
16.10.2018 11:33 16,2 °C 55 % 1017,6 hPa 0,0 mm 0,3 km/h (0 Bft) O 83 ° 0 min 0,000 mm 1,6 UV-I 60 W/m² 7,2 °C 16,2 °C 1,6 km/h (1 Bft)
16.10.2018 11:34 16,1 °C 56 % 1017,5 hPa 0,0 mm 0,1 km/h (0 Bft) O 83 ° 0 min 0,000 mm 1,6 UV-I 111 W/m² 7,3 °C 16,1 °C 1,6 km/h (1 Bft)
16.10.2018 11:35 16,1 °C 56 % 1017,6 hPa 0,0 mm 1,0 km/h (0 Bft) O 83 ° 0 min 0,000 mm 1,8 UV-I 179 W/m² 7,3 °C 16,1 °C 3,2 km/h (1 Bft)
16.10.2018 11:36 16,1 °C 56 % 1017,6 hPa 0,0 mm 2,3 km/h (1 Bft) O-NO 64 ° 0 min 0,000 mm 1,9 UV-I 160 W/m² 7,3 °C 16,1 °C 4,8 km/h (1 Bft)
16.10.2018 11:37 16,1 °C 57 % 1017,6 hPa 0,0 mm 3,7 km/h (1 Bft) O 87 ° 0 min 0,000 mm 1,8 UV-I 160 W/m² 7,6 °C 16,1 °C 4,8 km/h (1 Bft)
16.10.2018 11:38 16,1 °C 56 % 1017,6 hPa 0,0 mm 2,2 km/h (1 Bft) O 86 ° 0 min 0,000 mm 1,9 UV-I 190 W/m² 7,3 °C 16,1 °C 4,8 km/h (1 Bft)
16.10.2018 11:39 16,2 °C 55 % 1017,6 hPa 0,0 mm 0,5 km/h (0 Bft) O 86 ° 0 min 0,000 mm 1,9 UV-I 257 W/m² 7,2 °C 16,2 °C 1,6 km/h (1 Bft)
16.10.2018 11:40 16,3 °C 57 % 1017,6 hPa 0,0 mm 2,1 km/h (1 Bft) O 86 ° 0 min 0,000 mm 2,3 UV-I 415 W/m² 7,8 °C 16,3 °C 3,2 km/h (1 Bft)
16.10.2018 11:41 16,4 °C 55 % 1017,6 hPa 0,0 mm 2,0 km/h (1 Bft) O 86 ° 0 min 0,000 mm 2,4 UV-I 417 W/m² 7,3 °C 16,4 °C 3,2 km/h (1 Bft)
16.10.2018 11:42 16,6 °C 54 % 1017,6 hPa 0,0 mm 0,1 km/h (0 Bft) O 86 ° 0 min 0,000 mm 2,4 UV-I 452 W/m² 7,3 °C 16,6 °C 1,6 km/h (1 Bft)
16.10.2018 11:43 16,7 °C 53 % 1017,6 hPa 0,0 mm 0,0 km/h (0 Bft) O 86 ° 0 min 0,000 mm 2,5 UV-I 480 W/m² 7,1 °C 16,7 °C 0,0 km/h (0 Bft)
16.10.2018 11:44 16,7 °C 55 % 1017,6 hPa 0,0 mm 1,8 km/h (1 Bft) O-NO 59 ° 0 min 0,000 mm 2,5 UV-I 483 W/m² 7,6 °C 16,7 °C 6,4 km/h (2 Bft)
16.10.2018 11:45 16,4 °C 57 % 1017,6 hPa 0,0 mm 3,3 km/h (1 Bft) O-NO 61 ° 0 min 0,000 mm 2,6 UV-I 487 W/m² 7,9 °C 16,4 °C 4,8 km/h (1 Bft)
16.10.2018 11:46 16,3 °C 55 % 1017,7 hPa 0,0 mm 0,3 km/h (0 Bft) O-NO 61 ° 0 min 0,000 mm 2,6 UV-I 487 W/m² 7,2 °C 16,3 °C 1,6 km/h (1 Bft)
16.10.2018 11:47 16,5 °C 55 % 1017,6 hPa 0,0 mm 0,0 km/h (0 Bft) O-NO 61 ° 0 min 0,000 mm 2,6 UV-I 489 W/m² 7,4 °C 16,5 °C 0,0 km/h (0 Bft)
16.10.2018 11:48 16,7 °C 54 % 1017,6 hPa 0,0 mm 4,0 km/h (1 Bft) O-NO 74 ° 0 min 0,000 mm 2,7 UV-I 490 W/m² 7,3 °C 16,7 °C 6,4 km/h (2 Bft)
16.10.2018 11:49 16,8 °C 55 % 1017,7 hPa 0,0 mm 4,1 km/h (1 Bft) O-NO 75 ° 0 min 0,000 mm 2,7 UV-I 490 W/m² 7,7 °C 16,8 °C 6,4 km/h (2 Bft)
16.10.2018 11:50 16,7 °C 53 % 1017,6 hPa 0,0 mm 1,5 km/h (1 Bft) O-NO 75 ° 0 min 0,000 mm 2,7 UV-I 492 W/m² 7,1 °C 16,7 °C 3,2 km/h (1 Bft)
16.10.2018 11:51 16,7 °C 53 % 1017,7 hPa 0,0 mm 1,2 km/h (1 Bft) O-NO 75 ° 0 min 0,000 mm 2,7 UV-I 494 W/m² 7,1 °C 16,7 °C 3,2 km/h (1 Bft)
16.10.2018 11:52 16,6 °C 55 % 1017,6 hPa 0,0 mm 3,0 km/h (1 Bft) O-NO 75 ° 0 min 0,000 mm 2,7 UV-I 497 W/m² 7,5 °C 16,6 °C 4,8 km/h (1 Bft)
16.10.2018 11:53 16,4 °C 55 % 1017,6 hPa 0,0 mm 0,1 km/h (0 Bft) O-NO 75 ° 0 min 0,000 mm 2,7 UV-I 497 W/m² 7,3 °C 16,4 °C 1,6 km/h (1 Bft)
16.10.2018 11:54 16,4 °C 56 % 1017,7 hPa 0,0 mm 0,0 km/h (0 Bft) O-NO 75 ° 0 min 0,000 mm 2,7 UV-I 497 W/m² 7,6 °C 16,4 °C 0,0 km/h (0 Bft)
16.10.2018 11:55 16,4 °C 56 % 1017,7 hPa 0,0 mm 2,5 km/h (1 Bft) O 80 ° 0 min 0,000 mm 2,7 UV-I 497 W/m² 7,6 °C 16,4 °C 6,4 km/h (2 Bft)
16.10.2018 11:56 16,5 °C 57 % 1017,6 hPa 0,0 mm 3,4 km/h (1 Bft) O-SO 107 ° 0 min 0,000 mm 2,7 UV-I 501 W/m² 8,0 °C 16,5 °C 6,4 km/h (2 Bft)
16.10.2018 11:57 16,8 °C 52 % 1017,6 hPa 0,0 mm 0,9 km/h (0 Bft) O-SO 107 ° 0 min 0,000 mm 2,7 UV-I 497 W/m² 6,9 °C 16,8 °C 3,2 km/h (1 Bft)
16.10.2018 11:58 17,0 °C 49 % 1017,6 hPa 0,0 mm 2,3 km/h (1 Bft) O-NO 57 ° 0 min 0,000 mm 2,8 UV-I 494 W/m² 6,2 °C 17,0 °C 6,4 km/h (2 Bft)
16.10.2018 11:59 17,1 °C 55 % 1017,6 hPa 0,0 mm 0,3 km/h (0 Bft) O-NO 57 ° 0 min 0,000 mm 2,8 UV-I 497 W/m² 8,0 °C 17,1 °C 1,6 km/h (1 Bft)
16.10.2018 12:00 17,0 °C 52 % 1017,7 hPa 0,0 mm 0,1 km/h (0 Bft) O-NO 57 ° 0 min 0,000 mm 2,8 UV-I 497 W/m² 7,1 °C 17,0 °C 1,6 km/h (1 Bft)
16.10.2018 12:01 17,0 °C 53 % 1017,6 hPa 0,0 mm 0,9 km/h (0 Bft) O-NO 64 ° 0 min 0,153 mm 2,8 UV-I 504 W/m² 7,4 °C 17,0 °C 3,2 km/h (1 Bft)
16.10.2018 12:02 17,0 °C 52 % 1017,7 hPa 0,0 mm 0,3 km/h (0 Bft) O-NO 64 ° 0 min 0,000 mm 2,8 UV-I 503 W/m² 7,1 °C 17,0 °C 1,6 km/h (1 Bft)
16.10.2018 12:03 17,1 °C 52 % 1017,6 hPa 0,0 mm 0,9 km/h (0 Bft) O-NO 64 ° 0 min 0,000 mm 2,8 UV-I 499 W/m² 7,2 °C 17,1 °C 3,2 km/h (1 Bft)
16.10.2018 12:04 17,2 °C 51 % 1017,6 hPa 0,0 mm 1,6 km/h (1 Bft) O-NO 64 ° 0 min 0,000 mm 2,8 UV-I 499 W/m² 7,0 °C 17,2 °C 3,2 km/h (1 Bft)
16.10.2018 12:05 17,3 °C 49 % 1017,6 hPa 0,0 mm 1,6 km/h (1 Bft) O-NO 63 ° 0 min 0,000 mm 2,8 UV-I 510 W/m² 6,5 °C 17,3 °C 3,2 km/h (1 Bft)
16.10.2018 12:06 17,4 °C 49 % 1017,7 hPa 0,0 mm 0,2 km/h (0 Bft) O-NO 63 ° 0 min 0,000 mm 2,9 UV-I 512 W/m² 6,6 °C 17,4 °C 1,6 km/h (1 Bft)
16.10.2018 12:07 17,4 °C 49 % 1017,6 hPa 0,0 mm 0,0 km/h (0 Bft) O-NO 63 ° 0 min 0,000 mm 2,9 UV-I 512 W/m² 6,6 °C 17,4 °C 0,0 km/h (0 Bft)
16.10.2018 12:08 17,3 °C 50 % 1017,7 hPa 0,0 mm 1,5 km/h (1 Bft) O-NO 63 ° 0 min 0,000 mm 2,9 UV-I 512 W/m² 6,8 °C 17,3 °C 3,2 km/h (1 Bft)
16.10.2018 12:09 17,3 °C 50 % 1017,7 hPa 0,0 mm 2,4 km/h (1 Bft) O-NO 64 ° 0 min 0,000 mm 2,9 UV-I 513 W/m² 6,8 °C 17,3 °C 3,2 km/h (1 Bft)
16.10.2018 12:10 17,3 °C 51 % 1017,6 hPa 0,0 mm 2,5 km/h (1 Bft) NO 51 ° 0 min 0,000 mm 2,9 UV-I 513 W/m² 7,1 °C 17,3 °C 4,8 km/h (1 Bft)
16.10.2018 12:11 17,2 °C 50 % 1017,6 hPa 0,0 mm 2,1 km/h (1 Bft) NO 42 ° 0 min 0,000 mm 2,9 UV-I 515 W/m² 6,7 °C 17,2 °C 6,4 km/h (2 Bft)
16.10.2018 12:12 17,3 °C 50 % 1017,6 hPa 0,0 mm 2,3 km/h (1 Bft) NO 53 ° 0 min 0,000 mm 2,9 UV-I 515 W/m² 6,8 °C 17,3 °C 3,2 km/h (1 Bft)
16.10.2018 12:13 17,3 °C 55 % 1017,6 hPa 0,0 mm 2,0 km/h (1 Bft) NO 55 ° 0 min 0,000 mm 2,9 UV-I 515 W/m² 8,2 °C 17,3 °C 3,2 km/h (1 Bft)
16.10.2018 12:14 17,3 °C 55 % 1017,6 hPa 0,0 mm 0,2 km/h (0 Bft) NO 55 ° 0 min 0,000 mm 2,9 UV-I 517 W/m² 8,2 °C 17,3 °C 1,6 km/h (1 Bft)
16.10.2018 12:15 17,4 °C 52 % 1017,6 hPa 0,0 mm 4,3 km/h (1 Bft) O 85 ° 0 min 0,000 mm 2,9 UV-I 519 W/m² 7,4 °C 17,4 °C 8,0 km/h (2 Bft)
16.10.2018 12:16 17,4 °C 52 % 1017,6 hPa 0,0 mm 4,3 km/h (1 Bft) NO 43 ° 0 min 0,000 mm 3,0 UV-I 519 W/m² 7,4 °C 17,4 °C 6,4 km/h (2 Bft)
16.10.2018 12:17 17,6 °C 49 % 1017,7 hPa 0,0 mm 1,9 km/h (1 Bft) NO 49 ° 0 min 0,000 mm 3,0 UV-I 520 W/m² 6,8 °C 17,6 °C 4,8 km/h (1 Bft)
16.10.2018 12:18 17,7 °C 52 % 1017,6 hPa 0,0 mm 3,7 km/h (1 Bft) O 94 ° 0 min 0,000 mm 3,0 UV-I 520 W/m² 7,7 °C 17,7 °C 4,8 km/h (1 Bft)
16.10.2018 12:19 17,7 °C 45 % 1017,6 hPa 0,0 mm 2,8 km/h (1 Bft) O 85 ° 0 min 0,000 mm 3,0 UV-I 520 W/m² 5,6 °C 17,7 °C 4,8 km/h (1 Bft)
16.10.2018 12:20 17,8 °C 47 % 1017,6 hPa 0,0 mm 0,8 km/h (0 Bft) O 85 ° 0 min 0,000 mm 3,0 UV-I 522 W/m² 6,3 °C 17,8 °C 3,2 km/h (1 Bft)
16.10.2018 12:21 17,8 °C 47 % 1017,6 hPa 0,0 mm 2,5 km/h (1 Bft) O 86 ° 0 min 0,000 mm 3,0 UV-I 524 W/m² 6,3 °C 17,8 °C 4,8 km/h (1 Bft)
16.10.2018 12:22 17,8 °C 48 % 1017,6 hPa 0,0 mm 1,6 km/h (1 Bft) O-SO 105 ° 0 min 0,000 mm 3,0 UV-I 524 W/m² 6,6 °C 17,8 °C 4,8 km/h (1 Bft)
16.10.2018 12:23 17,8 °C 47 % 1017,6 hPa 0,0 mm 1,8 km/h (1 Bft) N-NO 29 ° 0 min 0,000 mm 3,0 UV-I 526 W/m² 6,3 °C 17,8 °C 4,8 km/h (1 Bft)
16.10.2018 12:24 17,8 °C 48 % 1017,6 hPa 0,0 mm 3,6 km/h (1 Bft) O 90 ° 0 min 0,000 mm 3,0 UV-I 526 W/m² 6,6 °C 17,8 °C 6,4 km/h (2 Bft)
16.10.2018 12:25 17,7 °C 48 % 1017,5 hPa 0,0 mm 2,1 km/h (1 Bft) O 79 ° 0 min 0,000 mm 3,0 UV-I 526 W/m² 6,6 °C 17,7 °C 4,8 km/h (1 Bft)
16.10.2018 12:26 17,6 °C 51 % 1017,6 hPa 0,0 mm 3,6 km/h (1 Bft) O 95 ° 0 min 0,000 mm 3,0 UV-I 526 W/m² 7,3 °C 17,6 °C 6,4 km/h (2 Bft)
16.10.2018 12:27 17,6 °C 48 % 1017,6 hPa 0,0 mm 1,9 km/h (1 Bft) O-SO 111 ° 0 min 0,000 mm 3,0 UV-I 527 W/m² 6,5 °C 17,6 °C 4,8 km/h (1 Bft)
16.10.2018 12:28 17,6 °C 51 % 1017,6 hPa 0,0 mm 7,2 km/h (2 Bft) O 87 ° 0 min 0,000 mm 3,0 UV-I 524 W/m² 7,3 °C 17,6 °C 9,7 km/h (2 Bft)
16.10.2018 12:29 17,5 °C 51 % 1017,5 hPa 0,0 mm 3,8 km/h (1 Bft) O-SO 109 ° 0 min 0,000 mm 3,0 UV-I 524 W/m² 7,3 °C 17,5 °C 6,4 km/h (2 Bft)
16.10.2018 12:30 17,6 °C 50 % 1017,6 hPa 0,0 mm 1,5 km/h (1 Bft) O 82 ° 0 min 0,000 mm 3,0 UV-I 526 W/m² 7,1 °C 17,6 °C 3,2 km/h (1 Bft)
16.10.2018 12:31 17,7 °C 49 % 1017,6 hPa 0,0 mm 3,5 km/h (1 Bft) O-NO 61 ° 0 min 0,000 mm 3,0 UV-I 527 W/m² 6,9 °C 17,7 °C 6,4 km/h (2 Bft)
16.10.2018 12:32 17,8 °C 50 % 1017,6 hPa 0,0 mm 5,8 km/h (2 Bft) O 92 ° 0 min 0,000 mm 3,0 UV-I 529 W/m² 7,2 °C 17,8 °C 8,0 km/h (2 Bft)
16.10.2018 12:33 17,9 °C 47 % 1017,5 hPa 0,0 mm 1,3 km/h (1 Bft) O 95 ° 0 min 0,000 mm 3,0 UV-I 529 W/m² 6,4 °C 17,9 °C 3,2 km/h (1 Bft)
16.10.2018 12:34 17,9 °C 48 % 1017,5 hPa 0,0 mm 3,0 km/h (1 Bft) O-SO 107 ° 0 min 0,000 mm 3,0 UV-I 529 W/m² 6,7 °C 17,9 °C 4,8 km/h (1 Bft)
16.10.2018 12:35 17,9 °C 48 % 1017,5 hPa 0,0 mm 1,5 km/h (1 Bft) O-SO 107 ° 0 min 0,000 mm 3,0 UV-I 529 W/m² 6,7 °C 17,9 °C 3,2 km/h (1 Bft)
16.10.2018 12:36 17,8 °C 50 % 1017,5 hPa 0,0 mm 1,6 km/h (1 Bft) O-SO 108 ° 0 min 0,000 mm 3,0 UV-I 529 W/m² 7,2 °C 17,8 °C 4,8 km/h (1 Bft)
16.10.2018 12:37 17,6 °C 48 % 1017,5 hPa 0,0 mm 0,6 km/h (0 Bft) O-NO 57 ° 0 min 0,000 mm 3,0 UV-I 529 W/m² 6,5 °C 17,6 °C 1,6 km/h (1 Bft)
16.10.2018 12:38 17,6 °C 49 % 1017,5 hPa 0,0 mm 3,2 km/h (1 Bft) O-NO 69 ° 0 min 0,000 mm 3,0 UV-I 533 W/m² 6,8 °C 17,6 °C 6,4 km/h (2 Bft)
16.10.2018 12:39 17,7 °C 50 % 1017,5 hPa 0,0 mm 5,1 km/h (1 Bft) NO 51 ° 0 min 0,000 mm 3,1 UV-I 531 W/m² 7,1 °C 17,7 °C 9,7 km/h (2 Bft)
16.10.2018 12:40 17,7 °C 50 % 1017,5 hPa 0,0 mm 3,2 km/h (1 Bft) O-SO 121 ° 0 min 0,000 mm 3,0 UV-I 531 W/m² 7,1 °C 17,7 °C 6,4 km/h (2 Bft)
16.10.2018 12:41 17,8 °C 48 % 1017,5 hPa 0,0 mm 0,1 km/h (0 Bft) O 88 ° 0 min 0,000 mm 3,0 UV-I 531 W/m² 6,6 °C 17,8 °C 3,2 km/h (1 Bft)
16.10.2018 12:42 17,7 °C 52 % 1017,5 hPa 0,0 mm 3,6 km/h (1 Bft) O-NO 62 ° 0 min 0,000 mm 3,0 UV-I 531 W/m² 7,7 °C 17,7 °C 6,4 km/h (2 Bft)
16.10.2018 12:43 17,7 °C 51 % 1017,5 hPa 0,0 mm 4,2 km/h (1 Bft) N-NO 33 ° 0 min 0,000 mm 3,0 UV-I 527 W/m² 7,4 °C 17,7 °C 6,4 km/h (2 Bft)
16.10.2018 12:44 17,6 °C 51 % 1017,5 hPa 0,0 mm 4,9 km/h (1 Bft) O 90 ° 0 min 0,000 mm 3,1 UV-I 533 W/m² 7,3 °C 17,6 °C 9,7 km/h (2 Bft)
16.10.2018 12:45 17,7 °C 50 % 1017,5 hPa 0,0 mm 2,1 km/h (1 Bft) NO 41 ° 0 min 0,000 mm 3,1 UV-I 533 W/m² 7,1 °C 17,7 °C 4,8 km/h (1 Bft)
16.10.2018 12:46 17,7 °C 52 % 1017,5 hPa 0,0 mm 3,4 km/h (1 Bft) O-NO 65 ° 0 min 0,000 mm 3,1 UV-I 533 W/m² 7,7 °C 17,7 °C 8,0 km/h (2 Bft)
16.10.2018 12:47 17,8 °C 51 % 1017,5 hPa 0,0 mm 2,8 km/h (1 Bft) NO 56 ° 0 min 0,000 mm 3,1 UV-I 534 W/m² 7,5 °C 17,8 °C 4,8 km/h (1 Bft)
16.10.2018 12:48 17,9 °C 49 % 1017,5 hPa 0,0 mm 3,9 km/h (1 Bft) O 97 ° 0 min 0,000 mm 3,1 UV-I 533 W/m² 7,0 °C 17,9 °C 8,0 km/h (2 Bft)
16.10.2018 12:49 18,1 °C 48 % 1017,5 hPa 0,0 mm 6,2 km/h (2 Bft) O-NO 62 ° 0 min 0,000 mm 3,1 UV-I 533 W/m² 6,9 °C 18,1 °C 11,3 km/h (2 Bft)
16.10.2018 12:50 18,2 °C 45 % 1017,4 hPa 0,0 mm 5,8 km/h (2 Bft) N 360 ° 0 min 0,000 mm 3,1 UV-I 531 W/m² 6,1 °C 18,2 °C 9,7 km/h (2 Bft)
16.10.2018 12:51 18,4 °C 47 % 1017,4 hPa 0,0 mm 3,7 km/h (1 Bft) N-NO 29 ° 0 min 0,000 mm 3,0 UV-I 531 W/m² 6,9 °C 18,4 °C 8,0 km/h (2 Bft)
16.10.2018 12:52 18,4 °C 47 % 1017,4 hPa 0,0 mm 5,8 km/h (2 Bft) O-NO 59 ° 0 min 0,000 mm 3,0 UV-I 531 W/m² 6,9 °C 18,4 °C 12,9 km/h (3 Bft)
16.10.2018 12:53 18,2 °C 46 % 1017,4 hPa 0,0 mm 3,2 km/h (1 Bft) O-NO 63 ° 0 min 0,000 mm 3,1 UV-I 533 W/m² 6,4 °C 18,2 °C 9,7 km/h (2 Bft)
16.10.2018 12:54 18,1 °C 45 % 1017,4 hPa 0,0 mm 1,8 km/h (1 Bft) O-SO 107 ° 0 min 0,000 mm 3,1 UV-I 534 W/m² 6,0 °C 18,1 °C 3,2 km/h (1 Bft)
16.10.2018 12:55 18,1 °C 47 % 1017,4 hPa 0,0 mm 1,0 km/h (0 Bft) O-SO 108 ° 0 min 0,000 mm 3,1 UV-I 534 W/m² 6,6 °C 18,1 °C 3,2 km/h (1 Bft)
16.10.2018 12:56 18,1 °C 47 % 1017,4 hPa 0,0 mm 1,0 km/h (0 Bft) O-SO 108 ° 0 min 0,000 mm 3,1 UV-I 534 W/m² 6,6 °C 18,1 °C 3,2 km/h (1 Bft)
16.10.2018 12:57 18,1 °C 46 % 1017,5 hPa 0,0 mm 0,9 km/h (0 Bft) O-SO 107 ° 0 min 0,000 mm 3,0 UV-I 533 W/m² 6,3 °C 18,1 °C 3,2 km/h (1 Bft)
16.10.2018 12:58 18,1 °C 47 % 1017,4 hPa 0,0 mm 1,3 km/h (1 Bft) SO 142 ° 0 min 0,000 mm 3,0 UV-I 533 W/m² 6,6 °C 18,1 °C 3,2 km/h (1 Bft)
16.10.2018 12:59 18,2 °C 46 % 1017,4 hPa 0,0 mm 0,4 km/h (0 Bft) O-SO 113 ° 0 min 0,000 mm 3,1 UV-I 534 W/m² 6,4 °C 18,2 °C 3,2 km/h (1 Bft)
16.10.2018 13:00 18,2 °C 49 % 1017,4 hPa 0,0 mm 3,6 km/h (1 Bft) O-NO 70 ° 0 min 0,000 mm 3,0 UV-I 526 W/m² 7,3 °C 18,2 °C 6,4 km/h (2 Bft)
16.10.2018 13:01 17,8 °C 48 % 1017,4 hPa 0,0 mm 3,6 km/h (1 Bft) O 89 ° 0 min 0,304 mm 3,0 UV-I 520 W/m² 6,6 °C 17,8 °C 8,0 km/h (2 Bft)
16.10.2018 13:02 17,7 °C 48 % 1017,4 hPa 0,0 mm 1,4 km/h (1 Bft) O 89 ° 0 min 0,000 mm 3,0 UV-I 529 W/m² 6,6 °C 17,7 °C 3,2 km/h (1 Bft)
16.10.2018 13:03 17,8 °C 48 % 1017,4 hPa 0,0 mm 2,9 km/h (1 Bft) O-NO 69 ° 0 min 0,000 mm 3,1 UV-I 534 W/m² 6,6 °C 17,8 °C 4,8 km/h (1 Bft)
16.10.2018 13:04 17,8 °C 51 % 1017,4 hPa 0,0 mm 1,3 km/h (1 Bft) O-NO 69 ° 0 min 0,000 mm 3,1 UV-I 538 W/m² 7,5 °C 17,8 °C 3,2 km/h (1 Bft)
16.10.2018 13:05 17,8 °C 49 % 1017,4 hPa 0,0 mm 2,0 km/h (1 Bft) O-NO 69 ° 0 min 0,000 mm 3,1 UV-I 540 W/m² 6,9 °C 17,8 °C 4,8 km/h (1 Bft)
16.10.2018 13:06 17,7 °C 48 % 1017,4 hPa 0,0 mm 1,5 km/h (1 Bft) O-NO 67 ° 0 min 0,000 mm 3,1 UV-I 538 W/m² 6,6 °C 17,7 °C 3,2 km/h (1 Bft)
16.10.2018 13:07 17,8 °C 49 % 1017,4 hPa 0,0 mm 3,0 km/h (1 Bft) NO 42 ° 0 min 0,000 mm 3,1 UV-I 536 W/m² 6,9 °C 17,8 °C 4,8 km/h (1 Bft)
16.10.2018 13:08 17,9 °C 52 % 1017,4 hPa 0,0 mm 4,0 km/h (1 Bft) O-NO 62 ° 0 min 0,000 mm 3,1 UV-I 536 W/m² 7,9 °C 17,9 °C 8,0 km/h (2 Bft)
16.10.2018 13:09 17,9 °C 48 % 1017,4 hPa 0,0 mm 0,5 km/h (0 Bft) O-NO 62 ° 0 min 0,000 mm 3,1 UV-I 538 W/m² 6,7 °C 17,9 °C 1,6 km/h (1 Bft)
16.10.2018 13:10 18,0 °C 47 % 1017,4 hPa 0,0 mm 0,0 km/h (0 Bft) O-NO 62 ° 0 min 0,000 mm 3,1 UV-I 540 W/m² 6,5 °C 18,0 °C 0,0 km/h (0 Bft)
16.10.2018 13:11 17,9 °C 47 % 1017,4 hPa 0,0 mm 3,5 km/h (1 Bft) O-NO 66 ° 0 min 0,000 mm 3,1 UV-I 540 W/m² 6,4 °C 17,9 °C 6,4 km/h (2 Bft)
16.10.2018 13:12 18,1 °C 49 % 1017,4 hPa 0,0 mm 4,4 km/h (1 Bft) O-NO 57 ° 0 min 0,000 mm 3,1 UV-I 538 W/m² 7,2 °C 18,1 °C 6,4 km/h (2 Bft)
16.10.2018 13:13 18,0 °C 47 % 1017,4 hPa 0,0 mm 1,2 km/h (1 Bft) O-NO 57 ° 0 min 0,000 mm 3,1 UV-I 536 W/m² 6,5 °C 18,0 °C 3,2 km/h (1 Bft)
16.10.2018 13:14 18,0 °C 47 % 1017,3 hPa 0,0 mm 6,2 km/h (2 Bft) O-NO 69 ° 0 min 0,000 mm 3,1 UV-I 536 W/m² 6,5 °C 18,0 °C 11,3 km/h (2 Bft)
16.10.2018 13:15 18,0 °C 51 % 1017,4 hPa 0,0 mm 6,4 km/h (2 Bft) NO 37 ° 0 min 0,000 mm 3,1 UV-I 538 W/m² 7,7 °C 18,0 °C 9,7 km/h (2 Bft)
16.10.2018 13:16 17,9 °C 46 % 1017,4 hPa 0,0 mm 4,0 km/h (1 Bft) N-NO 33 ° 0 min 0,000 mm 3,1 UV-I 538 W/m² 6,1 °C 17,9 °C 6,4 km/h (2 Bft)
16.10.2018 13:17 18,1 °C 45 % 1017,4 hPa 0,0 mm 4,2 km/h (1 Bft) N-NO 25 ° 0 min 0,000 mm 3,1 UV-I 538 W/m² 6,0 °C 18,1 °C 8,0 km/h (2 Bft)
16.10.2018 13:18 18,3 °C 45 % 1017,4 hPa 0,0 mm 3,6 km/h (1 Bft) NO 52 ° 0 min 0,000 mm 3,0 UV-I 536 W/m² 6,2 °C 18,3 °C 9,7 km/h (2 Bft)
16.10.2018 13:19 18,3 °C 46 % 1017,4 hPa 0,0 mm 3,0 km/h (1 Bft) N 5 ° 0 min 0,000 mm 3,0 UV-I 524 W/m² 6,5 °C 18,3 °C 4,8 km/h (1 Bft)
16.10.2018 13:20 18,3 °C 46 % 1017,3 hPa 0,0 mm 1,5 km/h (1 Bft) N 5 ° 0 min 0,000 mm 3,0 UV-I 527 W/m² 6,5 °C 18,3 °C 4,8 km/h (1 Bft)
16.10.2018 13:21 18,2 °C 49 % 1017,4 hPa 0,0 mm 1,1 km/h (1 Bft) NO 40 ° 0 min 0,000 mm 3,0 UV-I 533 W/m² 7,3 °C 18,2 °C 3,2 km/h (1 Bft)
16.10.2018 13:22 18,2 °C 45 % 1017,4 hPa 0,0 mm 3,7 km/h (1 Bft) O 96 ° 0 min 0,000 mm 3,1 UV-I 536 W/m² 6,1 °C 18,2 °C 6,4 km/h (2 Bft)
16.10.2018 13:23 18,1 °C 48 % 1017,3 hPa 0,0 mm 3,6 km/h (1 Bft) N-NO 24 ° 0 min 0,000 mm 3,1 UV-I 536 W/m² 6,9 °C 18,1 °C 6,4 km/h (2 Bft)
16.10.2018 13:24 18,1 °C 47 % 1017,3 hPa 0,0 mm 5,4 km/h (1 Bft) O-NO 71 ° 0 min 0,000 mm 3,1 UV-I 534 W/m² 6,6 °C 18,1 °C 12,9 km/h (3 Bft)
16.10.2018 13:25 18,0 °C 47 % 1017,3 hPa 0,0 mm 5,0 km/h (1 Bft) S-SO 163 ° 0 min 0,000 mm 3,0 UV-I 534 W/m² 6,5 °C 18,0 °C 8,0 km/h (2 Bft)
16.10.2018 13:26 17,9 °C 47 % 1017,3 hPa 0,0 mm 3,6 km/h (1 Bft) SO 138 ° 0 min 0,000 mm 3,0 UV-I 533 W/m² 6,4 °C 17,9 °C 6,4 km/h (2 Bft)
16.10.2018 13:27 17,9 °C 44 % 1017,3 hPa 0,0 mm 0,9 km/h (0 Bft) O-SO 121 ° 0 min 0,000 mm 3,0 UV-I 533 W/m² 5,5 °C 17,9 °C 1,6 km/h (1 Bft)
16.10.2018 13:28 18,0 °C 45 % 1017,3 hPa 0,0 mm 0,7 km/h (0 Bft) O-SO 121 ° 0 min 0,000 mm 3,0 UV-I 533 W/m² 5,9 °C 18,0 °C 1,6 km/h (1 Bft)
16.10.2018 13:29 18,1 °C 45 % 1017,3 hPa 0,0 mm 0,3 km/h (0 Bft) O-SO 120 ° 0 min 0,000 mm 3,0 UV-I 531 W/m² 6,0 °C 18,1 °C 1,6 km/h (1 Bft)
16.10.2018 13:30 18,1 °C 45 % 1017,3 hPa 0,0 mm 2,5 km/h (1 Bft) O 90 ° 0 min 0,000 mm 3,0 UV-I 529 W/m² 6,0 °C 18,1 °C 4,8 km/h (1 Bft)
16.10.2018 13:31 18,1 °C 46 % 1017,3 hPa 0,0 mm 3,8 km/h (1 Bft) O-NO 66 ° 0 min 0,000 mm 3,0 UV-I 527 W/m² 6,3 °C 18,1 °C 6,4 km/h (2 Bft)
16.10.2018 13:32 18,1 °C 46 % 1017,3 hPa 0,0 mm 4,1 km/h (1 Bft) N-NO 24 ° 0 min 0,000 mm 3,0 UV-I 527 W/m² 6,3 °C 18,1 °C 6,4 km/h (2 Bft)
16.10.2018 13:33 18,3 °C 45 % 1017,3 hPa 0,0 mm 5,8 km/h (2 Bft) N-NO 12 ° 0 min 0,000 mm 3,0 UV-I 526 W/m² 6,2 °C 18,3 °C 11,3 km/h (2 Bft)
16.10.2018 13:34 18,4 °C 44 % 1017,3 hPa 0,0 mm 8,5 km/h (2 Bft) N 5 ° 0 min 0,000 mm 3,0 UV-I 527 W/m² 5,9 °C 18,4 °C 14,5 km/h (3 Bft)
16.10.2018 13:35 18,6 °C 46 % 1017,3 hPa 0,0 mm 5,9 km/h (2 Bft) N 11 ° 0 min 0,000 mm 3,0 UV-I 527 W/m² 6,8 °C 18,6 °C 11,3 km/h (2 Bft)
16.10.2018 13:36 18,6 °C 44 % 1017,3 hPa 0,0 mm 4,2 km/h (1 Bft) N 355 ° 0 min 0,000 mm 3,0 UV-I 527 W/m² 6,1 °C 18,6 °C 9,7 km/h (2 Bft)
16.10.2018 13:37 18,6 °C 45 % 1017,3 hPa 0,0 mm 3,0 km/h (1 Bft) N-NO 17 ° 0 min 0,000 mm 3,0 UV-I 526 W/m² 6,4 °C 18,6 °C 4,8 km/h (1 Bft)
16.10.2018 13:38 18,4 °C 46 % 1017,3 hPa 0,0 mm 0,0 km/h (0 Bft) N-NO 17 ° 0 min 0,000 mm 3,0 UV-I 524 W/m² 6,6 °C 18,4 °C 0,0 km/h (0 Bft)
16.10.2018 13:39 18,3 °C 46 % 1017,3 hPa 0,0 mm 0,3 km/h (0 Bft) N-NO 17 ° 0 min 0,000 mm 3,0 UV-I 524 W/m² 6,5 °C 18,3 °C 3,2 km/h (1 Bft)
16.10.2018 13:40 18,3 °C 47 % 1017,2 hPa 0,0 mm 2,8 km/h (1 Bft) O-NO 57 ° 0 min 0,000 mm 2,9 UV-I 524 W/m² 6,8 °C 18,3 °C 4,8 km/h (1 Bft)
16.10.2018 13:41 18,2 °C 48 % 1017,3 hPa 0,0 mm 3,2 km/h (1 Bft) N-NO 13 ° 0 min 0,000 mm 3,0 UV-I 524 W/m² 7,0 °C 18,2 °C 4,8 km/h (1 Bft)
16.10.2018 13:42 18,1 °C 51 % 1017,2 hPa 0,0 mm 2,6 km/h (1 Bft) NO 37 ° 0 min 0,000 mm 3,0 UV-I 522 W/m² 7,8 °C 18,1 °C 4,8 km/h (1 Bft)
16.10.2018 13:43 17,9 °C 48 % 1017,2 hPa 0,0 mm 1,8 km/h (1 Bft) NO 37 ° 0 min 0,000 mm 2,9 UV-I 522 W/m² 6,7 °C 17,9 °C 3,2 km/h (1 Bft)
16.10.2018 13:44 17,9 °C 47 % 1017,3 hPa 0,0 mm 3,5 km/h (1 Bft) O-NO 57 ° 0 min 0,000 mm 2,9 UV-I 520 W/m² 6,4 °C 17,9 °C 6,4 km/h (2 Bft)
16.10.2018 13:45 18,1 °C 50 % 1017,2 hPa 0,0 mm 2,8 km/h (1 Bft) O 89 ° 0 min 0,000 mm 2,9 UV-I 522 W/m² 7,5 °C 18,1 °C 6,4 km/h (2 Bft)
16.10.2018 13:46 18,2 °C 47 % 1017,2 hPa 0,0 mm 4,4 km/h (1 Bft) O 86 ° 0 min 0,000 mm 2,9 UV-I 522 W/m² 6,7 °C 18,2 °C 6,4 km/h (2 Bft)
16.10.2018 13:47 18,3 °C 48 % 1017,2 hPa 0,0 mm 1,9 km/h (1 Bft) O 82 ° 0 min 0,000 mm 2,9 UV-I 520 W/m² 7,1 °C 18,3 °C 6,4 km/h (2 Bft)
16.10.2018 13:48 18,3 °C 48 % 1017,3 hPa 0,0 mm 1,4 km/h (1 Bft) O 82 ° 0 min 0,000 mm 2,9 UV-I 520 W/m² 7,1 °C 18,3 °C 3,2 km/h (1 Bft)
16.10.2018 13:49 18,3 °C 45 % 1017,3 hPa 0,0 mm 0,1 km/h (0 Bft) O 82 ° 0 min 0,000 mm 2,9 UV-I 519 W/m² 6,2 °C 18,3 °C 1,6 km/h (1 Bft)
16.10.2018 13:50 18,4 °C 46 % 1017,3 hPa 0,0 mm 2,9 km/h (1 Bft) O-NO 67 ° 0 min 0,000 mm 2,9 UV-I 520 W/m² 6,6 °C 18,4 °C 6,4 km/h (2 Bft)
16.10.2018 13:51 18,5 °C 46 % 1017,3 hPa 0,0 mm 2,7 km/h (1 Bft) O-NO 74 ° 0 min 0,000 mm 2,9 UV-I 520 W/m² 6,7 °C 18,5 °C 4,8 km/h (1 Bft)
16.10.2018 13:52 18,3 °C 49 % 1017,3 hPa 0,0 mm 3,9 km/h (1 Bft) O 91 ° 0 min 0,000 mm 2,9 UV-I 517 W/m² 7,4 °C 18,3 °C 9,7 km/h (2 Bft)
16.10.2018 13:53 18,1 °C 46 % 1017,3 hPa 0,0 mm 4,0 km/h (1 Bft) O 84 ° 0 min 0,000 mm 2,9 UV-I 519 W/m² 6,3 °C 18,1 °C 6,4 km/h (2 Bft)
16.10.2018 13:54 18,2 °C 45 % 1017,3 hPa 0,0 mm 1,5 km/h (1 Bft) O 84 ° 0 min 0,000 mm 2,9 UV-I 519 W/m² 6,1 °C 18,2 °C 3,2 km/h (1 Bft)
16.10.2018 13:55 18,2 °C 46 % 1017,3 hPa 0,0 mm 4,6 km/h (1 Bft) NO 38 ° 0 min 0,000 mm 2,9 UV-I 517 W/m² 6,4 °C 18,2 °C 8,0 km/h (2 Bft)
16.10.2018 13:56 18,2 °C 46 % 1017,3 hPa 0,0 mm 3,6 km/h (1 Bft) NO 49 ° 0 min 0,000 mm 2,9 UV-I 517 W/m² 6,4 °C 18,2 °C 4,8 km/h (1 Bft)
16.10.2018 13:57 18,3 °C 45 % 1017,3 hPa 0,0 mm 3,6 km/h (1 Bft) O 79 ° 0 min 0,000 mm 2,9 UV-I 515 W/m² 6,2 °C 18,3 °C 6,4 km/h (2 Bft)
16.10.2018 13:58 18,5 °C 44 % 1017,3 hPa 0,0 mm 2,2 km/h (1 Bft) NO 44 ° 0 min 0,000 mm 2,9 UV-I 515 W/m² 6,0 °C 18,5 °C 4,8 km/h (1 Bft)
16.10.2018 13:59 18,6 °C 45 % 1017,2 hPa 0,0 mm 1,3 km/h (1 Bft) NO 44 ° 0 min 0,000 mm 2,9 UV-I 517 W/m² 6,4 °C 18,6 °C 3,2 km/h (1 Bft)
16.10.2018 14:00 18,6 °C 46 % 1017,3 hPa 0,0 mm 9,3 km/h (2 Bft) O 89 ° 0 min 0,000 mm 2,9 UV-I 515 W/m² 6,8 °C 18,6 °C 14,5 km/h (3 Bft)
16.10.2018 14:01 18,5 °C 45 % 1017,3 hPa 0,0 mm 6,0 km/h (2 Bft) O-NO 59 ° 0 min 0,331 mm 2,8 UV-I 513 W/m² 6,3 °C 18,5 °C 11,3 km/h (2 Bft)
16.10.2018 14:02 18,5 °C 46 % 1017,2 hPa 0,0 mm 2,2 km/h (1 Bft) O-NO 59 ° 0 min 0,000 mm 2,8 UV-I 512 W/m² 6,7 °C 18,5 °C 4,8 km/h (1 Bft)
16.10.2018 14:03 18,7 °C 45 % 1017,2 hPa 0,0 mm 2,7 km/h (1 Bft) O-NO 59 ° 0 min 0,000 mm 2,8 UV-I 512 W/m² 6,5 °C 18,7 °C 4,8 km/h (1 Bft)
16.10.2018 14:04 18,7 °C 46 % 1017,2 hPa 0,0 mm 1,3 km/h (1 Bft) O-NO 59 ° 0 min 0,000 mm 2,8 UV-I 512 W/m² 6,8 °C 18,7 °C 3,2 km/h (1 Bft)
16.10.2018 14:05 18,6 °C 48 % 1017,2 hPa 0,0 mm 0,0 km/h (0 Bft) O-NO 59 ° 0 min 0,000 mm 2,8 UV-I 512 W/m² 7,4 °C 18,6 °C 0,0 km/h (0 Bft)
16.10.2018 14:06 18,6 °C 46 % 1017,2 hPa 0,0 mm 0,3 km/h (0 Bft) O-NO 73 ° 0 min 0,000 mm 2,8 UV-I 510 W/m² 6,8 °C 18,6 °C 3,2 km/h (1 Bft)
16.10.2018 14:07 18,5 °C 46 % 1017,3 hPa 0,0 mm 5,0 km/h (1 Bft) O 91 ° 0 min 0,000 mm 2,8 UV-I 508 W/m² 6,7 °C 18,5 °C 8,0 km/h (2 Bft)
16.10.2018 14:08 18,6 °C 47 % 1017,3 hPa 0,0 mm 3,4 km/h (1 Bft) O 94 ° 0 min 0,000 mm 2,8 UV-I 506 W/m² 7,1 °C 18,6 °C 4,8 km/h (1 Bft)
16.10.2018 14:09 18,5 °C 47 % 1017,3 hPa 0,0 mm 3,0 km/h (1 Bft) N-NO 32 ° 0 min 0,000 mm 2,8 UV-I 506 W/m² 7,0 °C 18,5 °C 4,8 km/h (1 Bft)
16.10.2018 14:10 18,5 °C 46 % 1017,2 hPa 0,0 mm 0,8 km/h (0 Bft) N-NO 32 ° 0 min 0,000 mm 2,8 UV-I 504 W/m² 6,7 °C 18,5 °C 3,2 km/h (1 Bft)
16.10.2018 14:11 18,4 °C 44 % 1017,2 hPa 0,0 mm 1,3 km/h (1 Bft) NO 55 ° 0 min 0,000 mm 2,8 UV-I 504 W/m² 5,9 °C 18,4 °C 3,2 km/h (1 Bft)
16.10.2018 14:12 18,4 °C 47 % 1017,2 hPa 0,0 mm 0,4 km/h (0 Bft) NO 55 ° 0 min 0,000 mm 2,8 UV-I 501 W/m² 6,9 °C 18,4 °C 1,6 km/h (1 Bft)
16.10.2018 14:13 18,4 °C 48 % 1017,2 hPa 0,0 mm 1,1 km/h (1 Bft) NO 55 ° 0 min 0,000 mm 2,7 UV-I 501 W/m² 7,2 °C 18,4 °C 3,2 km/h (1 Bft)
16.10.2018 14:14 18,3 °C 48 % 1017,2 hPa 0,0 mm 5,7 km/h (1 Bft) NO 52 ° 0 min 0,000 mm 2,7 UV-I 497 W/m² 7,1 °C 18,3 °C 9,7 km/h (2 Bft)
16.10.2018 14:15 18,2 °C 46 % 1017,2 hPa 0,0 mm 3,6 km/h (1 Bft) NO 52 ° 0 min 0,000 mm 2,7 UV-I 499 W/m² 6,4 °C 18,2 °C 6,4 km/h (2 Bft)
16.10.2018 14:16 18,2 °C 49 % 1017,2 hPa 0,0 mm 3,5 km/h (1 Bft) O-NO 73 ° 0 min 0,000 mm 2,7 UV-I 497 W/m² 7,3 °C 18,2 °C 8,0 km/h (2 Bft)
16.10.2018 14:17 18,3 °C 46 % 1017,2 hPa 0,0 mm 4,7 km/h (1 Bft) O-NO 76 ° 0 min 0,000 mm 2,7 UV-I 494 W/m² 6,5 °C 18,3 °C 6,4 km/h (2 Bft)
16.10.2018 14:18 18,4 °C 45 % 1017,2 hPa 0,0 mm 3,7 km/h (1 Bft) O-SO 117 ° 0 min 0,000 mm 2,7 UV-I 487 W/m² 6,3 °C 18,4 °C 6,4 km/h (2 Bft)
16.10.2018 14:19 18,4 °C 45 % 1017,2 hPa 0,0 mm 2,7 km/h (1 Bft) O-SO 117 ° 0 min 0,000 mm 2,7 UV-I 487 W/m² 6,3 °C 18,4 °C 4,8 km/h (1 Bft)
16.10.2018 14:20 18,4 °C 46 % 1017,2 hPa 0,0 mm 0,5 km/h (0 Bft) O-SO 117 ° 0 min 0,000 mm 2,7 UV-I 480 W/m² 6,6 °C 18,4 °C 1,6 km/h (1 Bft)
16.10.2018 14:21 18,4 °C 46 % 1017,2 hPa 0,0 mm 0,2 km/h (0 Bft) O-SO 117 ° 0 min 0,000 mm 2,6 UV-I 490 W/m² 6,6 °C 18,4 °C 1,6 km/h (1 Bft)
16.10.2018 14:22 18,4 °C 47 % 1017,2 hPa 0,0 mm 3,4 km/h (1 Bft) O-NO 64 ° 0 min 0,000 mm 2,7 UV-I 485 W/m² 6,9 °C 18,4 °C 6,4 km/h (2 Bft)
16.10.2018 14:23 18,5 °C 46 % 1017,2 hPa 0,0 mm 4,4 km/h (1 Bft) NO 44 ° 0 min 0,000 mm 2,6 UV-I 490 W/m² 6,7 °C 18,5 °C 6,4 km/h (2 Bft)
16.10.2018 14:24 18,6 °C 46 % 1017,2 hPa 0,0 mm 4,8 km/h (1 Bft) O 84 ° 0 min 0,000 mm 2,7 UV-I 487 W/m² 6,8 °C 18,6 °C 6,4 km/h (2 Bft)
16.10.2018 14:25 18,7 °C 48 % 1017,2 hPa 0,0 mm 6,2 km/h (2 Bft) O-NO 62 ° 0 min 0,000 mm 2,6 UV-I 487 W/m² 7,5 °C 18,7 °C 9,7 km/h (2 Bft)
16.10.2018 14:26 18,7 °C 50 % 1017,2 hPa 0,0 mm 3,8 km/h (1 Bft) O-NO 78 ° 0 min 0,000 mm 2,6 UV-I 478 W/m² 8,1 °C 18,7 °C 6,4 km/h (2 Bft)
16.10.2018 14:27 18,6 °C 46 % 1017,2 hPa 0,0 mm 0,8 km/h (0 Bft) O-NO 73 ° 0 min 0,000 mm 2,6 UV-I 483 W/m² 6,8 °C 18,6 °C 3,2 km/h (1 Bft)
16.10.2018 14:28 18,7 °C 46 % 1017,2 hPa 0,0 mm 2,5 km/h (1 Bft) O 92 ° 0 min 0,000 mm 2,6 UV-I 485 W/m² 6,8 °C 18,7 °C 9,7 km/h (2 Bft)
16.10.2018 14:29 18,6 °C 45 % 1017,2 hPa 0,0 mm 1,8 km/h (1 Bft) O 101 ° 0 min 0,000 mm 2,6 UV-I 487 W/m² 6,4 °C 18,6 °C 6,4 km/h (2 Bft)
16.10.2018 14:30 18,6 °C 46 % 1017,2 hPa 0,0 mm 2,5 km/h (1 Bft) O-NO 66 ° 0 min 0,000 mm 2,6 UV-I 483 W/m² 6,8 °C 18,6 °C 3,2 km/h (1 Bft)
16.10.2018 14:31 18,5 °C 47 % 1017,1 hPa 0,0 mm 0,9 km/h (0 Bft) SO 126 ° 0 min 0,000 mm 2,6 UV-I 483 W/m² 7,0 °C 18,5 °C 1,6 km/h (1 Bft)
16.10.2018 14:32 18,4 °C 47 % 1017,2 hPa 0,0 mm 0,0 km/h (0 Bft) SO 126 ° 0 min 0,000 mm 2,6 UV-I 482 W/m² 6,9 °C 18,4 °C 0,0 km/h (0 Bft)
16.10.2018 14:33 18,4 °C 46 % 1017,1 hPa 0,0 mm 2,5 km/h (1 Bft) NO 40 ° 0 min 0,000 mm 2,6 UV-I 483 W/m² 6,6 °C 18,4 °C 6,4 km/h (2 Bft)
16.10.2018 14:34 18,5 °C 45 % 1017,1 hPa 0,0 mm 1,1 km/h (1 Bft) O-SO 110 ° 0 min 0,000 mm 2,6 UV-I 482 W/m² 6,3 °C 18,5 °C 3,2 km/h (1 Bft)
16.10.2018 14:35 18,6 °C 46 % 1017,1 hPa 0,0 mm 2,3 km/h (1 Bft) O 90 ° 0 min 0,000 mm 2,6 UV-I 476 W/m² 6,8 °C 18,6 °C 6,4 km/h (2 Bft)
16.10.2018 14:36 18,6 °C 45 % 1017,1 hPa 0,0 mm 3,4 km/h (1 Bft) O-SO 107 ° 0 min 0,000 mm 2,5 UV-I 475 W/m² 6,4 °C 18,6 °C 6,4 km/h (2 Bft)
16.10.2018 14:37 18,7 °C 48 % 1017,0 hPa 0,0 mm 1,4 km/h (1 Bft) O-SO 107 ° 0 min 0,000 mm 2,5 UV-I 473 W/m² 7,5 °C 18,7 °C 3,2 km/h (1 Bft)
16.10.2018 14:38 18,7 °C 46 % 1017,0 hPa 0,0 mm 2,8 km/h (1 Bft) S-SO 160 ° 0 min 0,000 mm 2,5 UV-I 473 W/m² 6,8 °C 18,7 °C 9,7 km/h (2 Bft)
16.10.2018 14:39 18,6 °C 46 % 1017,1 hPa 0,0 mm 4,4 km/h (1 Bft) O-SO 113 ° 0 min 0,000 mm 2,5 UV-I 471 W/m² 6,8 °C 18,6 °C 6,4 km/h (2 Bft)
16.10.2018 14:40 18,6 °C 45 % 1017,1 hPa 0,0 mm 5,7 km/h (1 Bft) O-NO 77 ° 0 min 0,000 mm 2,5 UV-I 468 W/m² 6,4 °C 18,6 °C 8,0 km/h (2 Bft)
16.10.2018 14:41 18,7 °C 48 % 1017,1 hPa 0,0 mm 5,2 km/h (1 Bft) O 99 ° 0 min 0,000 mm 2,5 UV-I 464 W/m² 7,5 °C 18,7 °C 9,7 km/h (2 Bft)
16.10.2018 14:42 18,7 °C 46 % 1017,0 hPa 0,0 mm 6,2 km/h (2 Bft) NO 51 ° 0 min 0,000 mm 2,4 UV-I 462 W/m² 6,8 °C 18,7 °C 8,0 km/h (2 Bft)
16.10.2018 14:43 18,7 °C 48 % 1017,0 hPa 0,0 mm 6,2 km/h (2 Bft) NO 41 ° 0 min 0,000 mm 2,4 UV-I 462 W/m² 7,5 °C 18,7 °C 9,7 km/h (2 Bft)
16.10.2018 14:44 18,8 °C 49 % 1017,0 hPa 0,0 mm 4,7 km/h (1 Bft) N 5 ° 0 min 0,000 mm 2,4 UV-I 461 W/m² 7,9 °C 18,8 °C 6,4 km/h (2 Bft)
16.10.2018 14:45 18,9 °C 48 % 1017,0 hPa 0,0 mm 4,0 km/h (1 Bft) O-NO 72 ° 0 min 0,000 mm 2,4 UV-I 459 W/m² 7,6 °C 18,9 °C 6,4 km/h (2 Bft)
16.10.2018 14:46 18,9 °C 46 % 1017,0 hPa 0,0 mm 2,5 km/h (1 Bft) N-NO 29 ° 0 min 0,000 mm 2,4 UV-I 459 W/m² 7,0 °C 18,9 °C 6,4 km/h (2 Bft)
16.10.2018 14:47 18,8 °C 45 % 1017,0 hPa 0,0 mm 4,9 km/h (1 Bft) O-NO 71 ° 0 min 0,000 mm 2,4 UV-I 459 W/m² 6,6 °C 18,8 °C 6,4 km/h (2 Bft)
16.10.2018 14:48 18,8 °C 46 % 1017,0 hPa 0,0 mm 4,8 km/h (1 Bft) O-NO 78 ° 0 min 0,000 mm 2,4 UV-I 455 W/m² 6,9 °C 18,8 °C 9,7 km/h (2 Bft)
16.10.2018 14:49 18,7 °C 46 % 1017,0 hPa 0,0 mm 5,7 km/h (1 Bft) O 88 ° 0 min 0,000 mm 2,4 UV-I 454 W/m² 6,8 °C 18,7 °C 8,0 km/h (2 Bft)
16.10.2018 14:50 18,7 °C 45 % 1017,0 hPa 0,0 mm 4,5 km/h (1 Bft) N-NO 30 ° 0 min 0,000 mm 2,3 UV-I 452 W/m² 6,5 °C 18,7 °C 6,4 km/h (2 Bft)
16.10.2018 14:51 18,8 °C 45 % 1017,0 hPa 0,0 mm 2,3 km/h (1 Bft) N-NO 33 ° 0 min 0,000 mm 2,3 UV-I 450 W/m² 6,6 °C 18,8 °C 4,8 km/h (1 Bft)
16.10.2018 14:52 18,9 °C 45 % 1017,0 hPa 0,0 mm 5,6 km/h (1 Bft) O-NO 73 ° 0 min 0,000 mm 2,3 UV-I 446 W/m² 6,7 °C 18,9 °C 8,0 km/h (2 Bft)
16.10.2018 14:53 19,1 °C 45 % 1017,0 hPa 0,0 mm 3,6 km/h (1 Bft) N-NW 348 ° 0 min 0,000 mm 2,3 UV-I 448 W/m² 6,9 °C 19,1 °C 6,4 km/h (2 Bft)
16.10.2018 14:54 19,0 °C 47 % 1017,0 hPa 0,0 mm 2,5 km/h (1 Bft) O-NO 61 ° 0 min 0,000 mm 2,3 UV-I 448 W/m² 7,4 °C 19,0 °C 4,8 km/h (1 Bft)
16.10.2018 14:55 18,8 °C 49 % 1017,0 hPa 0,0 mm 3,2 km/h (1 Bft) O-NO 63 ° 0 min 0,000 mm 2,3 UV-I 446 W/m² 7,9 °C 18,8 °C 4,8 km/h (1 Bft)
16.10.2018 14:56 18,8 °C 47 % 1017,0 hPa 0,0 mm 3,7 km/h (1 Bft) O-NO 74 ° 0 min 0,000 mm 2,3 UV-I 445 W/m² 7,2 °C 18,8 °C 8,0 km/h (2 Bft)
16.10.2018 14:57 18,7 °C 49 % 1017,0 hPa 0,0 mm 3,4 km/h (1 Bft) O-NO 65 ° 0 min 0,000 mm 2,3 UV-I 443 W/m² 7,8 °C 18,7 °C 6,4 km/h (2 Bft)
16.10.2018 14:58 18,6 °C 48 % 1017,0 hPa 0,0 mm 5,6 km/h (1 Bft) O-SO 109 ° 0 min 0,000 mm 2,3 UV-I 439 W/m² 7,4 °C 18,6 °C 9,7 km/h (2 Bft)
16.10.2018 14:59 18,6 °C 46 % 1017,0 hPa 0,0 mm 1,6 km/h (1 Bft) O 86 ° 0 min 0,000 mm 2,2 UV-I 438 W/m² 6,8 °C 18,6 °C 3,2 km/h (1 Bft)
16.10.2018 15:00 18,6 °C 46 % 1017,0 hPa 0,0 mm 4,6 km/h (1 Bft) O-NO 76 ° 0 min 0,000 mm 2,2 UV-I 438 W/m² 6,8 °C 18,6 °C 8,0 km/h (2 Bft)
16.10.2018 15:01 18,6 °C 47 % 1016,9 hPa 0,0 mm 3,6 km/h (1 Bft) O 88 ° 0 min 0,304 mm 2,2 UV-I 436 W/m² 7,1 °C 18,6 °C 6,4 km/h (2 Bft)
16.10.2018 15:02 18,6 °C 48 % 1017,0 hPa 0,0 mm 3,3 km/h (1 Bft) NO 42 ° 0 min 0,000 mm 2,2 UV-I 434 W/m² 7,4 °C 18,6 °C 6,4 km/h (2 Bft)
16.10.2018 15:03 18,6 °C 47 % 1016,9 hPa 0,0 mm 2,7 km/h (1 Bft) O 82 ° 0 min 0,000 mm 2,2 UV-I 434 W/m² 7,1 °C 18,6 °C 4,8 km/h (1 Bft)
16.10.2018 15:04 18,5 °C 47 % 1017,0 hPa 0,0 mm 3,6 km/h (1 Bft) O 86 ° 0 min 0,000 mm 2,2 UV-I 431 W/m² 7,0 °C 18,5 °C 4,8 km/h (1 Bft)
16.10.2018 15:05 18,5 °C 47 % 1017,0 hPa 0,0 mm 1,7 km/h (1 Bft) O 86 ° 0 min 0,000 mm 2,2 UV-I 429 W/m² 7,0 °C 18,5 °C 4,8 km/h (1 Bft)
16.10.2018 15:06 18,6 °C 47 % 1016,9 hPa 0,0 mm 0,1 km/h (0 Bft) O 86 ° 0 min 0,000 mm 2,2 UV-I 427 W/m² 7,1 °C 18,6 °C 1,6 km/h (1 Bft)
16.10.2018 15:07 18,6 °C 46 % 1017,0 hPa 0,0 mm 0,0 km/h (0 Bft) O 86 ° 0 min 0,000 mm 2,2 UV-I 425 W/m² 6,8 °C 18,6 °C 0,0 km/h (0 Bft)
16.10.2018 15:08 18,5 °C 46 % 1016,9 hPa 0,0 mm 0,8 km/h (0 Bft) O 86 ° 0 min 0,000 mm 2,1 UV-I 424 W/m² 6,7 °C 18,5 °C 1,6 km/h (1 Bft)
16.10.2018 15:09 18,4 °C 50 % 1016,9 hPa 0,0 mm 1,7 km/h (1 Bft) NO 36 ° 0 min 0,000 mm 2,1 UV-I 413 W/m² 7,8 °C 18,4 °C 4,8 km/h (1 Bft)
16.10.2018 15:10 18,4 °C 46 % 1017,0 hPa 0,0 mm 0,6 km/h (0 Bft) NO 36 ° 0 min 0,000 mm 2,1 UV-I 418 W/m² 6,6 °C 18,4 °C 3,2 km/h (1 Bft)
16.10.2018 15:11 18,5 °C 47 % 1017,0 hPa 0,0 mm 2,6 km/h (1 Bft) O-NO 67 ° 0 min 0,000 mm 2,1 UV-I 418 W/m² 7,0 °C 18,5 °C 6,4 km/h (2 Bft)
16.10.2018 15:12 18,6 °C 47 % 1017,0 hPa 0,0 mm 4,0 km/h (1 Bft) O-NO 67 ° 0 min 0,000 mm 2,1 UV-I 415 W/m² 7,1 °C 18,6 °C 4,8 km/h (1 Bft)
16.10.2018 15:13 18,7 °C 44 % 1017,0 hPa 0,0 mm 4,6 km/h (1 Bft) NO 39 ° 0 min 0,000 mm 2,1 UV-I 415 W/m² 6,2 °C 18,7 °C 11,3 km/h (2 Bft)
16.10.2018 15:14 18,8 °C 45 % 1016,9 hPa 0,0 mm 5,8 km/h (2 Bft) O-NO 64 ° 0 min 0,000 mm 2,1 UV-I 413 W/m² 6,6 °C 18,8 °C 11,3 km/h (2 Bft)
16.10.2018 15:15 18,8 °C 48 % 1017,0 hPa 0,0 mm 5,3 km/h (1 Bft) O-NO 70 ° 0 min 0,000 mm 2,1 UV-I 411 W/m² 7,6 °C 18,8 °C 8,0 km/h (2 Bft)
16.10.2018 15:16 18,7 °C 48 % 1017,0 hPa 0,0 mm 1,2 km/h (1 Bft) O-NO 78 ° 0 min 0,000 mm 2,0 UV-I 408 W/m² 7,5 °C 18,7 °C 3,2 km/h (1 Bft)
16.10.2018 15:17 18,6 °C 47 % 1017,0 hPa 0,0 mm 3,5 km/h (1 Bft) O-NO 69 ° 0 min 0,000 mm 2,0 UV-I 408 W/m² 7,1 °C 18,6 °C 6,4 km/h (2 Bft)
16.10.2018 15:18 18,6 °C 47 % 1017,0 hPa 0,0 mm 2,9 km/h (1 Bft) O-NO 61 ° 0 min 0,000 mm 2,0 UV-I 406 W/m² 7,1 °C 18,6 °C 6,4 km/h (2 Bft)
16.10.2018 15:19 18,5 °C 49 % 1017,1 hPa 0,0 mm 0,2 km/h (0 Bft) O-NO 74 ° 0 min 0,000 mm 2,0 UV-I 406 W/m² 7,6 °C 18,5 °C 1,6 km/h (1 Bft)
16.10.2018 15:20 18,6 °C 47 % 1017,0 hPa 0,0 mm 1,8 km/h (1 Bft) O 97 ° 0 min 0,000 mm 2,0 UV-I 404 W/m² 7,1 °C 18,6 °C 9,7 km/h (2 Bft)
16.10.2018 15:21 18,6 °C 47 % 1017,0 hPa 0,0 mm 3,2 km/h (1 Bft) NO 51 ° 0 min 0,000 mm 2,0 UV-I 403 W/m² 7,1 °C 18,6 °C 9,7 km/h (2 Bft)
16.10.2018 15:22 18,6 °C 47 % 1017,0 hPa 0,0 mm 2,0 km/h (1 Bft) NO 52 ° 0 min 0,000 mm 2,0 UV-I 397 W/m² 7,1 °C 18,6 °C 3,2 km/h (1 Bft)
16.10.2018 15:23 18,6 °C 46 % 1017,0 hPa 0,0 mm 0,2 km/h (0 Bft) NO 52 ° 0 min 0,000 mm 1,9 UV-I 396 W/m² 6,8 °C 18,6 °C 1,6 km/h (1 Bft)
16.10.2018 15:24 18,6 °C 47 % 1017,0 hPa 0,0 mm 0,0 km/h (0 Bft) NO 52 ° 0 min 0,000 mm 1,9 UV-I 392 W/m² 7,1 °C 18,6 °C 0,0 km/h (0 Bft)
16.10.2018 15:25 18,4 °C 51 % 1017,1 hPa 0,0 mm 3,0 km/h (1 Bft) O 98 ° 0 min 0,000 mm 1,9 UV-I 392 W/m² 8,1 °C 18,4 °C 12,9 km/h (3 Bft)
16.10.2018 15:26 18,4 °C 48 % 1017,0 hPa 0,0 mm 5,1 km/h (1 Bft) NO 52 ° 0 min 0,000 mm 1,9 UV-I 390 W/m² 7,2 °C 18,4 °C 9,7 km/h (2 Bft)
16.10.2018 15:27 18,4 °C 46 % 1017,0 hPa 0,0 mm 2,8 km/h (1 Bft) O-NO 63 ° 0 min 0,000 mm 1,9 UV-I 388 W/m² 6,6 °C 18,4 °C 4,8 km/h (1 Bft)
16.10.2018 15:28 18,5 °C 47 % 1017,0 hPa 0,0 mm 3,4 km/h (1 Bft) O 98 ° 0 min 0,000 mm 1,9 UV-I 385 W/m² 7,0 °C 18,5 °C 4,8 km/h (1 Bft)
16.10.2018 15:29 18,5 °C 51 % 1017,0 hPa 0,0 mm 4,1 km/h (1 Bft) O-SO 111 ° 0 min 0,000 mm 1,9 UV-I 383 W/m² 8,2 °C 18,5 °C 9,7 km/h (2 Bft)
16.10.2018 15:30 18,5 °C 45 % 1017,0 hPa 0,0 mm 3,2 km/h (1 Bft) NO 45 ° 0 min 0,000 mm 1,9 UV-I 381 W/m² 6,3 °C 18,5 °C 6,4 km/h (2 Bft)
16.10.2018 15:31 18,4 °C 45 % 1017,1 hPa 0,0 mm 2,9 km/h (1 Bft) O 86 ° 0 min 0,000 mm 1,8 UV-I 380 W/m² 6,3 °C 18,4 °C 6,4 km/h (2 Bft)
16.10.2018 15:32 18,4 °C 45 % 1017,1 hPa 0,0 mm 2,7 km/h (1 Bft) NO 44 ° 0 min 0,000 mm 1,8 UV-I 380 W/m² 6,3 °C 18,4 °C 6,4 km/h (2 Bft)
16.10.2018 15:33 18,4 °C 47 % 1017,1 hPa 0,0 mm 3,5 km/h (1 Bft) NO 45 ° 0 min 0,000 mm 1,8 UV-I 376 W/m² 6,9 °C 18,4 °C 4,8 km/h (1 Bft)
16.10.2018 15:34 18,4 °C 46 % 1017,1 hPa 0,0 mm 3,8 km/h (1 Bft) O 80 ° 0 min 0,000 mm 1,8 UV-I 374 W/m² 6,6 °C 18,4 °C 8,0 km/h (2 Bft)
16.10.2018 15:35 18,4 °C 47 % 1017,1 hPa 0,0 mm 3,6 km/h (1 Bft) O-NO 69 ° 0 min 0,000 mm 1,8 UV-I 373 W/m² 6,9 °C 18,4 °C 6,4 km/h (2 Bft)
16.10.2018 15:36 18,5 °C 46 % 1017,1 hPa 0,0 mm 1,0 km/h (0 Bft) O-NO 69 ° 0 min 0,000 mm 1,8 UV-I 371 W/m² 6,7 °C 18,5 °C 1,6 km/h (1 Bft)
16.10.2018 15:37 18,5 °C 47 % 1017,1 hPa 0,0 mm 0,9 km/h (0 Bft) O-NO 69 ° 0 min 0,000 mm 1,8 UV-I 367 W/m² 7,0 °C 18,5 °C 3,2 km/h (1 Bft)
16.10.2018 15:38 18,4 °C 44 % 1017,1 hPa 0,0 mm 0,9 km/h (0 Bft) O-NO 69 ° 0 min 0,000 mm 1,7 UV-I 367 W/m² 5,9 °C 18,4 °C 3,2 km/h (1 Bft)
16.10.2018 15:39 18,4 °C 45 % 1017,1 hPa 0,0 mm 1,0 km/h (0 Bft) O-NO 69 ° 0 min 0,000 mm 1,7 UV-I 366 W/m² 6,3 °C 18,4 °C 3,2 km/h (1 Bft)
16.10.2018 15:40 18,5 °C 45 % 1017,1 hPa 0,0 mm 1,0 km/h (0 Bft) O-NO 70 ° 0 min 0,000 mm 1,7 UV-I 362 W/m² 6,3 °C 18,5 °C 3,2 km/h (1 Bft)
16.10.2018 15:41 18,6 °C 45 % 1017,1 hPa 0,0 mm 0,5 km/h (0 Bft) O-NO 70 ° 0 min 0,000 mm 1,7 UV-I 359 W/m² 6,4 °C 18,6 °C 1,6 km/h (1 Bft)
16.10.2018 15:42 18,5 °C 47 % 1017,1 hPa 0,0 mm 3,1 km/h (1 Bft) O-NO 70 ° 0 min 0,000 mm 1,7 UV-I 357 W/m² 7,0 °C 18,5 °C 4,8 km/h (1 Bft)
16.10.2018 15:43 18,4 °C 46 % 1017,0 hPa 0,0 mm 1,1 km/h (1 Bft) O-NO 71 ° 0 min 0,000 mm 1,7 UV-I 355 W/m² 6,6 °C 18,4 °C 3,2 km/h (1 Bft)
16.10.2018 15:44 18,3 °C 51 % 1017,0 hPa 0,0 mm 2,1 km/h (1 Bft) O-NO 71 ° 0 min 0,000 mm 1,7 UV-I 353 W/m² 8,0 °C 18,3 °C 4,8 km/h (1 Bft)
16.10.2018 15:45 18,2 °C 48 % 1017,1 hPa 0,0 mm 3,4 km/h (1 Bft) O-NO 71 ° 0 min 0,000 mm 1,6 UV-I 348 W/m² 7,0 °C 18,2 °C 4,8 km/h (1 Bft)
16.10.2018 15:46 18,1 °C 50 % 1017,1 hPa 0,0 mm 2,7 km/h (1 Bft) O-NO 59 ° 0 min 0,000 mm 1,6 UV-I 346 W/m² 7,5 °C 18,1 °C 4,8 km/h (1 Bft)
16.10.2018 15:47 18,1 °C 48 % 1017,0 hPa 0,0 mm 4,0 km/h (1 Bft) O-NO 61 ° 0 min 0,000 mm 1,6 UV-I 345 W/m² 6,9 °C 18,1 °C 6,4 km/h (2 Bft)
16.10.2018 15:48 18,2 °C 45 % 1017,0 hPa 0,0 mm 2,5 km/h (1 Bft) O-SO 105 ° 0 min 0,000 mm 1,6 UV-I 343 W/m² 6,1 °C 18,2 °C 4,8 km/h (1 Bft)
16.10.2018 15:49 18,3 °C 47 % 1017,0 hPa 0,0 mm 3,2 km/h (1 Bft) NO 52 ° 0 min 0,000 mm 1,6 UV-I 343 W/m² 6,8 °C 18,3 °C 6,4 km/h (2 Bft)
16.10.2018 15:50 18,3 °C 45 % 1017,1 hPa 0,0 mm 1,2 km/h (1 Bft) NO 52 ° 0 min 0,000 mm 1,6 UV-I 339 W/m² 6,2 °C 18,3 °C 6,4 km/h (2 Bft)
16.10.2018 15:51 18,4 °C 46 % 1017,0 hPa 0,0 mm 0,0 km/h (0 Bft) NO 52 ° 0 min 0,000 mm 1,6 UV-I 336 W/m² 6,6 °C 18,4 °C 0,0 km/h (0 Bft)
16.10.2018 15:52 18,5 °C 46 % 1017,0 hPa 0,0 mm 0,3 km/h (0 Bft) NO 52 ° 0 min 0,000 mm 1,5 UV-I 334 W/m² 6,7 °C 18,5 °C 1,6 km/h (1 Bft)
16.10.2018 15:53 18,4 °C 47 % 1017,1 hPa 0,0 mm 1,3 km/h (1 Bft) NO 52 ° 0 min 0,000 mm 1,5 UV-I 332 W/m² 6,9 °C 18,4 °C 3,2 km/h (1 Bft)
16.10.2018 15:54 18,2 °C 46 % 1017,1 hPa 0,0 mm 4,5 km/h (1 Bft) NO 49 ° 0 min 0,000 mm 1,5 UV-I 330 W/m² 6,4 °C 18,2 °C 8,0 km/h (2 Bft)
16.10.2018 15:55 18,1 °C 48 % 1017,1 hPa 0,0 mm 2,5 km/h (1 Bft) NO 51 ° 0 min 0,000 mm 1,5 UV-I 327 W/m² 6,9 °C 18,1 °C 4,8 km/h (1 Bft)
16.10.2018 15:56 18,1 °C 49 % 1017,1 hPa 0,0 mm 0,8 km/h (0 Bft) NO 51 ° 0 min 0,000 mm 1,5 UV-I 325 W/m² 7,2 °C 18,1 °C 3,2 km/h (1 Bft)
16.10.2018 15:57 18,1 °C 49 % 1017,1 hPa 0,0 mm 1,9 km/h (1 Bft) O 94 ° 0 min 0,000 mm 1,5 UV-I 318 W/m² 7,2 °C 18,1 °C 9,7 km/h (2 Bft)
16.10.2018 15:58 18,2 °C 48 % 1017,0 hPa 0,0 mm 5,5 km/h (1 Bft) NO 51 ° 0 min 0,000 mm 1,4 UV-I 316 W/m² 7,0 °C 18,2 °C 8,0 km/h (2 Bft)
16.10.2018 15:59 18,2 °C 48 % 1017,0 hPa 0,0 mm 2,5 km/h (1 Bft) O-NO 61 ° 0 min 0,000 mm 1,4 UV-I 315 W/m² 7,0 °C 18,2 °C 4,8 km/h (1 Bft)
16.10.2018 16:00 18,2 °C 49 % 1017,1 hPa 0,0 mm 4,6 km/h (1 Bft) O-NO 66 ° 0 min 0,000 mm 1,4 UV-I 311 W/m² 7,3 °C 18,2 °C 6,4 km/h (2 Bft)
16.10.2018 16:01 18,3 °C 49 % 1017,1 hPa 0,0 mm 4,0 km/h (1 Bft) NO 51 ° 0 min 0,229 mm 1,4 UV-I 309 W/m² 7,4 °C 18,3 °C 6,4 km/h (2 Bft)
16.10.2018 16:02 18,3 °C 47 % 1017,1 hPa 0,0 mm 3,5 km/h (1 Bft) O-SO 107 ° 0 min 0,000 mm 1,4 UV-I 306 W/m² 6,8 °C 18,3 °C 6,4 km/h (2 Bft)
16.10.2018 16:03 18,3 °C 48 % 1017,1 hPa 0,0 mm 0,1 km/h (0 Bft) O-SO 107 ° 0 min 0,000 mm 1,4 UV-I 302 W/m² 7,1 °C 18,3 °C 1,6 km/h (1 Bft)
16.10.2018 16:04 18,2 °C 50 % 1017,1 hPa 0,0 mm 3,1 km/h (1 Bft) O-NO 74 ° 0 min 0,000 mm 1,3 UV-I 302 W/m² 7,6 °C 18,2 °C 6,4 km/h (2 Bft)
16.10.2018 16:05 18,1 °C 48 % 1017,0 hPa 0,0 mm 2,7 km/h (1 Bft) NO 39 ° 0 min 0,000 mm 1,3 UV-I 299 W/m² 6,9 °C 18,1 °C 4,8 km/h (1 Bft)
16.10.2018 16:06 18,1 °C 48 % 1017,1 hPa 0,0 mm 4,9 km/h (1 Bft) O 92 ° 0 min 0,000 mm 1,3 UV-I 297 W/m² 6,9 °C 18,1 °C 6,4 km/h (2 Bft)
16.10.2018 16:07 18,3 °C 47 % 1017,0 hPa 0,0 mm 7,0 km/h (2 Bft) NO 46 ° 0 min 0,000 mm 1,3 UV-I 297 W/m² 6,8 °C 18,3 °C 11,3 km/h (2 Bft)
16.10.2018 16:08 18,3 °C 47 % 1017,0 hPa 0,0 mm 4,9 km/h (1 Bft) O 86 ° 0 min 0,000 mm 1,3 UV-I 294 W/m² 6,8 °C 18,3 °C 8,0 km/h (2 Bft)
16.10.2018 16:09 18,2 °C 50 % 1017,1 hPa 0,0 mm 2,4 km/h (1 Bft) O 90 ° 0 min 0,000 mm 1,3 UV-I 290 W/m² 7,6 °C 18,2 °C 4,8 km/h (1 Bft)
16.10.2018 16:10 18,1 °C 47 % 1017,0 hPa 0,0 mm 0,7 km/h (0 Bft) O 95 ° 0 min 0,000 mm 1,3 UV-I 288 W/m² 6,6 °C 18,1 °C 4,8 km/h (1 Bft)
16.10.2018 16:11 18,1 °C 47 % 1017,1 hPa 0,0 mm 4,3 km/h (1 Bft) O-NO 67 ° 0 min 0,000 mm 1,3 UV-I 287 W/m² 6,6 °C 18,1 °C 6,4 km/h (2 Bft)
16.10.2018 16:12 18,2 °C 49 % 1017,1 hPa 0,0 mm 4,5 km/h (1 Bft) O-NO 65 ° 0 min 0,000 mm 1,3 UV-I 287 W/m² 7,3 °C 18,2 °C 6,4 km/h (2 Bft)
16.10.2018 16:13 18,2 °C 49 % 1017,1 hPa 0,0 mm 2,1 km/h (1 Bft) O-NO 65 ° 0 min 0,000 mm 1,2 UV-I 283 W/m² 7,3 °C 18,2 °C 6,4 km/h (2 Bft)
16.10.2018 16:14 18,1 °C 49 % 1017,1 hPa 0,0 mm 1,4 km/h (1 Bft) O-NO 65 ° 0 min 0,000 mm 1,2 UV-I 276 W/m² 7,2 °C 18,1 °C 3,2 km/h (1 Bft)
16.10.2018 16:15 18,1 °C 46 % 1017,1 hPa 0,0 mm 2,9 km/h (1 Bft) N-NO 26 ° 0 min 0,000 mm 1,2 UV-I 199 W/m² 6,3 °C 18,1 °C 4,8 km/h (1 Bft)
16.10.2018 16:16 18,2 °C 46 % 1017,1 hPa 0,0 mm 1,8 km/h (1 Bft) O-NO 59 ° 0 min 0,000 mm 1,1 UV-I 144 W/m² 6,4 °C 18,2 °C 4,8 km/h (1 Bft)
16.10.2018 16:17 18,2 °C 47 % 1017,1 hPa 0,0 mm 6,1 km/h (2 Bft) O-NO 74 ° 0 min 0,000 mm 1,0 UV-I 123 W/m² 6,7 °C 18,2 °C 8,0 km/h (2 Bft)
16.10.2018 16:18 18,2 °C 47 % 1017,1 hPa 0,0 mm 3,7 km/h (1 Bft) NO 53 ° 0 min 0,000 mm 1,0 UV-I 118 W/m² 6,7 °C 18,2 °C 8,0 km/h (2 Bft)
16.10.2018 16:19 18,2 °C 48 % 1017,1 hPa 0,0 mm 2,7 km/h (1 Bft) NO 42 ° 0 min 0,000 mm 1,0 UV-I 91 W/m² 7,0 °C 18,2 °C 4,8 km/h (1 Bft)
16.10.2018 16:20 18,2 °C 47 % 1017,1 hPa 0,0 mm 1,9 km/h (1 Bft) NO 40 ° 0 min 0,000 mm 0,0 UV-I 54 W/m² 6,7 °C 18,2 °C 4,8 km/h (1 Bft)
16.10.2018 16:21 18,2 °C 46 % 1017,1 hPa 0,0 mm 2,2 km/h (1 Bft) NO 51 ° 0 min 0,000 mm 0,0 UV-I 44 W/m² 6,4 °C 18,2 °C 6,4 km/h (2 Bft)
16.10.2018 16:22 18,2 °C 46 % 1017,1 hPa 0,0 mm 3,8 km/h (1 Bft) O-NO 68 ° 0 min 0,000 mm 0,0 UV-I 42 W/m² 6,4 °C 18,2 °C 6,4 km/h (2 Bft)
16.10.2018 16:23 18,1 °C 48 % 1017,1 hPa 0,0 mm 4,4 km/h (1 Bft) O 90 ° 0 min 0,000 mm 0,0 UV-I 42 W/m² 6,9 °C 18,1 °C 6,4 km/h (2 Bft)
16.10.2018 16:24 18,0 °C 48 % 1017,1 hPa 0,0 mm 3,7 km/h (1 Bft) NO 39 ° 0 min 0,000 mm 0,0 UV-I 42 W/m² 6,8 °C 18,0 °C 6,4 km/h (2 Bft)
16.10.2018 16:25 17,9 °C 47 % 1017,1 hPa 0,0 mm 1,6 km/h (1 Bft) NO 39 ° 0 min 0,000 mm 0,0 UV-I 46 W/m² 6,4 °C 17,9 °C 3,2 km/h (1 Bft)
16.10.2018 16:26 17,9 °C 49 % 1017,0 hPa 0,0 mm 0,7 km/h (0 Bft) NO 39 ° 0 min 0,000 mm 0,0 UV-I 46 W/m² 7,0 °C 17,9 °C 3,2 km/h (1 Bft)
16.10.2018 16:27 17,9 °C 48 % 1017,1 hPa 0,0 mm 0,7 km/h (0 Bft) NO 39 ° 0 min 0,000 mm 0,0 UV-I 42 W/m² 6,7 °C 17,9 °C 1,6 km/h (1 Bft)
16.10.2018 16:28 17,8 °C 50 % 1017,1 hPa 0,0 mm 0,2 km/h (0 Bft) NO 39 ° 0 min 0,000 mm 0,0 UV-I 40 W/m² 7,2 °C 17,8 °C 1,6 km/h (1 Bft)
16.10.2018 16:29 17,6 °C 53 % 1017,1 hPa 0,0 mm 0,0 km/h (0 Bft) NO 39 ° 0 min 0,000 mm 0,0 UV-I 39 W/m² 7,9 °C 17,6 °C 0,0 km/h (0 Bft)
16.10.2018 16:30 17,4 °C 51 % 1017,1 hPa 0,0 mm 1,5 km/h (1 Bft) NO 54 ° 0 min 0,000 mm 0,0 UV-I 40 W/m² 7,2 °C 17,4 °C 3,2 km/h (1 Bft)
16.10.2018 16:31 17,4 °C 49 % 1017,1 hPa 0,0 mm 0,6 km/h (0 Bft) NO 54 ° 0 min 0,000 mm 0,0 UV-I 42 W/m² 6,6 °C 17,4 °C 3,2 km/h (1 Bft)
16.10.2018 16:32 17,4 °C 50 % 1017,1 hPa 0,0 mm 2,8 km/h (1 Bft) O 92 ° 0 min 0,000 mm 0,0 UV-I 42 W/m² 6,9 °C 17,4 °C 11,3 km/h (2 Bft)
16.10.2018 16:33 17,3 °C 52 % 1017,1 hPa 0,0 mm 5,7 km/h (1 Bft) O-NO 69 ° 0 min 0,000 mm 0,0 UV-I 40 W/m² 7,3 °C 17,3 °C 9,7 km/h (2 Bft)
16.10.2018 16:34 17,3 °C 50 % 1017,1 hPa 0,0 mm 0,8 km/h (0 Bft) O-NO 69 ° 0 min 0,000 mm 0,0 UV-I 39 W/m² 6,8 °C 17,3 °C 4,8 km/h (1 Bft)
16.10.2018 16:35 17,3 °C 50 % 1017,1 hPa 0,0 mm 2,1 km/h (1 Bft) O-NO 71 ° 0 min 0,000 mm 0,0 UV-I 37 W/m² 6,8 °C 17,3 °C 3,2 km/h (1 Bft)
16.10.2018 16:36 17,3 °C 51 % 1017,1 hPa 0,0 mm 1,4 km/h (1 Bft) O-NO 71 ° 0 min 0,000 mm 0,0 UV-I 37 W/m² 7,1 °C 17,3 °C 3,2 km/h (1 Bft)
16.10.2018 16:37 17,3 °C 50 % 1017,1 hPa 0,0 mm 1,7 km/h (1 Bft) O-NO 69 ° 0 min 0,000 mm 0,0 UV-I 37 W/m² 6,8 °C 17,3 °C 4,8 km/h (1 Bft)
16.10.2018 16:38 17,3 °C 50 % 1017,1 hPa 0,0 mm 0,9 km/h (0 Bft) O 92 ° 0 min 0,000 mm 0,0 UV-I 37 W/m² 6,8 °C 17,3 °C 3,2 km/h (1 Bft)
16.10.2018 16:39 17,3 °C 50 % 1017,1 hPa 0,0 mm 2,7 km/h (1 Bft) O-NO 65 ° 0 min 0,000 mm 0,0 UV-I 35 W/m² 6,8 °C 17,3 °C 4,8 km/h (1 Bft)
16.10.2018 16:40 17,3 °C 50 % 1017,1 hPa 0,0 mm 1,9 km/h (1 Bft) O-NO 69 ° 0 min 0,000 mm 0,0 UV-I 35 W/m² 6,8 °C 17,3 °C 3,2 km/h (1 Bft)
16.10.2018 16:41 17,3 °C 50 % 1017,1 hPa 0,0 mm 0,0 km/h (0 Bft) O-NO 68 ° 0 min 0,000 mm 0,0 UV-I 35 W/m² 6,8 °C 17,3 °C 0,0 km/h (0 Bft)
16.10.2018 16:42 17,4 °C 50 % 1017,1 hPa 0,0 mm 1,9 km/h (1 Bft) O-NO 69 ° 0 min 0,000 mm 0,0 UV-I 35 W/m² 6,9 °C 17,4 °C 4,8 km/h (1 Bft)
16.10.2018 16:43 17,4 °C 50 % 1017,1 hPa 0,0 mm 0,6 km/h (0 Bft) O-NO 69 ° 0 min 0,000 mm 0,0 UV-I 35 W/m² 6,9 °C 17,4 °C 3,2 km/h (1 Bft)
16.10.2018 16:44 17,4 °C 48 % 1017,1 hPa 0,0 mm 0,0 km/h (0 Bft) O-NO 69 ° 0 min 0,000 mm 0,0 UV-I 35 W/m² 6,3 °C 17,4 °C 0,0 km/h (0 Bft)
16.10.2018 16:45 17,4 °C 51 % 1017,1 hPa 0,0 mm 1,8 km/h (1 Bft) O-NO 69 ° 0 min 0,000 mm 0,0 UV-I 35 W/m² 7,2 °C 17,4 °C 4,8 km/h (1 Bft)
16.10.2018 16:46 17,3 °C 51 % 1017,2 hPa 0,0 mm 1,6 km/h (1 Bft) O-NO 57 ° 0 min 0,000 mm 0,0 UV-I 35 W/m² 7,1 °C 17,3 °C 4,8 km/h (1 Bft)
16.10.2018 16:47 17,3 °C 52 % 1017,1 hPa 0,0 mm 0,9 km/h (0 Bft) O-NO 57 ° 0 min 0,000 mm 0,0 UV-I 35 W/m² 7,3 °C 17,3 °C 1,6 km/h (1 Bft)
16.10.2018 16:48 17,2 °C 50 % 1017,1 hPa 0,0 mm 0,4 km/h (0 Bft) O-NO 57 ° 0 min 0,000 mm 0,0 UV-I 33 W/m² 6,7 °C 17,2 °C 1,6 km/h (1 Bft)
16.10.2018 16:49 17,2 °C 51 % 1017,1 hPa 0,0 mm 1,6 km/h (1 Bft) O-NO 57 ° 0 min 0,000 mm 0,0 UV-I 33 W/m² 7,0 °C 17,2 °C 3,2 km/h (1 Bft)
16.10.2018 16:50 17,2 °C 51 % 1017,1 hPa 0,0 mm 2,0 km/h (1 Bft) O-NO 75 ° 0 min 0,000 mm 0,0 UV-I 33 W/m² 7,0 °C 17,2 °C 4,8 km/h (1 Bft)
16.10.2018 16:51 17,3 °C 50 % 1017,1 hPa 0,0 mm 2,0 km/h (1 Bft) O-NO 75 ° 0 min 0,000 mm 0,0 UV-I 33 W/m² 6,8 °C 17,3 °C 3,2 km/h (1 Bft)
16.10.2018 16:52 17,3 °C 50 % 1017,1 hPa 0,0 mm 1,8 km/h (1 Bft) O-NO 75 ° 0 min 0,000 mm 0,0 UV-I 33 W/m² 6,8 °C 17,3 °C 3,2 km/h (1 Bft)
16.10.2018 16:53 17,3 °C 51 % 1017,1 hPa 0,0 mm 0,0 km/h (0 Bft) O-NO 75 ° 0 min 0,000 mm 0,0 UV-I 33 W/m² 7,1 °C 17,3 °C 0,0 km/h (0 Bft)
16.10.2018 16:54 17,3 °C 51 % 1017,1 hPa 0,0 mm 0,0 km/h (0 Bft) O-NO 75 ° 0 min 0,000 mm 0,0 UV-I 33 W/m² 7,1 °C 17,3 °C 0,0 km/h (0 Bft)
16.10.2018 16:55 17,3 °C 52 % 1017,1 hPa 0,0 mm 0,3 km/h (0 Bft) NO 51 ° 0 min 0,000 mm 0,0 UV-I 33 W/m² 7,3 °C 17,3 °C 4,8 km/h (1 Bft)
16.10.2018 16:56 17,1 °C 52 % 1017,2 hPa 0,0 mm 6,1 km/h (2 Bft) NO 42 ° 0 min 0,000 mm 0,0 UV-I 32 W/m² 7,2 °C 17,1 °C 8,0 km/h (2 Bft)
16.10.2018 16:57 17,2 °C 50 % 1017,1 hPa 0,0 mm 3,1 km/h (1 Bft) O-NO 68 ° 0 min 0,000 mm 0,0 UV-I 32 W/m² 6,7 °C 17,2 °C 4,8 km/h (1 Bft)
16.10.2018 16:58 17,3 °C 51 % 1017,1 hPa 0,0 mm 2,7 km/h (1 Bft) O-NO 64 ° 0 min 0,000 mm 0,0 UV-I 32 W/m² 7,1 °C 17,3 °C 6,4 km/h (2 Bft)
16.10.2018 16:59 17,3 °C 52 % 1017,1 hPa 0,0 mm 3,4 km/h (1 Bft) O-NO 65 ° 0 min 0,000 mm 0,0 UV-I 32 W/m² 7,3 °C 17,3 °C 4,8 km/h (1 Bft)
16.10.2018 17:00 17,2 °C 50 % 1017,2 hPa 0,0 mm 3,4 km/h (1 Bft) NO 48 ° 0 min 0,000 mm 0,0 UV-I 32 W/m² 6,7 °C 17,2 °C 6,4 km/h (2 Bft)
16.10.2018 17:01 17,3 °C 50 % 1017,1 hPa 0,0 mm 2,1 km/h (1 Bft) NO 53 ° 0 min 0,076 mm 0,0 UV-I 32 W/m² 6,8 °C 17,3 °C 4,8 km/h (1 Bft)
16.10.2018 17:02 17,3 °C 51 % 1017,2 hPa 0,0 mm 2,3 km/h (1 Bft) NO 53 ° 0 min 0,000 mm 0,0 UV-I 32 W/m² 7,1 °C 17,3 °C 4,8 km/h (1 Bft)
16.10.2018 17:03 17,2 °C 52 % 1017,1 hPa 0,0 mm 0,8 km/h (0 Bft) NO 53 ° 0 min 0,000 mm 0,0 UV-I 32 W/m² 7,3 °C 17,2 °C 3,2 km/h (1 Bft)
16.10.2018 17:04 17,1 °C 52 % 1017,1 hPa 0,0 mm 1,6 km/h (1 Bft) NO 53 ° 0 min 0,000 mm 0,0 UV-I 32 W/m² 7,2 °C 17,1 °C 3,2 km/h (1 Bft)
16.10.2018 17:05 17,1 °C 51 % 1017,1 hPa 0,0 mm 0,4 km/h (0 Bft) NO 53 ° 0 min 0,000 mm 0,0 UV-I 30 W/m² 6,9 °C 17,1 °C 3,2 km/h (1 Bft)
16.10.2018 17:06 17,1 °C 53 % 1017,1 hPa 0,0 mm 0,0 km/h (0 Bft) NO 53 ° 0 min 0,000 mm 0,0 UV-I 30 W/m² 7,4 °C 17,1 °C 0,0 km/h (0 Bft)
16.10.2018 17:07 16,9 °C 53 % 1017,1 hPa 0,0 mm 2,3 km/h (1 Bft) O-SO 107 ° 0 min 0,000 mm 0,0 UV-I 30 W/m² 7,3 °C 16,9 °C 6,4 km/h (2 Bft)
16.10.2018 17:08 16,9 °C 52 % 1017,1 hPa 0,0 mm 3,6 km/h (1 Bft) O 95 ° 0 min 0,000 mm 0,0 UV-I 30 W/m² 7,0 °C 16,9 °C 6,4 km/h (2 Bft)
16.10.2018 17:09 17,0 °C 52 % 1017,1 hPa 0,0 mm 1,9 km/h (1 Bft) O-NO 76 ° 0 min 0,000 mm 0,0 UV-I 30 W/m² 7,1 °C 17,0 °C 4,8 km/h (1 Bft)
16.10.2018 17:10 17,1 °C 52 % 1017,2 hPa 0,0 mm 0,2 km/h (0 Bft) O-NO 76 ° 0 min 0,000 mm 0,0 UV-I 30 W/m² 7,2 °C 17,1 °C 1,6 km/h (1 Bft)
16.10.2018 17:11 17,0 °C 54 % 1017,1 hPa 0,0 mm 0,5 km/h (0 Bft) O-NO 76 ° 0 min 0,000 mm 0,0 UV-I 30 W/m² 7,6 °C 17,0 °C 1,6 km/h (1 Bft)
16.10.2018 17:12 16,9 °C 53 % 1017,1 hPa 0,0 mm 0,3 km/h (0 Bft) O-NO 76 ° 0 min 0,000 mm 0,0 UV-I 30 W/m² 7,3 °C 16,9 °C 1,6 km/h (1 Bft)
16.10.2018 17:13 16,9 °C 53 % 1017,1 hPa 0,0 mm 0,0 km/h (0 Bft) O-NO 76 ° 0 min 0,000 mm 0,0 UV-I 28 W/m² 7,3 °C 16,9 °C 0,0 km/h (0 Bft)
16.10.2018 17:14 16,9 °C 53 % 1017,1 hPa 0,0 mm 0,0 km/h (0 Bft) O-NO 76 ° 0 min 0,000 mm 0,0 UV-I 28 W/m² 7,3 °C 16,9 °C 0,0 km/h (0 Bft)
16.10.2018 17:15 16,7 °C 56 % 1017,1 hPa 0,0 mm 0,0 km/h (0 Bft) O-NO 76 ° 0 min 0,000 mm 0,0 UV-I 28 W/m² 7,9 °C 16,7 °C 0,0 km/h (0 Bft)
16.10.2018 17:16 16,6 °C 55 % 1017,1 hPa 0,0 mm 0,2 km/h (0 Bft) O-NO 76 ° 0 min 0,000 mm 0,0 UV-I 28 W/m² 7,5 °C 16,6 °C 1,6 km/h (1 Bft)
16.10.2018 17:17 16,4 °C 55 % 1017,1 hPa 0,0 mm 0,7 km/h (0 Bft) O-NO 76 ° 0 min 0,000 mm 0,0 UV-I 28 W/m² 7,3 °C 16,4 °C 1,6 km/h (1 Bft)
16.10.2018 17:18 16,5 °C 54 % 1017,1 hPa 0,0 mm 0,1 km/h (0 Bft) O-NO 76 ° 0 min 0,000 mm 0,0 UV-I 28 W/m² 7,2 °C 16,5 °C 1,6 km/h (1 Bft)
16.10.2018 17:19 16,6 °C 56 % 1017,2 hPa 0,0 mm 0,0 km/h (0 Bft) O-NO 76 ° 0 min 0,000 mm 0,0 UV-I 28 W/m² 7,8 °C 16,6 °C 0,0 km/h (0 Bft)
16.10.2018 17:20 16,4 °C 57 % 1017,1 hPa 0,0 mm 0,0 km/h (0 Bft) O-NO 76 ° 0 min 0,000 mm 0,0 UV-I 28 W/m² 7,9 °C 16,4 °C 0,0 km/h (0 Bft)
16.10.2018 17:21 16,4 °C 55 % 1017,1 hPa 0,0 mm 0,0 km/h (0 Bft) O-NO 76 ° 0 min 0,000 mm 0,0 UV-I 26 W/m² 7,3 °C 16,4 °C 0,0 km/h (0 Bft)
16.10.2018 17:22 16,6 °C 55 % 1017,1 hPa 0,0 mm 0,0 km/h (0 Bft) O-NO 76 ° 0 min 0,000 mm 0,0 UV-I 28 W/m² 7,5 °C 16,6 °C 0,0 km/h (0 Bft)
16.10.2018 17:23 16,7 °C 54 % 1017,1 hPa 0,0 mm 0,0 km/h (0 Bft) O-NO 76 ° 0 min 0,000 mm 0,0 UV-I 32 W/m² 7,3 °C 16,7 °C 0,0 km/h (0 Bft)
16.10.2018 17:24 16,7 °C 55 % 1017,1 hPa 0,0 mm 0,5 km/h (0 Bft) O-NO 76 ° 0 min 0,000 mm 0,0 UV-I 35 W/m² 7,6 °C 16,7 °C 3,2 km/h (1 Bft)
16.10.2018 17:25 16,7 °C 55 % 1017,1 hPa 0,0 mm 0,1 km/h (0 Bft) O-NO 76 ° 0 min 0,000 mm 0,0 UV-I 35 W/m² 7,6 °C 16,7 °C 1,6 km/h (1 Bft)
16.10.2018 17:26 16,8 °C 55 % 1017,1 hPa 0,0 mm 0,0 km/h (0 Bft) O-NO 76 ° 0 min 0,000 mm 0,0 UV-I 30 W/m² 7,7 °C 16,8 °C 0,0 km/h (0 Bft)
16.10.2018 17:27 16,8 °C 56 % 1017,1 hPa 0,0 mm 0,0 km/h (0 Bft) O-NO 76 ° 0 min 0,000 mm 0,0 UV-I 28 W/m² 8,0 °C 16,8 °C 0,0 km/h (0 Bft)
16.10.2018 17:28 16,7 °C 55 % 1017,2 hPa 0,0 mm 1,0 km/h (0 Bft) O 82 ° 0 min 0,000 mm 0,0 UV-I 28 W/m² 7,6 °C 16,7 °C 3,2 km/h (1 Bft)
16.10.2018 17:29 16,5 °C 56 % 1017,1 hPa 0,0 mm 0,1 km/h (0 Bft) O 82 ° 0 min 0,000 mm 0,0 UV-I 30 W/m² 7,7 °C 16,5 °C 1,6 km/h (1 Bft)
16.10.2018 17:30 16,4 °C 56 % 1017,2 hPa 0,0 mm 0,0 km/h (0 Bft) O 82 ° 0 min 0,000 mm 0,0 UV-I 30 W/m² 7,6 °C 16,4 °C 0,0 km/h (0 Bft)
16.10.2018 17:31 16,4 °C 58 % 1017,2 hPa 0,0 mm 0,0 km/h (0 Bft) O 82 ° 0 min 0,000 mm 0,0 UV-I 28 W/m² 8,1 °C 16,4 °C 0,0 km/h (0 Bft)
16.10.2018 17:32 16,4 °C 56 % 1017,2 hPa 0,0 mm 0,0 km/h (0 Bft) O 82 ° 0 min 0,000 mm 0,0 UV-I 26 W/m² 7,6 °C 16,4 °C 0,0 km/h (0 Bft)
16.10.2018 17:33 16,4 °C 56 % 1017,2 hPa 0,0 mm 0,0 km/h (0 Bft) O 82 ° 0 min 0,000 mm 0,0 UV-I 25 W/m² 7,6 °C 16,4 °C 0,0 km/h (0 Bft)
16.10.2018 17:34 16,4 °C 57 % 1017,2 hPa 0,0 mm 0,2 km/h (0 Bft) O 82 ° 0 min 0,000 mm 0,0 UV-I 25 W/m² 7,9 °C 16,4 °C 1,6 km/h (1 Bft)
16.10.2018 17:35 16,3 °C 57 % 1017,2 hPa 0,0 mm 0,3 km/h (0 Bft) O 82 ° 0 min 0,000 mm 0,0 UV-I 25 W/m² 7,8 °C 16,3 °C 1,6 km/h (1 Bft)
16.10.2018 17:36 16,3 °C 57 % 1017,2 hPa 0,0 mm 0,6 km/h (0 Bft) O 82 ° 0 min 0,000 mm 0,0 UV-I 23 W/m² 7,8 °C 16,3 °C 3,2 km/h (1 Bft)
16.10.2018 17:37 16,3 °C 57 % 1017,2 hPa 0,0 mm 0,9 km/h (0 Bft) O 82 ° 0 min 0,000 mm 0,0 UV-I 23 W/m² 7,8 °C 16,3 °C 1,6 km/h (1 Bft)
16.10.2018 17:38 16,4 °C 57 % 1017,2 hPa 0,0 mm 0,7 km/h (0 Bft) O 82 ° 0 min 0,000 mm 0,0 UV-I 23 W/m² 7,9 °C 16,4 °C 1,6 km/h (1 Bft)
16.10.2018 17:39 16,4 °C 57 % 1017,2 hPa 0,0 mm 1,2 km/h (1 Bft) O 82 ° 0 min 0,000 mm 0,0 UV-I 23 W/m² 7,9 °C 16,4 °C 1,6 km/h (1 Bft)
16.10.2018 17:40 16,4 °C 56 % 1017,2 hPa 0,0 mm 0,3 km/h (0 Bft) O 82 ° 0 min 0,000 mm 0,0 UV-I 21 W/m² 7,6 °C 16,4 °C 1,6 km/h (1 Bft)
16.10.2018 17:41 16,5 °C 56 % 1017,2 hPa 0,0 mm 0,0 km/h (0 Bft) O 82 ° 0 min 0,000 mm 0,0 UV-I 21 W/m² 7,7 °C 16,5 °C 0,0 km/h (0 Bft)
16.10.2018 17:42 16,6 °C 57 % 1017,2 hPa 0,0 mm 0,4 km/h (0 Bft) O 82 ° 0 min 0,000 mm 0,0 UV-I 21 W/m² 8,0 °C 16,6 °C 1,6 km/h (1 Bft)
16.10.2018 17:43 16,6 °C 57 % 1017,2 hPa 0,0 mm 0,0 km/h (0 Bft) O 82 ° 0 min 0,000 mm 0,0 UV-I 21 W/m² 8,0 °C 16,6 °C 0,0 km/h (0 Bft)
16.10.2018 17:44 16,6 °C 57 % 1017,2 hPa 0,0 mm 0,0 km/h (0 Bft) O 82 ° 0 min 0,000 mm 0,0 UV-I 21 W/m² 8,0 °C 16,6 °C 0,0 km/h (0 Bft)
16.10.2018 17:45 16,6 °C 57 % 1017,2 hPa 0,0 mm 0,3 km/h (0 Bft) O 82 ° 0 min 0,000 mm 0,0 UV-I 19 W/m² 8,0 °C 16,6 °C 1,6 km/h (1 Bft)
16.10.2018 17:46 16,4 °C 57 % 1017,2 hPa 0,0 mm 0,1 km/h (0 Bft) O 82 ° 0 min 0,000 mm 0,0 UV-I 19 W/m² 7,9 °C 16,4 °C 1,6 km/h (1 Bft)
16.10.2018 17:47 16,4 °C 58 % 1017,2 hPa 0,0 mm 0,8 km/h (0 Bft) O 82 ° 0 min 0,000 mm 0,0 UV-I 19 W/m² 8,1 °C 16,4 °C 1,6 km/h (1 Bft)
16.10.2018 17:48 16,4 °C 58 % 1017,2 hPa 0,0 mm 0,2 km/h (0 Bft) O 82 ° 0 min 0,000 mm 0,0 UV-I 19 W/m² 8,1 °C 16,4 °C 1,6 km/h (1 Bft)
16.10.2018 17:49 16,3 °C 58 % 1017,2 hPa 0,0 mm 0,2 km/h (0 Bft) O 82 ° 0 min 0,000 mm 0,0 UV-I 19 W/m² 8,0 °C 16,3 °C 1,6 km/h (1 Bft)
16.10.2018 17:50 16,3 °C 58 % 1017,3 hPa 0,0 mm 0,0 km/h (0 Bft) O 82 ° 0 min 0,000 mm 0,0 UV-I 18 W/m² 8,0 °C 16,3 °C 0,0 km/h (0 Bft)
16.10.2018 17:51 16,1 °C 59 % 1017,2 hPa 0,0 mm 0,2 km/h (0 Bft) O 82 ° 0 min 0,000 mm 0,0 UV-I 18 W/m² 8,1 °C 16,1 °C 1,6 km/h (1 Bft)
16.10.2018 17:52 16,1 °C 59 % 1017,3 hPa 0,0 mm 0,5 km/h (0 Bft) O 82 ° 0 min 0,000 mm 0,0 UV-I 18 W/m² 8,1 °C 16,1 °C 1,6 km/h (1 Bft)
16.10.2018 17:53 16,0 °C 60 % 1017,2 hPa 0,0 mm 0,9 km/h (0 Bft) O 82 ° 0 min 0,000 mm 0,0 UV-I 18 W/m² 8,2 °C 16,0 °C 1,6 km/h (1 Bft)
16.10.2018 17:54 15,9 °C 60 % 1017,2 hPa 0,0 mm 1,5 km/h (1 Bft) O 82 ° 0 min 0,000 mm 0,0 UV-I 18 W/m² 8,1 °C 15,9 °C 3,2 km/h (1 Bft)
16.10.2018 17:55 15,8 °C 60 % 1017,3 hPa 0,0 mm 2,1 km/h (1 Bft) O 82 ° 0 min 0,000 mm 0,0 UV-I 16 W/m² 8,1 °C 15,8 °C 3,2 km/h (1 Bft)
16.10.2018 17:56 15,8 °C 60 % 1017,2 hPa 0,0 mm 1,7 km/h (1 Bft) O 82 ° 0 min 0,000 mm 0,0 UV-I 16 W/m² 8,1 °C 15,8 °C 3,2 km/h (1 Bft)
16.10.2018 17:57 15,8 °C 61 % 1017,3 hPa 0,0 mm 1,9 km/h (1 Bft) O 82 ° 0 min 0,000 mm 0,0 UV-I 16 W/m² 8,3 °C 15,8 °C 3,2 km/h (1 Bft)
16.10.2018 17:58 15,7 °C 61 % 1017,3 hPa 0,0 mm 2,2 km/h (1 Bft) O 82 ° 0 min 0,000 mm 0,0 UV-I 16 W/m² 8,2 °C 15,7 °C 3,2 km/h (1 Bft)
16.10.2018 17:59 15,7 °C 61 % 1017,3 hPa 0,0 mm 1,7 km/h (1 Bft) O 82 ° 0 min 0,000 mm 0,0 UV-I 16 W/m² 8,2 °C 15,7 °C 3,2 km/h (1 Bft)
16.10.2018 18:00 15,6 °C 61 % 1017,3 hPa 0,0 mm 0,9 km/h (0 Bft) O 82 ° 0 min 0,000 mm 0,0 UV-I 14 W/m² 8,1 °C 15,6 °C 3,2 km/h (1 Bft)
16.10.2018 18:01 15,6 °C 62 % 1017,3 hPa 0,0 mm 1,1 km/h (1 Bft) O 82 ° 0 min 0,026 mm 0,0 UV-I 14 W/m² 8,3 °C 15,6 °C 3,2 km/h (1 Bft)
16.10.2018 18:02 15,4 °C 62 % 1017,3 hPa 0,0 mm 1,7 km/h (1 Bft) O 82 ° 0 min 0,000 mm 0,0 UV-I 14 W/m² 8,2 °C 15,4 °C 3,2 km/h (1 Bft)
16.10.2018 18:03 15,4 °C 62 % 1017,3 hPa 0,0 mm 1,3 km/h (1 Bft) O 82 ° 0 min 0,000 mm 0,0 UV-I 14 W/m² 8,2 °C 15,4 °C 3,2 km/h (1 Bft)
16.10.2018 18:04 15,4 °C 62 % 1017,3 hPa 0,0 mm 1,9 km/h (1 Bft) O 82 ° 0 min 0,000 mm 0,0 UV-I 12 W/m² 8,2 °C 15,4 °C 3,2 km/h (1 Bft)
16.10.2018 18:05 15,4 °C 62 % 1017,4 hPa 0,0 mm 1,9 km/h (1 Bft) O 82 ° 0 min 0,000 mm 0,0 UV-I 12 W/m² 8,2 °C 15,4 °C 3,2 km/h (1 Bft)
16.10.2018 18:06 15,3 °C 62 % 1017,3 hPa 0,0 mm 2,5 km/h (1 Bft) O 82 ° 0 min 0,000 mm 0,0 UV-I 12 W/m² 8,1 °C 15,3 °C 4,8 km/h (1 Bft)
16.10.2018 18:07 15,3 °C 62 % 1017,4 hPa 0,0 mm 2,2 km/h (1 Bft) O 82 ° 0 min 0,000 mm 0,0 UV-I 12 W/m² 8,1 °C 15,3 °C 3,2 km/h (1 Bft)
16.10.2018 18:08 15,3 °C 62 % 1017,3 hPa 0,0 mm 2,2 km/h (1 Bft) O 82 ° 0 min 0,000 mm 0,0 UV-I 12 W/m² 8,1 °C 15,3 °C 3,2 km/h (1 Bft)
16.10.2018 18:09 15,2 °C 62 % 1017,4 hPa 0,0 mm 3,6 km/h (1 Bft) O 82 ° 0 min 0,000 mm 0,0 UV-I 11 W/m² 8,0 °C 15,2 °C 4,8 km/h (1 Bft)
16.10.2018 18:10 15,2 °C 62 % 1017,4 hPa 0,0 mm 2,4 km/h (1 Bft) O 82 ° 0 min 0,000 mm 0,0 UV-I 11 W/m² 8,0 °C 15,2 °C 3,2 km/h (1 Bft)
16.10.2018 18:11 15,1 °C 62 % 1017,4 hPa 0,0 mm 1,8 km/h (1 Bft) O 82 ° 0 min 0,000 mm 0,0 UV-I 11 W/m² 7,9 °C 15,1 °C 3,2 km/h (1 Bft)
16.10.2018 18:12 15,1 °C 63 % 1017,4 hPa 0,0 mm 2,0 km/h (1 Bft) O 82 ° 0 min 0,000 mm 0,0 UV-I 9 W/m² 8,1 °C 15,1 °C 3,2 km/h (1 Bft)
16.10.2018 18:13 14,9 °C 63 % 1017,4 hPa 0,0 mm 0,4 km/h (0 Bft) O 82 ° 0 min 0,000 mm 0,0 UV-I 9 W/m² 7,9 °C 14,9 °C 3,2 km/h (1 Bft)
16.10.2018 18:14 14,8 °C 63 % 1017,4 hPa 0,0 mm 0,4 km/h (0 Bft) O 82 ° 0 min 0,000 mm 0,0 UV-I 9 W/m² 7,8 °C 14,8 °C 3,2 km/h (1 Bft)
16.10.2018 18:15 14,8 °C 64 % 1017,4 hPa 0,0 mm 0,0 km/h (0 Bft) O 82 ° 0 min 0,000 mm 0,0 UV-I 7 W/m² 8,1 °C 14,8 °C 0,0 km/h (0 Bft)
16.10.2018 18:16 14,6 °C 65 % 1017,4 hPa 0,0 mm 0,0 km/h (0 Bft) O 82 ° 0 min 0,000 mm 0,0 UV-I 7 W/m² 8,1 °C 14,6 °C 0,0 km/h (0 Bft)
16.10.2018 18:17 14,2 °C 66 % 1017,4 hPa 0,0 mm 0,0 km/h (0 Bft) O 82 ° 0 min 0,000 mm 0,0 UV-I 7 W/m² 7,9 °C 14,2 °C 0,0 km/h (0 Bft)
16.10.2018 18:18 13,6 °C 67 % 1017,4 hPa 0,0 mm 0,0 km/h (0 Bft) O 82 ° 0 min 0,000 mm 0,0 UV-I 7 W/m² 7,6 °C 13,6 °C 0,0 km/h (0 Bft)
16.10.2018 18:19 13,1 °C 69 % 1017,5 hPa 0,0 mm 0,0 km/h (0 Bft) O 82 ° 0 min 0,000 mm 0,0 UV-I 7 W/m² 7,5 °C 13,1 °C 0,0 km/h (0 Bft)
16.10.2018 18:20 12,7 °C 70 % 1017,5 hPa 0,0 mm 0,0 km/h (0 Bft) O 82 ° 0 min 0,000 mm 0,0 UV-I 5 W/m² 7,4 °C 12,7 °C 0,0 km/h (0 Bft)
16.10.2018 18:21 12,4 °C 72 % 1017,5 hPa 0,0 mm 0,0 km/h (0 Bft) O 82 ° 0 min 0,000 mm 0,0 UV-I 5 W/m² 7,5 °C 12,4 °C 0,0 km/h (0 Bft)
16.10.2018 18:22 12,4 °C 73 % 1017,5 hPa 0,0 mm 0,0 km/h (0 Bft) O 82 ° 0 min 0,000 mm 0,0 UV-I 5 W/m² 7,7 °C 12,4 °C 0,0 km/h (0 Bft)
16.10.2018 18:23 12,3 °C 73 % 1017,5 hPa 0,0 mm 0,1 km/h (0 Bft) O 82 ° 0 min 0,000 mm 0,0 UV-I 5 W/m² 7,6 °C 12,3 °C 1,6 km/h (1 Bft)
16.10.2018 18:24 12,3 °C 73 % 1017,5 hPa 0,0 mm 0,1 km/h (0 Bft) O 82 ° 0 min 0,000 mm 0,0 UV-I 5 W/m² 7,6 °C 12,3 °C 1,6 km/h (1 Bft)
16.10.2018 18:25 12,3 °C 73 % 1017,5 hPa 0,0 mm 0,0 km/h (0 Bft) O 82 ° 0 min 0,000 mm 0,0 UV-I 0 W/m² 7,6 °C 12,3 °C 0,0 km/h (0 Bft)
16.10.2018 18:26 12,2 °C 73 % 1017,5 hPa 0,0 mm 0,0 km/h (0 Bft) O 82 ° 0 min 0,000 mm 0,0 UV-I 0 W/m² 7,5 °C 12,2 °C 0,0 km/h (0 Bft)
16.10.2018 18:27 12,3 °C 74 % 1017,6 hPa 0,0 mm 0,0 km/h (0 Bft) O 82 ° 0 min 0,000 mm 0,0 UV-I 0 W/m² 7,8 °C 12,3 °C 0,0 km/h (0 Bft)
16.10.2018 18:28 12,3 °C 74 % 1017,6 hPa 0,0 mm 0,1 km/h (0 Bft) O 82 ° 0 min 0,000 mm 0,0 UV-I 0 W/m² 7,8 °C 12,3 °C 1,6 km/h (1 Bft)
16.10.2018 18:29 12,3 °C 74 % 1017,6 hPa 0,0 mm 0,0 km/h (0 Bft) O 82 ° 0 min 0,000 mm 0,0 UV-I 0 W/m² 7,8 °C 12,3 °C 0,0 km/h (0 Bft)
16.10.2018 18:30 12,3 °C 74 % 1017,5 hPa 0,0 mm 1,0 km/h (0 Bft) O 82 ° 0 min 0,000 mm 0,0 UV-I 0 W/m² 7,8 °C 12,3 °C 3,2 km/h (1 Bft)
16.10.2018 18:31 12,4 °C 74 % 1017,5 hPa 0,0 mm 1,4 km/h (1 Bft) O 82 ° 0 min 0,000 mm 0,0 UV-I 0 W/m² 7,9 °C 12,4 °C 3,2 km/h (1 Bft)
16.10.2018 18:32 12,6 °C 74 % 1017,5 hPa 0,0 mm 2,7 km/h (1 Bft) O 82 ° 0 min 0,000 mm 0,0 UV-I 0 W/m² 8,1 °C 12,6 °C 4,8 km/h (1 Bft)
16.10.2018 18:33 12,6 °C 73 % 1017,5 hPa 0,0 mm 2,3 km/h (1 Bft) O 82 ° 0 min 0,000 mm 0,0 UV-I 0 W/m² 7,9 °C 12,6 °C 3,2 km/h (1 Bft)
16.10.2018 18:34 12,7 °C 73 % 1017,6 hPa 0,0 mm 2,9 km/h (1 Bft) O 82 ° 0 min 0,000 mm 0,0 UV-I 0 W/m² 8,0 °C 12,7 °C 3,2 km/h (1 Bft)
16.10.2018 18:35 12,8 °C 73 % 1017,5 hPa 0,0 mm 3,4 km/h (1 Bft) O 83 ° 0 min 0,000 mm 0,0 UV-I 0 W/m² 8,1 °C 12,8 °C 4,8 km/h (1 Bft)
16.10.2018 18:36 12,8 °C 72 % 1017,6 hPa 0,0 mm 3,0 km/h (1 Bft) O 83 ° 0 min 0,000 mm 0,0 UV-I 0 W/m² 7,9 °C 12,8 °C 4,8 km/h (1 Bft)
16.10.2018 18:37 12,8 °C 72 % 1017,6 hPa 0,0 mm 0,8 km/h (0 Bft) O 83 ° 0 min 0,000 mm 0,0 UV-I 0 W/m² 7,9 °C 12,8 °C 1,6 km/h (1 Bft)
16.10.2018 18:38 12,8 °C 72 % 1017,6 hPa 0,0 mm 1,5 km/h (1 Bft) O 83 ° 0 min 0,000 mm 0,0 UV-I 0 W/m² 7,9 °C 12,8 °C 3,2 km/h (1 Bft)
16.10.2018 18:39 12,8 °C 72 % 1017,6 hPa 0,0 mm 1,9 km/h (1 Bft) O 83 ° 0 min 0,000 mm 0,0 UV-I 0 W/m² 7,9 °C 12,8 °C 3,2 km/h (1 Bft)
16.10.2018 18:40 12,8 °C 72 % 1017,6 hPa 0,0 mm 0,6 km/h (0 Bft) O 83 ° 0 min 0,000 mm 0,0 UV-I 0 W/m² 7,9 °C 12,8 °C 1,6 km/h (1 Bft)
16.10.2018 18:41 12,8 °C 72 % 1017,6 hPa 0,0 mm 0,7 km/h (0 Bft) O 83 ° 0 min 0,000 mm 0,0 UV-I 0 W/m² 7,9 °C 12,8 °C 3,2 km/h (1 Bft)
16.10.2018 18:42 12,8 °C 72 % 1017,6 hPa 0,0 mm 0,1 km/h (0 Bft) O 83 ° 0 min 0,000 mm 0,0 UV-I 0 W/m² 7,9 °C 12,8 °C 1,6 km/h (1 Bft)
16.10.2018 18:43 12,7 °C 72 % 1017,6 hPa 0,0 mm 0,1 km/h (0 Bft) O 83 ° 0 min 0,000 mm 0,0 UV-I 0 W/m² 7,8 °C 12,7 °C 1,6 km/h (1 Bft)
16.10.2018 18:44 12,6 °C 72 % 1017,6 hPa 0,0 mm 0,6 km/h (0 Bft) O 83 ° 0 min 0,000 mm 0,0 UV-I 0 W/m² 7,7 °C 12,6 °C 3,2 km/h (1 Bft)
16.10.2018 18:45 12,4 °C 72 % 1017,6 hPa 0,0 mm 1,9 km/h (1 Bft) O 83 ° 0 min 0,000 mm 0,0 UV-I 0 W/m² 7,5 °C 12,4 °C 3,2 km/h (1 Bft)
16.10.2018 18:46 12,4 °C 72 % 1017,7 hPa 0,0 mm 2,0 km/h (1 Bft) O 83 ° 0 min 0,000 mm 0,0 UV-I 0 W/m² 7,5 °C 12,4 °C 3,2 km/h (1 Bft)
16.10.2018 18:47 12,4 °C 71 % 1017,7 hPa 0,0 mm 2,1 km/h (1 Bft) O 83 ° 0 min 0,000 mm 0,0 UV-I 0 W/m² 7,3 °C 12,4 °C 3,2 km/h (1 Bft)
16.10.2018 18:48 12,4 °C 71 % 1017,6 hPa 0,0 mm 1,5 km/h (1 Bft) O 83 ° 0 min 0,000 mm 0,0 UV-I 0 W/m² 7,3 °C 12,4 °C 3,2 km/h (1 Bft)
16.10.2018 18:49 12,3 °C 71 % 1017,6 hPa 0,0 mm 1,1 km/h (1 Bft) O 83 ° 0 min 0,000 mm 0,0 UV-I 0 W/m² 7,2 °C 12,3 °C 3,2 km/h (1 Bft)
16.10.2018 18:50 12,2 °C 72 % 1017,7 hPa 0,0 mm 0,0 km/h (0 Bft) O 83 ° 0 min 0,000 mm 0,0 UV-I 0 W/m² 7,3 °C 12,2 °C 0,0 km/h (0 Bft)
16.10.2018 18:51 12,1 °C 73 % 1017,7 hPa 0,0 mm 0,1 km/h (0 Bft) O 83 ° 0 min 0,000 mm 0,0 UV-I 0 W/m² 7,4 °C 12,1 °C 1,6 km/h (1 Bft)
16.10.2018 18:52 11,9 °C 73 % 1017,7 hPa 0,0 mm 0,3 km/h (0 Bft) O 83 ° 0 min 0,000 mm 0,0 UV-I 0 W/m² 7,2 °C 11,9 °C 1,6 km/h (1 Bft)
16.10.2018 18:53 11,8 °C 74 % 1017,8 hPa 0,0 mm 0,0 km/h (0 Bft) O 83 ° 0 min 0,000 mm 0,0 UV-I 0 W/m² 7,3 °C 11,8 °C 0,0 km/h (0 Bft)
16.10.2018 18:54 11,8 °C 74 % 1017,8 hPa 0,0 mm 2,6 km/h (1 Bft) O 83 ° 0 min 0,000 mm 0,0 UV-I 0 W/m² 7,3 °C 11,8 °C 4,8 km/h (1 Bft)
16.10.2018 18:55 11,8 °C 74 % 1017,8 hPa 0,0 mm 2,4 km/h (1 Bft) O 83 ° 0 min 0,000 mm 0,0 UV-I 0 W/m² 7,3 °C 11,8 °C 3,2 km/h (1 Bft)
16.10.2018 18:56 11,8 °C 75 % 1017,8 hPa 0,0 mm 2,4 km/h (1 Bft) O 84 ° 0 min 0,000 mm 0,0 UV-I 0 W/m² 7,5 °C 11,8 °C 3,2 km/h (1 Bft)
16.10.2018 18:57 11,7 °C 75 % 1017,8 hPa 0,0 mm 5,3 km/h (1 Bft) S 175 ° 0 min 0,000 mm 0,0 UV-I 0 W/m² 7,4 °C 11,7 °C 8,0 km/h (2 Bft)
16.10.2018 18:58 11,5 °C 75 % 1017,8 hPa 0,0 mm 5,8 km/h (2 Bft) S 175 ° 0 min 0,000 mm 0,0 UV-I 0 W/m² 7,2 °C 11,5 °C 6,4 km/h (2 Bft)
16.10.2018 18:59 11,3 °C 75 % 1017,8 hPa 0,0 mm 6,1 km/h (2 Bft) S 175 ° 0 min 0,000 mm 0,0 UV-I 0 W/m² 7,0 °C 11,3 °C 6,4 km/h (2 Bft)
16.10.2018 19:00 11,1 °C 75 % 1017,8 hPa 0,0 mm 6,4 km/h (2 Bft) S 175 ° 0 min 0,000 mm 0,0 UV-I 0 W/m² 6,8 °C 11,1 °C 6,4 km/h (2 Bft)
16.10.2018 19:01 10,9 °C 76 % 1017,8 hPa 0,0 mm 6,4 km/h (2 Bft) S 175 ° 0 min 0,025 mm 0,0 UV-I 0 W/m² 6,8 °C 10,9 °C 6,4 km/h (2 Bft)
16.10.2018 19:02 10,8 °C 76 % 1017,7 hPa 0,0 mm 6,5 km/h (2 Bft) S 175 ° 0 min 0,000 mm 0,0 UV-I 0 W/m² 6,7 °C 10,8 °C 9,7 km/h (2 Bft)
16.10.2018 19:03 10,7 °C 76 % 1017,8 hPa 0,0 mm 5,8 km/h (2 Bft) S 175 ° 0 min 0,000 mm 0,0 UV-I 0 W/m² 6,6 °C 10,7 °C 6,4 km/h (2 Bft)
16.10.2018 19:04 10,7 °C 76 % 1017,7 hPa 0,0 mm 6,1 km/h (2 Bft) S 175 ° 0 min 0,000 mm 0,0 UV-I 0 W/m² 6,6 °C 10,7 °C 6,4 km/h (2 Bft)
16.10.2018 19:05 10,8 °C 76 % 1017,8 hPa 0,0 mm 5,4 km/h (1 Bft) S 175 ° 0 min 0,000 mm 0,0 UV-I 0 W/m² 6,7 °C 10,8 °C 6,4 km/h (2 Bft)
16.10.2018 19:06 10,7 °C 76 % 1017,8 hPa 0,0 mm 5,2 km/h (1 Bft) S 175 ° 0 min 0,000 mm 0,0 UV-I 0 W/m² 6,6 °C 10,7 °C 6,4 km/h (2 Bft)
16.10.2018 19:07 10,6 °C 76 % 1017,7 hPa 0,0 mm 5,0 km/h (1 Bft) S 175 ° 0 min 0,000 mm 0,0 UV-I 0 W/m² 6,5 °C 10,6 °C 6,4 km/h (2 Bft)
16.10.2018 19:08 10,5 °C 76 % 1017,8 hPa 0,0 mm 4,8 km/h (1 Bft) S 175 ° 0 min 0,000 mm 0,0 UV-I 0 W/m² 6,5 °C 10,5 °C 6,4 km/h (2 Bft)
16.10.2018 19:09 10,4 °C 77 % 1017,8 hPa 0,0 mm 4,9 km/h (1 Bft) S 175 ° 0 min 0,000 mm 0,0 UV-I 0 W/m² 6,5 °C 10,4 °C 6,4 km/h (2 Bft)
16.10.2018 19:10 10,4 °C 77 % 1017,8 hPa 0,0 mm 4,7 km/h (1 Bft) S 175 ° 0 min 0,000 mm 0,0 UV-I 0 W/m² 6,5 °C 10,4 °C 6,4 km/h (2 Bft)
16.10.2018 19:11 10,4 °C 77 % 1017,8 hPa 0,0 mm 3,8 km/h (1 Bft) S 175 ° 0 min 0,000 mm 0,0 UV-I 0 W/m² 6,5 °C 10,4 °C 6,4 km/h (2 Bft)
16.10.2018 19:12 10,5 °C 77 % 1017,9 hPa 0,0 mm 3,8 km/h (1 Bft) S 175 ° 0 min 0,000 mm 0,0 UV-I 0 W/m² 6,6 °C 10,5 °C 4,8 km/h (1 Bft)
16.10.2018 19:13 10,5 °C 77 % 1017,9 hPa 0,0 mm 4,2 km/h (1 Bft) S 175 ° 0 min 0,000 mm 0,0 UV-I 0 W/m² 6,6 °C 10,5 °C 6,4 km/h (2 Bft)
16.10.2018 19:14 10,4 °C 76 % 1017,9 hPa 0,0 mm 3,6 km/h (1 Bft) S 175 ° 0 min 0,000 mm 0,0 UV-I 0 W/m² 6,4 °C 10,4 °C 4,8 km/h (1 Bft)
16.10.2018 19:15 10,4 °C 77 % 1017,9 hPa 0,0 mm 3,6 km/h (1 Bft) S 175 ° 0 min 0,000 mm 0,0 UV-I 0 W/m² 6,5 °C 10,4 °C 4,8 km/h (1 Bft)
16.10.2018 19:16 10,3 °C 77 % 1017,8 hPa 0,0 mm 1,7 km/h (1 Bft) S 175 ° 0 min 0,000 mm 0,0 UV-I 0 W/m² 6,4 °C 10,3 °C 4,8 km/h (1 Bft)
16.10.2018 19:17 10,3 °C 77 % 1017,9 hPa 0,0 mm 0,7 km/h (0 Bft) S 175 ° 0 min 0,000 mm 0,0 UV-I 0 W/m² 6,4 °C 10,3 °C 3,2 km/h (1 Bft)
16.10.2018 19:18 10,3 °C 77 % 1017,9 hPa 0,0 mm 0,0 km/h (0 Bft) S 175 ° 0 min 0,000 mm 0,0 UV-I 0 W/m² 6,4 °C 10,3 °C 0,0 km/h (0 Bft)
16.10.2018 19:19 10,1 °C 77 % 1017,9 hPa 0,0 mm 0,0 km/h (0 Bft) S 175 ° 0 min 0,000 mm 0,0 UV-I 0 W/m² 6,3 °C 10,1 °C 0,0 km/h (0 Bft)
16.10.2018 19:20 9,9 °C 78 % 1017,9 hPa 0,0 mm 0,0 km/h (0 Bft) S 175 ° 0 min 0,000 mm 0,0 UV-I 0 W/m² 6,2 °C 9,9 °C 0,0 km/h (0 Bft)
16.10.2018 19:21 9,9 °C 79 % 1018,0 hPa 0,0 mm 0,0 km/h (0 Bft) S 175 ° 0 min 0,000 mm 0,0 UV-I 0 W/m² 6,4 °C 9,9 °C 0,0 km/h (0 Bft)
16.10.2018 19:22 9,8 °C 79 % 1018,0 hPa 0,0 mm 0,0 km/h (0 Bft) S 175 ° 0 min 0,000 mm 0,0 UV-I 0 W/m² 6,3 °C 9,8 °C 0,0 km/h (0 Bft)
16.10.2018 19:23 9,8 °C 79 % 1018,0 hPa 0,0 mm 0,0 km/h (0 Bft) S 175 ° 0 min 0,000 mm 0,0 UV-I 0 W/m² 6,3 °C 9,8 °C 0,0 km/h (0 Bft)
16.10.2018 19:24 9,8 °C 79 % 1018,0 hPa 0,0 mm 0,0 km/h (0 Bft) S 175 ° 0 min 0,000 mm 0,0 UV-I 0 W/m² 6,3 °C 9,8 °C 0,0 km/h (0 Bft)
16.10.2018 19:25 9,9 °C 79 % 1018,0 hPa 0,0 mm 0,0 km/h (0 Bft) S 175 ° 0 min 0,000 mm 0,0 UV-I 0 W/m² 6,4 °C 9,9 °C 0,0 km/h (0 Bft)
16.10.2018 19:26 9,8 °C 79 % 1018,0 hPa 0,0 mm 0,0 km/h (0 Bft) S 175 ° 0 min 0,000 mm 0,0 UV-I 0 W/m² 6,3 °C 9,8 °C 0,0 km/h (0 Bft)
16.10.2018 19:27 9,9 °C 79 % 1018,0 hPa 0,0 mm 0,0 km/h (0 Bft) S 175 ° 0 min 0,000 mm 0,0 UV-I 0 W/m² 6,4 °C 9,9 °C 0,0 km/h (0 Bft)
16.10.2018 19:28 9,9 °C 79 % 1018,0 hPa 0,0 mm 0,0 km/h (0 Bft) S 175 ° 0 min 0,000 mm 0,0 UV-I 0 W/m² 6,4 °C 9,9 °C 0,0 km/h (0 Bft)
16.10.2018 19:29 10,0 °C 79 % 1018,0 hPa 0,0 mm 0,0 km/h (0 Bft) S 175 ° 0 min 0,000 mm 0,0 UV-I 0 W/m² 6,5 °C 10,0 °C 0,0 km/h (0 Bft)
16.10.2018 19:30 10,0 °C 78 % 1018,1 hPa 0,0 mm 0,0 km/h (0 Bft) S 175 ° 0 min 0,000 mm 0,0 UV-I 0 W/m² 6,3 °C 10,0 °C 0,0 km/h (0 Bft)
16.10.2018 19:31 10,0 °C 78 % 1018,0 hPa 0,0 mm 0,0 km/h (0 Bft) S 175 ° 0 min 0,000 mm 0,0 UV-I 0 W/m² 6,3 °C 10,0 °C 0,0 km/h (0 Bft)
16.10.2018 19:32 9,9 °C 78 % 1018,1 hPa 0,0 mm 0,0 km/h (0 Bft) S 175 ° 0 min 0,000 mm 0,0 UV-I 0 W/m² 6,2 °C 9,9 °C 0,0 km/h (0 Bft)
16.10.2018 19:33 10,0 °C 78 % 1018,1 hPa 0,0 mm 0,0 km/h (0 Bft) S 175 ° 0 min 0,000 mm 0,0 UV-I 0 W/m² 6,3 °C 10,0 °C 0,0 km/h (0 Bft)
16.10.2018 19:34 10,1 °C 78 % 1018,1 hPa 0,0 mm 0,0 km/h (0 Bft) S 175 ° 0 min 0,000 mm 0,0 UV-I 0 W/m² 6,4 °C 10,1 °C 0,0 km/h (0 Bft)
16.10.2018 19:35 10,1 °C 78 % 1018,1 hPa 0,0 mm 0,0 km/h (0 Bft) S 175 ° 0 min 0,000 mm 0,0 UV-I 0 W/m² 6,4 °C 10,1 °C 0,0 km/h (0 Bft)
16.10.2018 19:36 10,1 °C 78 % 1018,1 hPa 0,0 mm 0,0 km/h (0 Bft) S 175 ° 0 min 0,000 mm 0,0 UV-I 0 W/m² 6,4 °C 10,1 °C 0,0 km/h (0 Bft)
16.10.2018 19:37 10,0 °C 78 % 1018,2 hPa 0,0 mm 0,0 km/h (0 Bft) S 175 ° 0 min 0,000 mm 0,0 UV-I 0 W/m² 6,3 °C 10,0 °C 0,0 km/h (0 Bft)
16.10.2018 19:38 10,0 °C 78 % 1018,2 hPa 0,0 mm 0,0 km/h (0 Bft) S 175 ° 0 min 0,000 mm 0,0 UV-I 0 W/m² 6,3 °C 10,0 °C 0,0 km/h (0 Bft)
16.10.2018 19:39 9,9 °C 78 % 1018,2 hPa 0,0 mm 0,0 km/h (0 Bft) S 175 ° 0 min 0,000 mm 0,0 UV-I 0 W/m² 6,2 °C 9,9 °C 0,0 km/h (0 Bft)
16.10.2018 19:40 9,9 °C 78 % 1018,2 hPa 0,0 mm 0,0 km/h (0 Bft) S 175 ° 0 min 0,000 mm 0,0 UV-I 0 W/m² 6,2 °C 9,9 °C 0,0 km/h (0 Bft)
16.10.2018 19:41 9,9 °C 77 % 1018,2 hPa 0,0 mm 0,0 km/h (0 Bft) S 175 ° 0 min 0,000 mm 0,0 UV-I 0 W/m² 6,1 °C 9,9 °C 0,0 km/h (0 Bft)
16.10.2018 19:42 9,9 °C 77 % 1018,2 hPa 0,0 mm 0,0 km/h (0 Bft) S 175 ° 0 min 0,000 mm 0,0 UV-I 0 W/m² 6,1 °C 9,9 °C 0,0 km/h (0 Bft)
16.10.2018 19:43 9,9 °C 77 % 1018,2 hPa 0,0 mm 0,0 km/h (0 Bft) S 175 ° 0 min 0,000 mm 0,0 UV-I 0 W/m² 6,1 °C 9,9 °C 0,0 km/h (0 Bft)
16.10.2018 19:44 9,8 °C 78 % 1018,2 hPa 0,0 mm 0,0 km/h (0 Bft) S 175 ° 0 min 0,000 mm 0,0 UV-I 0 W/m² 6,1 °C 9,8 °C 0,0 km/h (0 Bft)
16.10.2018 19:45 9,8 °C 78 % 1018,2 hPa 0,0 mm 0,0 km/h (0 Bft) S 175 ° 0 min 0,000 mm 0,0 UV-I 0 W/m² 6,1 °C 9,8 °C 0,0 km/h (0 Bft)
16.10.2018 19:46 9,7 °C 79 % 1018,2 hPa 0,0 mm 0,0 km/h (0 Bft) S 175 ° 0 min 0,000 mm 0,0 UV-I 0 W/m² 6,2 °C 9,7 °C 0,0 km/h (0 Bft)
16.10.2018 19:47 9,7 °C 79 % 1018,3 hPa 0,0 mm 0,0 km/h (0 Bft) S 175 ° 0 min 0,000 mm 0,0 UV-I 0 W/m² 6,2 °C 9,7 °C 0,0 km/h (0 Bft)
16.10.2018 19:48 9,7 °C 79 % 1018,3 hPa 0,0 mm 0,0 km/h (0 Bft) S 175 ° 0 min 0,000 mm 0,0 UV-I 0 W/m² 6,2 °C 9,7 °C 0,0 km/h (0 Bft)
16.10.2018 19:49 9,7 °C 79 % 1018,3 hPa 0,0 mm 0,0 km/h (0 Bft) S 175 ° 0 min 0,000 mm 0,0 UV-I 0 W/m² 6,2 °C 9,7 °C 0,0 km/h (0 Bft)
16.10.2018 19:50 9,7 °C 78 % 1018,2 hPa 0,0 mm 0,0 km/h (0 Bft) S 175 ° 0 min 0,000 mm 0,0 UV-I 0 W/m² 6,1 °C 9,7 °C 0,0 km/h (0 Bft)
16.10.2018 19:51 9,7 °C 77 % 1018,3 hPa 0,0 mm 0,0 km/h (0 Bft) S 175 ° 0 min 0,000 mm 0,0 UV-I 0 W/m² 5,9 °C 9,7 °C 0,0 km/h (0 Bft)
16.10.2018 19:52 9,7 °C 79 % 1018,3 hPa 0,0 mm 0,0 km/h (0 Bft) S 175 ° 0 min 0,000 mm 0,0 UV-I 0 W/m² 6,2 °C 9,7 °C 0,0 km/h (0 Bft)
16.10.2018 19:53 9,6 °C 79 % 1018,3 hPa 0,0 mm 0,0 km/h (0 Bft) S 175 ° 0 min 0,000 mm 0,0 UV-I 0 W/m² 6,1 °C 9,6 °C 0,0 km/h (0 Bft)
16.10.2018 19:54 9,6 °C 79 % 1018,3 hPa 0,0 mm 0,0 km/h (0 Bft) S 175 ° 0 min 0,000 mm 0,0 UV-I 0 W/m² 6,1 °C 9,6 °C 0,0 km/h (0 Bft)
16.10.2018 19:55 9,6 °C 79 % 1018,3 hPa 0,0 mm 0,0 km/h (0 Bft) S 175 ° 0 min 0,000 mm 0,0 UV-I 0 W/m² 6,1 °C 9,6 °C 0,0 km/h (0 Bft)
16.10.2018 19:56 9,6 °C 79 % 1018,3 hPa 0,0 mm 0,0 km/h (0 Bft) S 175 ° 0 min 0,000 mm 0,0 UV-I 0 W/m² 6,1 °C 9,6 °C 0,0 km/h (0 Bft)
16.10.2018 19:57 9,6 °C 78 % 1018,3 hPa 0,0 mm 0,0 km/h (0 Bft) S 175 ° 0 min 0,000 mm 0,0 UV-I 0 W/m² 6,0 °C 9,6 °C 0,0 km/h (0 Bft)
16.10.2018 19:58 9,6 °C 78 % 1018,3 hPa 0,0 mm 0,0 km/h (0 Bft) S 175 ° 0 min 0,000 mm 0,0 UV-I 0 W/m² 6,0 °C 9,6 °C 0,0 km/h (0 Bft)
16.10.2018 19:59 9,6 °C 78 % 1018,3 hPa 0,0 mm 0,0 km/h (0 Bft) S 175 ° 0 min 0,000 mm 0,0 UV-I 0 W/m² 6,0 °C 9,6 °C 0,0 km/h (0 Bft)
16.10.2018 20:00 9,6 °C 78 % 1018,3 hPa 0,0 mm 0,0 km/h (0 Bft) S 175 ° 0 min 0,000 mm 0,0 UV-I 0 W/m² 6,0 °C 9,6 °C 0,0 km/h (0 Bft)
16.10.2018 20:01 9,6 °C 78 % 1018,3 hPa 0,0 mm 0,0 km/h (0 Bft) S 175 ° 0 min 0,025 mm 0,0 UV-I 0 W/m² 6,0 °C 9,6 °C 0,0 km/h (0 Bft)
16.10.2018 20:02 9,4 °C 79 % 1018,3 hPa 0,0 mm 0,0 km/h (0 Bft) S 175 ° 0 min 0,000 mm 0,0 UV-I 0 W/m² 5,9 °C 9,4 °C 0,0 km/h (0 Bft)
16.10.2018 20:03 9,4 °C 79 % 1018,4 hPa 0,0 mm 0,0 km/h (0 Bft) S 175 ° 0 min 0,000 mm 0,0 UV-I 0 W/m² 5,9 °C 9,4 °C 0,0 km/h (0 Bft)
16.10.2018 20:04 9,4 °C 80 % 1018,3 hPa 0,0 mm 0,0 km/h (0 Bft) S 175 ° 0 min 0,000 mm 0,0 UV-I 0 W/m² 6,1 °C 9,4 °C 0,0 km/h (0 Bft)
16.10.2018 20:05 9,4 °C 80 % 1018,3 hPa 0,0 mm 0,0 km/h (0 Bft) S 175 ° 0 min 0,000 mm 0,0 UV-I 0 W/m² 6,1 °C 9,4 °C 0,0 km/h (0 Bft)
16.10.2018 20:06 9,4 °C 80 % 1018,4 hPa 0,0 mm 0,0 km/h (0 Bft) S 175 ° 0 min 0,000 mm 0,0 UV-I 0 W/m² 6,1 °C 9,4 °C 0,0 km/h (0 Bft)
16.10.2018 20:07 9,4 °C 80 % 1018,3 hPa 0,0 mm 0,0 km/h (0 Bft) S 175 ° 0 min 0,000 mm 0,0 UV-I 0 W/m² 6,1 °C 9,4 °C 0,0 km/h (0 Bft)
16.10.2018 20:08 9,4 °C 79 % 1018,4 hPa 0,0 mm 0,0 km/h (0 Bft) S 175 ° 0 min 0,000 mm 0,0 UV-I 0 W/m² 5,9 °C 9,4 °C 0,0 km/h (0 Bft)
16.10.2018 20:09 9,4 °C 79 % 1018,3 hPa 0,0 mm 0,0 km/h (0 Bft) S 175 ° 0 min 0,000 mm 0,0 UV-I 0 W/m² 5,9 °C 9,4 °C 0,0 km/h (0 Bft)
16.10.2018 20:10 9,4 °C 79 % 1018,3 hPa 0,0 mm 0,0 km/h (0 Bft) S 175 ° 0 min 0,000 mm 0,0 UV-I 0 W/m² 5,9 °C 9,4 °C 0,0 km/h (0 Bft)
16.10.2018 20:11 9,4 °C 79 % 1018,3 hPa 0,0 mm 0,0 km/h (0 Bft) S 175 ° 0 min 0,000 mm 0,0 UV-I 0 W/m² 5,9 °C 9,4 °C 0,0 km/h (0 Bft)
16.10.2018 20:12 9,4 °C 79 % 1018,3 hPa 0,0 mm 0,0 km/h (0 Bft) S 175 ° 0 min 0,000 mm 0,0 UV-I 0 W/m² 5,9 °C 9,4 °C 0,0 km/h (0 Bft)
16.10.2018 20:13 9,4 °C 79 % 1018,4 hPa 0,0 mm 0,0 km/h (0 Bft) S 175 ° 0 min 0,000 mm 0,0 UV-I 0 W/m² 5,9 °C 9,4 °C 0,0 km/h (0 Bft)
16.10.2018 20:14 9,3 °C 79 % 1018,4 hPa 0,0 mm 0,0 km/h (0 Bft) S 175 ° 0 min 0,000 mm 0,0 UV-I 0 W/m² 5,8 °C 9,3 °C 0,0 km/h (0 Bft)
16.10.2018 20:15 9,3 °C 80 % 1018,4 hPa 0,0 mm 0,0 km/h (0 Bft) S 175 ° 0 min 0,000 mm 0,0 UV-I 0 W/m² 6,0 °C 9,3 °C 0,0 km/h (0 Bft)
16.10.2018 20:16 9,3 °C 80 % 1018,4 hPa 0,0 mm 0,0 km/h (0 Bft) S 175 ° 0 min 0,000 mm 0,0 UV-I 0 W/m² 6,0 °C 9,3 °C 0,0 km/h (0 Bft)
16.10.2018 20:17 9,4 °C 79 % 1018,4 hPa 0,0 mm 0,0 km/h (0 Bft) S 175 ° 0 min 0,000 mm 0,0 UV-I 0 W/m² 5,9 °C 9,4 °C 0,0 km/h (0 Bft)
16.10.2018 20:18 9,3 °C 79 % 1018,4 hPa 0,0 mm 0,0 km/h (0 Bft) S 175 ° 0 min 0,000 mm 0,0 UV-I 0 W/m² 5,8 °C 9,3 °C 0,0 km/h (0 Bft)
16.10.2018 20:19 9,4 °C 79 % 1018,4 hPa 0,0 mm 0,0 km/h (0 Bft) S 175 ° 0 min 0,000 mm 0,0 UV-I 0 W/m² 5,9 °C 9,4 °C 0,0 km/h (0 Bft)
16.10.2018 20:20 9,3 °C 79 % 1018,4 hPa 0,0 mm 0,0 km/h (0 Bft) S 175 ° 0 min 0,000 mm 0,0 UV-I 0 W/m² 5,8 °C 9,3 °C 0,0 km/h (0 Bft)
16.10.2018 20:21 9,3 °C 79 % 1018,4 hPa 0,0 mm 0,0 km/h (0 Bft) S 175 ° 0 min 0,000 mm 0,0 UV-I 0 W/m² 5,8 °C 9,3 °C 0,0 km/h (0 Bft)
16.10.2018 20:22 9,2 °C 79 % 1018,4 hPa 0,0 mm 0,0 km/h (0 Bft) S 175 ° 0 min 0,000 mm 0,0 UV-I 0 W/m² 5,8 °C 9,2 °C 0,0 km/h (0 Bft)
16.10.2018 20:23 9,2 °C 80 % 1018,4 hPa 0,0 mm 0,0 km/h (0 Bft) S 175 ° 0 min 0,000 mm 0,0 UV-I 0 W/m² 5,9 °C 9,2 °C 0,0 km/h (0 Bft)
16.10.2018 20:24 9,1 °C 80 % 1018,4 hPa 0,0 mm 0,0 km/h (0 Bft) S 175 ° 0 min 0,000 mm 0,0 UV-I 0 W/m² 5,8 °C 9,1 °C 0,0 km/h (0 Bft)
16.10.2018 20:25 9,1 °C 80 % 1018,4 hPa 0,0 mm 0,0 km/h (0 Bft) S 175 ° 0 min 0,000 mm 0,0 UV-I 0 W/m² 5,8 °C 9,1 °C 0,0 km/h (0 Bft)
16.10.2018 20:26 9,1 °C 79 % 1018,4 hPa 0,0 mm 0,0 km/h (0 Bft) S 175 ° 0 min 0,000 mm 0,0 UV-I 0 W/m² 5,7 °C 9,1 °C 0,0 km/h (0 Bft)
16.10.2018 20:27 9,1 °C 80 % 1018,5 hPa 0,0 mm 0,0 km/h (0 Bft) S 175 ° 0 min 0,000 mm 0,0 UV-I 0 W/m² 5,8 °C 9,1 °C 0,0 km/h (0 Bft)
16.10.2018 20:28 9,1 °C 80 % 1018,5 hPa 0,0 mm 0,0 km/h (0 Bft) S 175 ° 0 min 0,000 mm 0,0 UV-I 0 W/m² 5,8 °C 9,1 °C 0,0 km/h (0 Bft)
16.10.2018 20:29 9,1 °C 80 % 1018,5 hPa 0,0 mm 0,0 km/h (0 Bft) S 175 ° 0 min 0,000 mm 0,0 UV-I 0 W/m² 5,8 °C 9,1 °C 0,0 km/h (0 Bft)
16.10.2018 20:30 9,1 °C 81 % 1018,4 hPa 0,0 mm 0,0 km/h (0 Bft) S 175 ° 0 min 0,000 mm 0,0 UV-I 0 W/m² 6,0 °C 9,1 °C 0,0 km/h (0 Bft)
16.10.2018 20:31 9,1 °C 81 % 1018,4 hPa 0,0 mm 0,0 km/h (0 Bft) S 175 ° 0 min 0,000 mm 0,0 UV-I 0 W/m² 6,0 °C 9,1 °C 0,0 km/h (0 Bft)
16.10.2018 20:32 9,1 °C 80 % 1018,5 hPa 0,0 mm 0,0 km/h (0 Bft) S 175 ° 0 min 0,000 mm 0,0 UV-I 0 W/m² 5,8 °C 9,1 °C 0,0 km/h (0 Bft)
16.10.2018 20:33 9,1 °C 80 % 1018,4 hPa 0,0 mm 0,0 km/h (0 Bft) S 175 ° 0 min 0,000 mm 0,0 UV-I 0 W/m² 5,8 °C 9,1 °C 0,0 km/h (0 Bft)
16.10.2018 20:34 9,0 °C 81 % 1018,5 hPa 0,0 mm 0,0 km/h (0 Bft) S 175 ° 0 min 0,000 mm 0,0 UV-I 0 W/m² 5,9 °C 9,0 °C 0,0 km/h (0 Bft)
16.10.2018 20:35 8,9 °C 81 % 1018,5 hPa 0,0 mm 0,0 km/h (0 Bft) S 175 ° 0 min 0,000 mm 0,0 UV-I 0 W/m² 5,8 °C 8,9 °C 0,0 km/h (0 Bft)
16.10.2018 20:36 8,9 °C 81 % 1018,6 hPa 0,0 mm 0,0 km/h (0 Bft) S 175 ° 0 min 0,000 mm 0,0 UV-I 0 W/m² 5,8 °C 8,9 °C 0,0 km/h (0 Bft)
16.10.2018 20:37 8,9 °C 81 % 1018,6 hPa 0,0 mm 0,0 km/h (0 Bft) S 175 ° 0 min 0,000 mm 0,0 UV-I 0 W/m² 5,8 °C 8,9 °C 0,0 km/h (0 Bft)
16.10.2018 20:38 8,9 °C 81 % 1018,5 hPa 0,0 mm 0,0 km/h (0 Bft) S 175 ° 0 min 0,000 mm 0,0 UV-I 0 W/m² 5,8 °C 8,9 °C 0,0 km/h (0 Bft)
16.10.2018 20:39 8,9 °C 81 % 1018,5 hPa 0,0 mm 0,0 km/h (0 Bft) S 175 ° 0 min 0,000 mm 0,0 UV-I 0 W/m² 5,8 °C 8,9 °C 0,0 km/h (0 Bft)
16.10.2018 20:40 8,9 °C 81 % 1018,5 hPa 0,0 mm 0,0 km/h (0 Bft) S 175 ° 0 min 0,000 mm 0,0 UV-I 0 W/m² 5,8 °C 8,9 °C 0,0 km/h (0 Bft)
16.10.2018 20:41 8,9 °C 81 % 1018,5 hPa 0,0 mm 0,0 km/h (0 Bft) S 175 ° 0 min 0,000 mm 0,0 UV-I 0 W/m² 5,8 °C 8,9 °C 0,0 km/h (0 Bft)
16.10.2018 20:42 8,9 °C 81 % 1018,5 hPa 0,0 mm 0,0 km/h (0 Bft) S 175 ° 0 min 0,000 mm 0,0 UV-I 0 W/m² 5,8 °C 8,9 °C 0,0 km/h (0 Bft)
16.10.2018 20:43 8,9 °C 81 % 1018,5 hPa 0,0 mm 0,0 km/h (0 Bft) S 175 ° 0 min 0,000 mm 0,0 UV-I 0 W/m² 5,8 °C 8,9 °C 0,0 km/h (0 Bft)
16.10.2018 20:44 8,9 °C 81 % 1018,5 hPa 0,0 mm 0,0 km/h (0 Bft) S 175 ° 0 min 0,000 mm 0,0 UV-I 0 W/m² 5,8 °C 8,9 °C 0,0 km/h (0 Bft)
16.10.2018 20:45 8,9 °C 81 % 1018,4 hPa 0,0 mm 0,0 km/h (0 Bft) S 175 ° 0 min 0,000 mm 0,0 UV-I 0 W/m² 5,8 °C 8,9 °C 0,0 km/h (0 Bft)
16.10.2018 20:46 8,9 °C 82 % 1018,5 hPa 0,0 mm 0,0 km/h (0 Bft) S 175 ° 0 min 0,000 mm 0,0 UV-I 0 W/m² 6,0 °C 8,9 °C 0,0 km/h (0 Bft)
16.10.2018 20:47 8,9 °C 81 % 1018,4 hPa 0,0 mm 0,0 km/h (0 Bft) S 175 ° 0 min 0,000 mm 0,0 UV-I 0 W/m² 5,8 °C 8,9 °C 0,0 km/h (0 Bft)
16.10.2018 20:48 8,9 °C 81 % 1018,4 hPa 0,0 mm 0,0 km/h (0 Bft) S 175 ° 0 min 0,000 mm 0,0 UV-I 0 W/m² 5,8 °C 8,9 °C 0,0 km/h (0 Bft)
16.10.2018 20:49 9,0 °C 81 % 1018,4 hPa 0,0 mm 0,0 km/h (0 Bft) S 175 ° 0 min 0,000 mm 0,0 UV-I 0 W/m² 5,9 °C 9,0 °C 0,0 km/h (0 Bft)
16.10.2018 20:50 8,9 °C 81 % 1018,5 hPa 0,0 mm 0,0 km/h (0 Bft) S 175 ° 0 min 0,000 mm 0,0 UV-I 0 W/m² 5,8 °C 8,9 °C 0,0 km/h (0 Bft)
16.10.2018 20:51 8,9 °C 81 % 1018,5 hPa 0,0 mm 0,0 km/h (0 Bft) S 175 ° 0 min 0,000 mm 0,0 UV-I 0 W/m² 5,8 °C 8,9 °C 0,0 km/h (0 Bft)
16.10.2018 20:52 8,9 °C 81 % 1018,5 hPa 0,0 mm 0,0 km/h (0 Bft) S 175 ° 0 min 0,000 mm 0,0 UV-I 0 W/m² 5,8 °C 8,9 °C 0,0 km/h (0 Bft)
16.10.2018 20:53 8,8 °C 81 % 1018,5 hPa 0,0 mm 0,0 km/h (0 Bft) S 175 ° 0 min 0,000 mm 0,0 UV-I 0 W/m² 5,7 °C 8,8 °C 0,0 km/h (0 Bft)
16.10.2018 20:54 8,7 °C 81 % 1018,6 hPa 0,0 mm 0,0 km/h (0 Bft) S 175 ° 0 min 0,000 mm 0,0 UV-I 0 W/m² 5,6 °C 8,7 °C 0,0 km/h (0 Bft)
16.10.2018 20:55 8,6 °C 81 % 1018,6 hPa 0,0 mm 0,0 km/h (0 Bft) S 175 ° 0 min 0,000 mm 0,0 UV-I 0 W/m² 5,5 °C 8,6 °C 0,0 km/h (0 Bft)
16.10.2018 20:56 8,6 °C 81 % 1018,6 hPa 0,0 mm 0,0 km/h (0 Bft) S 175 ° 0 min 0,000 mm 0,0 UV-I 0 W/m² 5,5 °C 8,6 °C 0,0 km/h (0 Bft)
16.10.2018 20:57 8,6 °C 81 % 1018,6 hPa 0,0 mm 0,0 km/h (0 Bft) S 175 ° 0 min 0,000 mm 0,0 UV-I 0 W/m² 5,5 °C 8,6 °C 0,0 km/h (0 Bft)
16.10.2018 20:58 8,4 °C 82 % 1018,6 hPa 0,0 mm 0,0 km/h (0 Bft) S 175 ° 0 min 0,000 mm 0,0 UV-I 0 W/m² 5,5 °C 8,4 °C 0,0 km/h (0 Bft)
16.10.2018 20:59 8,4 °C 82 % 1018,6 hPa 0,0 mm 0,0 km/h (0 Bft) S 175 ° 0 min 0,000 mm 0,0 UV-I 0 W/m² 5,5 °C 8,4 °C 0,0 km/h (0 Bft)
16.10.2018 21:00 8,5 °C 83 % 1018,6 hPa 0,0 mm 0,0 km/h (0 Bft) S 175 ° 0 min 0,000 mm 0,0 UV-I 0 W/m² 5,8 °C 8,5 °C 0,0 km/h (0 Bft)
16.10.2018 21:01 8,6 °C 83 % 1018,5 hPa 0,0 mm 0,0 km/h (0 Bft) S 175 ° 0 min 0,026 mm 0,0 UV-I 0 W/m² 5,9 °C 8,6 °C 0,0 km/h (0 Bft)
16.10.2018 21:02 8,6 °C 82 % 1018,5 hPa 0,0 mm 0,0 km/h (0 Bft) S 175 ° 0 min 0,000 mm 0,0 UV-I 0 W/m² 5,7 °C 8,6 °C 0,0 km/h (0 Bft)
16.10.2018 21:03 8,7 °C 82 % 1018,5 hPa 0,0 mm 0,0 km/h (0 Bft) S 175 ° 0 min 0,000 mm 0,0 UV-I 0 W/m² 5,8 °C 8,7 °C 0,0 km/h (0 Bft)
16.10.2018 21:04 8,6 °C 82 % 1018,5 hPa 0,0 mm 0,0 km/h (0 Bft) S 175 ° 0 min 0,000 mm 0,0 UV-I 0 W/m² 5,7 °C 8,6 °C 0,0 km/h (0 Bft)
16.10.2018 21:05 8,7 °C 82 % 1018,5 hPa 0,0 mm 0,0 km/h (0 Bft) S 175 ° 0 min 0,000 mm 0,0 UV-I 0 W/m² 5,8 °C 8,7 °C 0,0 km/h (0 Bft)
16.10.2018 21:06 8,7 °C 82 % 1018,5 hPa 0,0 mm 0,0 km/h (0 Bft) S 175 ° 0 min 0,000 mm 0,0 UV-I 0 W/m² 5,8 °C 8,7 °C 0,0 km/h (0 Bft)
16.10.2018 21:07 8,6 °C 82 % 1018,5 hPa 0,0 mm 0,0 km/h (0 Bft) S 175 ° 0 min 0,000 mm 0,0 UV-I 0 W/m² 5,7 °C 8,6 °C 0,0 km/h (0 Bft)
16.10.2018 21:08 8,6 °C 82 % 1018,5 hPa 0,0 mm 0,0 km/h (0 Bft) S 175 ° 0 min 0,000 mm 0,0 UV-I 0 W/m² 5,7 °C 8,6 °C 0,0 km/h (0 Bft)
16.10.2018 21:09 8,6 °C 82 % 1018,5 hPa 0,0 mm 0,0 km/h (0 Bft) S 175 ° 0 min 0,000 mm 0,0 UV-I 0 W/m² 5,7 °C 8,6 °C 0,0 km/h (0 Bft)
16.10.2018 21:10 8,6 °C 82 % 1018,5 hPa 0,0 mm 0,0 km/h (0 Bft) S 175 ° 0 min 0,000 mm 0,0 UV-I 0 W/m² 5,7 °C 8,6 °C 0,0 km/h (0 Bft)
16.10.2018 21:11 8,6 °C 82 % 1018,5 hPa 0,0 mm 0,0 km/h (0 Bft) S 175 ° 0 min 0,000 mm 0,0 UV-I 0 W/m² 5,7 °C 8,6 °C 0,0 km/h (0 Bft)
16.10.2018 21:12 8,6 °C 82 % 1018,6 hPa 0,0 mm 0,0 km/h (0 Bft) S 175 ° 0 min 0,000 mm 0,0 UV-I 0 W/m² 5,7 °C 8,6 °C 0,0 km/h (0 Bft)
16.10.2018 21:13 8,6 °C 82 % 1018,5 hPa 0,0 mm 0,0 km/h (0 Bft) S 175 ° 0 min 0,000 mm 0,0 UV-I 0 W/m² 5,7 °C 8,6 °C 0,0 km/h (0 Bft)
16.10.2018 21:14 8,6 °C 82 % 1018,6 hPa 0,0 mm 0,0 km/h (0 Bft) S 175 ° 0 min 0,000 mm 0,0 UV-I 0 W/m² 5,7 °C 8,6 °C 0,0 km/h (0 Bft)
16.10.2018 21:15 8,6 °C 83 % 1018,6 hPa 0,0 mm 0,0 km/h (0 Bft) S 175 ° 0 min 0,000 mm 0,0 UV-I 0 W/m² 5,9 °C 8,6 °C 0,0 km/h (0 Bft)
16.10.2018 21:16 8,5 °C 83 % 1018,6 hPa 0,0 mm 0,0 km/h (0 Bft) S 175 ° 0 min 0,000 mm 0,0 UV-I 0 W/m² 5,8 °C 8,5 °C 0,0 km/h (0 Bft)
16.10.2018 21:17 8,4 °C 83 % 1018,5 hPa 0,0 mm 0,0 km/h (0 Bft) S 175 ° 0 min 0,000 mm 0,0 UV-I 0 W/m² 5,7 °C 8,4 °C 0,0 km/h (0 Bft)
16.10.2018 21:18 8,3 °C 83 % 1018,6 hPa 0,0 mm 0,0 km/h (0 Bft) S 175 ° 0 min 0,000 mm 0,0 UV-I 0 W/m² 5,6 °C 8,3 °C 0,0 km/h (0 Bft)
16.10.2018 21:19 8,3 °C 83 % 1018,5 hPa 0,0 mm 0,0 km/h (0 Bft) S 175 ° 0 min 0,000 mm 0,0 UV-I 0 W/m² 5,6 °C 8,3 °C 0,0 km/h (0 Bft)
16.10.2018 21:20 8,3 °C 83 % 1018,5 hPa 0,0 mm 0,0 km/h (0 Bft) S 175 ° 0 min 0,000 mm 0,0 UV-I 0 W/m² 5,6 °C 8,3 °C 0,0 km/h (0 Bft)
16.10.2018 21:21 8,2 °C 83 % 1018,5 hPa 0,0 mm 0,0 km/h (0 Bft) S 175 ° 0 min 0,000 mm 0,0 UV-I 0 W/m² 5,5 °C 8,2 °C 0,0 km/h (0 Bft)
16.10.2018 21:22 8,2 °C 84 % 1018,5 hPa 0,0 mm 0,0 km/h (0 Bft) S 175 ° 0 min 0,000 mm 0,0 UV-I 0 W/m² 5,7 °C 8,2 °C 0,0 km/h (0 Bft)
16.10.2018 21:23 8,2 °C 84 % 1018,5 hPa 0,0 mm 0,0 km/h (0 Bft) S 175 ° 0 min 0,000 mm 0,0 UV-I 0 W/m² 5,7 °C 8,2 °C 0,0 km/h (0 Bft)
16.10.2018 21:24 8,2 °C 84 % 1018,5 hPa 0,0 mm 0,0 km/h (0 Bft) S 175 ° 0 min 0,000 mm 0,0 UV-I 0 W/m² 5,7 °C 8,2 °C 0,0 km/h (0 Bft)
16.10.2018 21:25 8,2 °C 84 % 1018,5 hPa 0,0 mm 0,0 km/h (0 Bft) S 175 ° 0 min 0,000 mm 0,0 UV-I 0 W/m² 5,7 °C 8,2 °C 0,0 km/h (0 Bft)
16.10.2018 21:26 8,1 °C 84 % 1018,5 hPa 0,0 mm 0,0 km/h (0 Bft) S 175 ° 0 min 0,000 mm 0,0 UV-I 0 W/m² 5,6 °C 8,1 °C 0,0 km/h (0 Bft)
16.10.2018 21:27 8,1 °C 84 % 1018,5 hPa 0,0 mm 0,0 km/h (0 Bft) S 175 ° 0 min 0,000 mm 0,0 UV-I 0 W/m² 5,6 °C 8,1 °C 0,0 km/h (0 Bft)
16.10.2018 21:28 8,0 °C 84 % 1018,5 hPa 0,0 mm 0,0 km/h (0 Bft) S 175 ° 0 min 0,000 mm 0,0 UV-I 0 W/m² 5,5 °C 8,0 °C 0,0 km/h (0 Bft)
16.10.2018 21:29 8,0 °C 84 % 1018,6 hPa 0,0 mm 0,0 km/h (0 Bft) S 175 ° 0 min 0,000 mm 0,0 UV-I 0 W/m² 5,5 °C 8,0 °C 0,0 km/h (0 Bft)
16.10.2018 21:30 7,9 °C 84 % 1018,6 hPa 0,0 mm 0,0 km/h (0 Bft) S 175 ° 0 min 0,000 mm 0,0 UV-I 0 W/m² 5,4 °C 7,9 °C 0,0 km/h (0 Bft)
16.10.2018 21:31 7,9 °C 85 % 1018,6 hPa 0,0 mm 0,0 km/h (0 Bft) S 175 ° 0 min 0,000 mm 0,0 UV-I 0 W/m² 5,5 °C 7,9 °C 0,0 km/h (0 Bft)
16.10.2018 21:32 7,9 °C 85 % 1018,6 hPa 0,0 mm 0,0 km/h (0 Bft) S 175 ° 0 min 0,000 mm 0,0 UV-I 0 W/m² 5,5 °C 7,9 °C 0,0 km/h (0 Bft)
16.10.2018 21:33 7,8 °C 85 % 1018,5 hPa 0,0 mm 0,0 km/h (0 Bft) S 175 ° 0 min 0,000 mm 0,0 UV-I 0 W/m² 5,4 °C 7,8 °C 0,0 km/h (0 Bft)
16.10.2018 21:34 7,8 °C 85 % 1018,6 hPa 0,0 mm 0,0 km/h (0 Bft) S 175 ° 0 min 0,000 mm 0,0 UV-I 0 W/m² 5,4 °C 7,8 °C 0,0 km/h (0 Bft)
16.10.2018 21:35 7,8 °C 85 % 1018,6 hPa 0,0 mm 0,0 km/h (0 Bft) S 175 ° 0 min 0,000 mm 0,0 UV-I 0 W/m² 5,4 °C 7,8 °C 0,0 km/h (0 Bft)
16.10.2018 21:36 7,8 °C 85 % 1018,5 hPa 0,0 mm 0,0 km/h (0 Bft) S 175 ° 0 min 0,000 mm 0,0 UV-I 0 W/m² 5,4 °C 7,8 °C 0,0 km/h (0 Bft)
16.10.2018 21:37 7,7 °C 85 % 1018,5 hPa 0,0 mm 0,0 km/h (0 Bft) S 175 ° 0 min 0,000 mm 0,0 UV-I 0 W/m² 5,3 °C 7,7 °C 0,0 km/h (0 Bft)
16.10.2018 21:38 7,7 °C 85 % 1018,5 hPa 0,0 mm 0,0 km/h (0 Bft) S 175 ° 0 min 0,000 mm 0,0 UV-I 0 W/m² 5,3 °C 7,7 °C 0,0 km/h (0 Bft)
16.10.2018 21:39 7,7 °C 85 % 1018,6 hPa 0,0 mm 0,0 km/h (0 Bft) S 175 ° 0 min 0,000 mm 0,0 UV-I 0 W/m² 5,3 °C 7,7 °C 0,0 km/h (0 Bft)
16.10.2018 21:40 7,6 °C 85 % 1018,5 hPa 0,0 mm 0,0 km/h (0 Bft) S 175 ° 0 min 0,000 mm 0,0 UV-I 0 W/m² 5,2 °C 7,6 °C 0,0 km/h (0 Bft)
16.10.2018 21:41 7,6 °C 85 % 1018,5 hPa 0,0 mm 0,0 km/h (0 Bft) S 175 ° 0 min 0,000 mm 0,0 UV-I 0 W/m² 5,2 °C 7,6 °C 0,0 km/h (0 Bft)
16.10.2018 21:42 7,6 °C 86 % 1018,5 hPa 0,0 mm 0,0 km/h (0 Bft) S 175 ° 0 min 0,000 mm 0,0 UV-I 0 W/m² 5,4 °C 7,6 °C 0,0 km/h (0 Bft)
16.10.2018 21:43 7,7 °C 86 % 1018,5 hPa 0,0 mm 0,0 km/h (0 Bft) S 175 ° 0 min 0,000 mm 0,0 UV-I 0 W/m² 5,5 °C 7,7 °C 0,0 km/h (0 Bft)
16.10.2018 21:44 7,6 °C 85 % 1018,5 hPa 0,0 mm 0,0 km/h (0 Bft) S 175 ° 0 min 0,000 mm 0,0 UV-I 0 W/m² 5,2 °C 7,6 °C 0,0 km/h (0 Bft)
16.10.2018 21:45 7,6 °C 85 % 1018,5 hPa 0,0 mm 0,0 km/h (0 Bft) S 175 ° 0 min 0,000 mm 0,0 UV-I 0 W/m² 5,2 °C 7,6 °C 0,0 km/h (0 Bft)
16.10.2018 21:46 7,6 °C 85 % 1018,5 hPa 0,0 mm 0,0 km/h (0 Bft) S 175 ° 0 min 0,000 mm 0,0 UV-I 0 W/m² 5,2 °C 7,6 °C 0,0 km/h (0 Bft)
16.10.2018 21:47 7,6 °C 85 % 1018,5 hPa 0,0 mm 0,0 km/h (0 Bft) S 175 ° 0 min 0,000 mm 0,0 UV-I 0 W/m² 5,2 °C 7,6 °C 0,0 km/h (0 Bft)
16.10.2018 21:48 7,6 °C 85 % 1018,5 hPa 0,0 mm 0,0 km/h (0 Bft) S 175 ° 0 min 0,000 mm 0,0 UV-I 0 W/m² 5,2 °C 7,6 °C 0,0 km/h (0 Bft)
16.10.2018 21:49 7,6 °C 85 % 1018,5 hPa 0,0 mm 0,0 km/h (0 Bft) S 175 ° 0 min 0,000 mm 0,0 UV-I 0 W/m² 5,2 °C 7,6 °C 0,0 km/h (0 Bft)
16.10.2018 21:50 7,6 °C 85 % 1018,5 hPa 0,0 mm 0,0 km/h (0 Bft) S 175 ° 0 min 0,000 mm 0,0 UV-I 0 W/m² 5,2 °C 7,6 °C 0,0 km/h (0 Bft)
16.10.2018 21:51 7,7 °C 85 % 1018,5 hPa 0,0 mm 0,0 km/h (0 Bft) S 175 ° 0 min 0,000 mm 0,0 UV-I 0 W/m² 5,3 °C 7,7 °C 0,0 km/h (0 Bft)
16.10.2018 21:52 7,8 °C 85 % 1018,5 hPa 0,0 mm 0,0 km/h (0 Bft) S 175 ° 0 min 0,000 mm 0,0 UV-I 0 W/m² 5,4 °C 7,8 °C 0,0 km/h (0 Bft)
16.10.2018 21:53 7,9 °C 85 % 1018,5 hPa 0,0 mm 0,0 km/h (0 Bft) S 175 ° 0 min 0,000 mm 0,0 UV-I 0 W/m² 5,5 °C 7,9 °C 0,0 km/h (0 Bft)
16.10.2018 21:54 7,9 °C 84 % 1018,5 hPa 0,0 mm 0,0 km/h (0 Bft) S 175 ° 0 min 0,000 mm 0,0 UV-I 0 W/m² 5,4 °C 7,9 °C 0,0 km/h (0 Bft)
16.10.2018 21:55 8,0 °C 84 % 1018,5 hPa 0,0 mm 0,0 km/h (0 Bft) S 175 ° 0 min 0,000 mm 0,0 UV-I 0 W/m² 5,5 °C 8,0 °C 0,0 km/h (0 Bft)
16.10.2018 21:56 8,1 °C 84 % 1018,5 hPa 0,0 mm 0,0 km/h (0 Bft) S 175 ° 0 min 0,000 mm 0,0 UV-I 0 W/m² 5,6 °C 8,1 °C 0,0 km/h (0 Bft)
16.10.2018 21:57 8,2 °C 84 % 1018,6 hPa 0,0 mm 0,0 km/h (0 Bft) S 175 ° 0 min 0,000 mm 0,0 UV-I 0 W/m² 5,7 °C 8,2 °C 0,0 km/h (0 Bft)
16.10.2018 21:58 8,2 °C 84 % 1018,6 hPa 0,0 mm 0,0 km/h (0 Bft) S 175 ° 0 min 0,000 mm 0,0 UV-I 0 W/m² 5,7 °C 8,2 °C 0,0 km/h (0 Bft)
16.10.2018 21:59 8,3 °C 84 % 1018,6 hPa 0,0 mm 0,0 km/h (0 Bft) S 175 ° 0 min 0,000 mm 0,0 UV-I 0 W/m² 5,8 °C 8,3 °C 0,0 km/h (0 Bft)
16.10.2018 22:00 8,4 °C 84 % 1018,6 hPa 0,0 mm 0,0 km/h (0 Bft) S 175 ° 0 min 0,000 mm 0,0 UV-I 0 W/m² 5,9 °C 8,4 °C 0,0 km/h (0 Bft)
16.10.2018 22:01 8,4 °C 83 % 1018,6 hPa 0,0 mm 0,0 km/h (0 Bft) S 175 ° 0 min 0,000 mm 0,0 UV-I 0 W/m² 5,7 °C 8,4 °C 0,0 km/h (0 Bft)
16.10.2018 22:02 8,3 °C 83 % 1018,6 hPa 0,0 mm 0,0 km/h (0 Bft) S 175 ° 0 min 0,000 mm 0,0 UV-I 0 W/m² 5,6 °C 8,3 °C 0,0 km/h (0 Bft)
16.10.2018 22:03 8,3 °C 83 % 1018,6 hPa 0,0 mm 0,0 km/h (0 Bft) S 175 ° 0 min 0,000 mm 0,0 UV-I 0 W/m² 5,6 °C 8,3 °C 0,0 km/h (0 Bft)
16.10.2018 22:04 8,3 °C 83 % 1018,6 hPa 0,0 mm 0,0 km/h (0 Bft) S 175 ° 0 min 0,000 mm 0,0 UV-I 0 W/m² 5,6 °C 8,3 °C 0,0 km/h (0 Bft)
16.10.2018 22:05 8,2 °C 84 % 1018,6 hPa 0,0 mm 0,0 km/h (0 Bft) S 175 ° 0 min 0,000 mm 0,0 UV-I 0 W/m² 5,7 °C 8,2 °C 0,0 km/h (0 Bft)
16.10.2018 22:06 8,1 °C 84 % 1018,6 hPa 0,0 mm 0,0 km/h (0 Bft) S 175 ° 0 min 0,000 mm 0,0 UV-I 0 W/m² 5,6 °C 8,1 °C 0,0 km/h (0 Bft)
16.10.2018 22:07 8,1 °C 84 % 1018,6 hPa 0,0 mm 0,0 km/h (0 Bft) S 175 ° 0 min 0,000 mm 0,0 UV-I 0 W/m² 5,6 °C 8,1 °C 0,0 km/h (0 Bft)
16.10.2018 22:08 8,0 °C 84 % 1018,6 hPa 0,0 mm 0,0 km/h (0 Bft) S 175 ° 0 min 0,000 mm 0,0 UV-I 0 W/m² 5,5 °C 8,0 °C 0,0 km/h (0 Bft)
16.10.2018 22:09 7,9 °C 84 % 1018,6 hPa 0,0 mm 0,0 km/h (0 Bft) S 175 ° 0 min 0,000 mm 0,0 UV-I 0 W/m² 5,4 °C 7,9 °C 0,0 km/h (0 Bft)
16.10.2018 22:10 7,8 °C 84 % 1018,6 hPa 0,0 mm 0,0 km/h (0 Bft) S 175 ° 0 min 0,000 mm 0,0 UV-I 0 W/m² 5,3 °C 7,8 °C 0,0 km/h (0 Bft)
16.10.2018 22:11 7,7 °C 84 % 1018,6 hPa 0,0 mm 0,0 km/h (0 Bft) S 175 ° 0 min 0,000 mm 0,0 UV-I 0 W/m² 5,2 °C 7,7 °C 0,0 km/h (0 Bft)
16.10.2018 22:12 7,6 °C 85 % 1018,6 hPa 0,0 mm 0,0 km/h (0 Bft) S 175 ° 0 min 0,000 mm 0,0 UV-I 0 W/m² 5,2 °C 7,6 °C 0,0 km/h (0 Bft)
16.10.2018 22:13 7,4 °C 85 % 1018,6 hPa 0,0 mm 0,0 km/h (0 Bft) S 175 ° 0 min 0,000 mm 0,0 UV-I 0 W/m² 5,0 °C 7,4 °C 0,0 km/h (0 Bft)
16.10.2018 22:14 7,4 °C 85 % 1018,6 hPa 0,0 mm 0,0 km/h (0 Bft) S 175 ° 0 min 0,000 mm 0,0 UV-I 0 W/m² 5,0 °C 7,4 °C 0,0 km/h (0 Bft)
16.10.2018 22:15 7,3 °C 86 % 1018,6 hPa 0,0 mm 0,0 km/h (0 Bft) S 175 ° 0 min 0,000 mm 0,0 UV-I 0 W/m² 5,1 °C 7,3 °C 0,0 km/h (0 Bft)
16.10.2018 22:16 7,3 °C 87 % 1018,6 hPa 0,0 mm 0,0 km/h (0 Bft) S 175 ° 0 min 0,000 mm 0,0 UV-I 0 W/m² 5,3 °C 7,3 °C 0,0 km/h (0 Bft)
16.10.2018 22:17 7,3 °C 87 % 1018,6 hPa 0,0 mm 0,0 km/h (0 Bft) S 175 ° 0 min 0,000 mm 0,0 UV-I 0 W/m² 5,3 °C 7,3 °C 0,0 km/h (0 Bft)
16.10.2018 22:18 7,3 °C 87 % 1018,5 hPa 0,0 mm 0,0 km/h (0 Bft) S 175 ° 0 min 0,000 mm 0,0 UV-I 0 W/m² 5,3 °C 7,3 °C 0,0 km/h (0 Bft)
16.10.2018 22:19 7,3 °C 87 % 1018,5 hPa 0,0 mm 0,0 km/h (0 Bft) S 175 ° 0 min 0,000 mm 0,0 UV-I 0 W/m² 5,3 °C 7,3 °C 0,0 km/h (0 Bft)
16.10.2018 22:20 7,3 °C 87 % 1018,5 hPa 0,0 mm 0,0 km/h (0 Bft) S 175 ° 0 min 0,000 mm 0,0 UV-I 0 W/m² 5,3 °C 7,3 °C 0,0 km/h (0 Bft)
16.10.2018 22:21 7,3 °C 87 % 1018,5 hPa 0,0 mm 0,0 km/h (0 Bft) S 175 ° 0 min 0,000 mm 0,0 UV-I 0 W/m² 5,3 °C 7,3 °C 0,0 km/h (0 Bft)
16.10.2018 22:22 7,3 °C 88 % 1018,5 hPa 0,0 mm 0,0 km/h (0 Bft) S 175 ° 0 min 0,000 mm 0,0 UV-I 0 W/m² 5,4 °C 7,3 °C 0,0 km/h (0 Bft)
16.10.2018 22:23 7,2 °C 88 % 1018,5 hPa 0,0 mm 0,0 km/h (0 Bft) S 175 ° 0 min 0,000 mm 0,0 UV-I 0 W/m² 5,3 °C 7,2 °C 0,0 km/h (0 Bft)
16.10.2018 22:24 7,3 °C 88 % 1018,5 hPa 0,0 mm 0,0 km/h (0 Bft) S 175 ° 0 min 0,000 mm 0,0 UV-I 0 W/m² 5,4 °C 7,3 °C 0,0 km/h (0 Bft)
16.10.2018 22:25 7,2 °C 88 % 1018,5 hPa 0,0 mm 0,0 km/h (0 Bft) S 175 ° 0 min 0,000 mm 0,0 UV-I 0 W/m² 5,3 °C 7,2 °C 0,0 km/h (0 Bft)
16.10.2018 22:26 7,2 °C 88 % 1018,5 hPa 0,0 mm 0,0 km/h (0 Bft) S 175 ° 0 min 0,000 mm 0,0 UV-I 0 W/m² 5,3 °C 7,2 °C 0,0 km/h (0 Bft)
16.10.2018 22:27 7,1 °C 88 % 1018,5 hPa 0,0 mm 0,0 km/h (0 Bft) S 175 ° 0 min 0,000 mm 0,0 UV-I 0 W/m² 5,2 °C 7,1 °C 0,0 km/h (0 Bft)
16.10.2018 22:28 7,0 °C 88 % 1018,5 hPa 0,0 mm 0,0 km/h (0 Bft) S 175 ° 0 min 0,000 mm 0,0 UV-I 0 W/m² 5,2 °C 7,0 °C 0,0 km/h (0 Bft)
16.10.2018 22:29 6,9 °C 88 % 1018,5 hPa 0,0 mm 0,0 km/h (0 Bft) S 175 ° 0 min 0,000 mm 0,0 UV-I 0 W/m² 5,1 °C 6,9 °C 0,0 km/h (0 Bft)
16.10.2018 22:30 6,9 °C 89 % 1018,5 hPa 0,0 mm 0,0 km/h (0 Bft) S 175 ° 0 min 0,000 mm 0,0 UV-I 0 W/m² 5,2 °C 6,9 °C 0,0 km/h (0 Bft)
16.10.2018 22:31 6,9 °C 89 % 1018,5 hPa 0,0 mm 0,0 km/h (0 Bft) S 175 ° 0 min 0,000 mm 0,0 UV-I 0 W/m² 5,2 °C 6,9 °C 0,0 km/h (0 Bft)
16.10.2018 22:32 6,9 °C 89 % 1018,5 hPa 0,0 mm 0,0 km/h (0 Bft) S 175 ° 0 min 0,000 mm 0,0 UV-I 0 W/m² 5,2 °C 6,9 °C 0,0 km/h (0 Bft)
16.10.2018 22:33 6,9 °C 89 % 1018,5 hPa 0,0 mm 0,0 km/h (0 Bft) S 175 ° 0 min 0,000 mm 0,0 UV-I 0 W/m² 5,2 °C 6,9 °C 0,0 km/h (0 Bft)
16.10.2018 22:34 6,9 °C 89 % 1018,5 hPa 0,0 mm 0,0 km/h (0 Bft) S 175 ° 0 min 0,000 mm 0,0 UV-I 0 W/m² 5,2 °C 6,9 °C 0,0 km/h (0 Bft)
16.10.2018 22:35 6,9 °C 89 % 1018,5 hPa 0,0 mm 0,0 km/h (0 Bft) S 175 ° 0 min 0,000 mm 0,0 UV-I 0 W/m² 5,2 °C 6,9 °C 0,0 km/h (0 Bft)
16.10.2018 22:36 7,1 °C 89 % 1018,5 hPa 0,0 mm 0,0 km/h (0 Bft) S 175 ° 0 min 0,000 mm 0,0 UV-I 0 W/m² 5,4 °C 7,1 °C 0,0 km/h (0 Bft)
16.10.2018 22:37 7,1 °C 89 % 1018,5 hPa 0,0 mm 0,0 km/h (0 Bft) S 175 ° 0 min 0,000 mm 0,0 UV-I 0 W/m² 5,4 °C 7,1 °C 0,0 km/h (0 Bft)
16.10.2018 22:38 7,2 °C 88 % 1018,5 hPa 0,0 mm 0,0 km/h (0 Bft) S 175 ° 0 min 0,000 mm 0,0 UV-I 0 W/m² 5,3 °C 7,2 °C 0,0 km/h (0 Bft)
16.10.2018 22:39 7,3 °C 88 % 1018,5 hPa 0,0 mm 0,0 km/h (0 Bft) S 175 ° 0 min 0,000 mm 0,0 UV-I 0 W/m² 5,4 °C 7,3 °C 0,0 km/h (0 Bft)
16.10.2018 22:40 7,3 °C 87 % 1018,5 hPa 0,0 mm 0,0 km/h (0 Bft) S 175 ° 0 min 0,000 mm 0,0 UV-I 0 W/m² 5,3 °C 7,3 °C 0,0 km/h (0 Bft)
16.10.2018 22:41 7,3 °C 87 % 1018,5 hPa 0,0 mm 0,0 km/h (0 Bft) S 175 ° 0 min 0,000 mm 0,0 UV-I 0 W/m² 5,3 °C 7,3 °C 0,0 km/h (0 Bft)
16.10.2018 22:42 7,3 °C 87 % 1018,5 hPa 0,0 mm 0,0 km/h (0 Bft) S 175 ° 0 min 0,000 mm 0,0 UV-I 0 W/m² 5,3 °C 7,3 °C 0,0 km/h (0 Bft)
16.10.2018 22:43 7,3 °C 86 % 1018,5 hPa 0,0 mm 0,0 km/h (0 Bft) S 175 ° 0 min 0,000 mm 0,0 UV-I 0 W/m² 5,1 °C 7,3 °C 0,0 km/h (0 Bft)
16.10.2018 22:44 7,2 °C 87 % 1018,5 hPa 0,0 mm 0,0 km/h (0 Bft) S 175 ° 0 min 0,000 mm 0,0 UV-I 0 W/m² 5,2 °C 7,2 °C 0,0 km/h (0 Bft)
16.10.2018 22:45 7,2 °C 87 % 1018,5 hPa 0,0 mm 0,0 km/h (0 Bft) S 175 ° 0 min 0,000 mm 0,0 UV-I 0 W/m² 5,2 °C 7,2 °C 0,0 km/h (0 Bft)
16.10.2018 22:46 7,2 °C 87 % 1018,5 hPa 0,0 mm 0,0 km/h (0 Bft) S 175 ° 0 min 0,000 mm 0,0 UV-I 0 W/m² 5,2 °C 7,2 °C 0,0 km/h (0 Bft)
16.10.2018 22:47 7,2 °C 87 % 1018,5 hPa 0,0 mm 0,0 km/h (0 Bft) S 175 ° 0 min 0,000 mm 0,0 UV-I 0 W/m² 5,2 °C 7,2 °C 0,0 km/h (0 Bft)
16.10.2018 22:48 7,2 °C 87 % 1018,5 hPa 0,0 mm 0,0 km/h (0 Bft) S 175 ° 0 min 0,000 mm 0,0 UV-I 0 W/m² 5,2 °C 7,2 °C 0,0 km/h (0 Bft)
16.10.2018 22:49 7,2 °C 87 % 1018,5 hPa 0,0 mm 0,0 km/h (0 Bft) S 175 ° 0 min 0,000 mm 0,0 UV-I 0 W/m² 5,2 °C 7,2 °C 0,0 km/h (0 Bft)
16.10.2018 22:50 7,2 °C 87 % 1018,5 hPa 0,0 mm 0,0 km/h (0 Bft) S 175 ° 0 min 0,000 mm 0,0 UV-I 0 W/m² 5,2 °C 7,2 °C 0,0 km/h (0 Bft)
16.10.2018 22:51 7,2 °C 87 % 1018,5 hPa 0,0 mm 0,0 km/h (0 Bft) S 175 ° 0 min 0,000 mm 0,0 UV-I 0 W/m² 5,2 °C 7,2 °C 0,0 km/h (0 Bft)
16.10.2018 22:52 7,1 °C 87 % 1018,5 hPa 0,0 mm 0,0 km/h (0 Bft) S 175 ° 0 min 0,000 mm 0,0 UV-I 0 W/m² 5,1 °C 7,1 °C 0,0 km/h (0 Bft)
16.10.2018 22:53 7,1 °C 87 % 1018,5 hPa 0,0 mm 0,0 km/h (0 Bft) S 175 ° 0 min 0,000 mm 0,0 UV-I 0 W/m² 5,1 °C 7,1 °C 0,0 km/h (0 Bft)
16.10.2018 22:54 7,0 °C 87 % 1018,5 hPa 0,0 mm 0,0 km/h (0 Bft) S 175 ° 0 min 0,000 mm 0,0 UV-I 0 W/m² 5,0 °C 7,0 °C 0,0 km/h (0 Bft)
16.10.2018 22:55 7,0 °C 87 % 1018,5 hPa 0,0 mm 0,0 km/h (0 Bft) S 175 ° 0 min 0,000 mm 0,0 UV-I 0 W/m² 5,0 °C 7,0 °C 0,0 km/h (0 Bft)
16.10.2018 22:56 7,0 °C 87 % 1018,5 hPa 0,0 mm 0,0 km/h (0 Bft) S 175 ° 0 min 0,000 mm 0,0 UV-I 0 W/m² 5,0 °C 7,0 °C 0,0 km/h (0 Bft)
16.10.2018 22:57 7,1 °C 88 % 1018,4 hPa 0,0 mm 0,0 km/h (0 Bft) S 175 ° 0 min 0,000 mm 0,0 UV-I 0 W/m² 5,2 °C 7,1 °C 0,0 km/h (0 Bft)
16.10.2018 22:58 7,1 °C 87 % 1018,4 hPa 0,0 mm 0,0 km/h (0 Bft) S 175 ° 0 min 0,000 mm 0,0 UV-I 0 W/m² 5,1 °C 7,1 °C 0,0 km/h (0 Bft)
16.10.2018 22:59 7,1 °C 87 % 1018,5 hPa 0,0 mm 0,0 km/h (0 Bft) S 175 ° 0 min 0,000 mm 0,0 UV-I 0 W/m² 5,1 °C 7,1 °C 0,0 km/h (0 Bft)
16.10.2018 23:00 7,1 °C 87 % 1018,4 hPa 0,0 mm 0,0 km/h (0 Bft) S 175 ° 0 min 0,000 mm 0,0 UV-I 0 W/m² 5,1 °C 7,1 °C 0,0 km/h (0 Bft)
16.10.2018 23:01 7,1 °C 87 % 1018,5 hPa 0,0 mm 0,0 km/h (0 Bft) S 175 ° 0 min 0,000 mm 0,0 UV-I 0 W/m² 5,1 °C 7,1 °C 0,0 km/h (0 Bft)
16.10.2018 23:02 7,2 °C 87 % 1018,4 hPa 0,0 mm 0,0 km/h (0 Bft) S 175 ° 0 min 0,000 mm 0,0 UV-I 0 W/m² 5,2 °C 7,2 °C 0,0 km/h (0 Bft)
16.10.2018 23:03 7,2 °C 87 % 1018,4 hPa 0,0 mm 0,0 km/h (0 Bft) S 175 ° 0 min 0,000 mm 0,0 UV-I 0 W/m² 5,2 °C 7,2 °C 0,0 km/h (0 Bft)
16.10.2018 23:04 7,2 °C 86 % 1018,4 hPa 0,0 mm 0,0 km/h (0 Bft) S 175 ° 0 min 0,000 mm 0,0 UV-I 0 W/m² 5,0 °C 7,2 °C 0,0 km/h (0 Bft)
16.10.2018 23:05 7,1 °C 86 % 1018,4 hPa 0,0 mm 0,0 km/h (0 Bft) S 175 ° 0 min 0,000 mm 0,0 UV-I 0 W/m² 4,9 °C 7,1 °C 0,0 km/h (0 Bft)
16.10.2018 23:06 7,1 °C 86 % 1018,4 hPa 0,0 mm 0,0 km/h (0 Bft) S 175 ° 0 min 0,000 mm 0,0 UV-I 0 W/m² 4,9 °C 7,1 °C 0,0 km/h (0 Bft)
16.10.2018 23:07 7,0 °C 86 % 1018,4 hPa 0,0 mm 0,0 km/h (0 Bft) S 175 ° 0 min 0,000 mm 0,0 UV-I 0 W/m² 4,8 °C 7,0 °C 0,0 km/h (0 Bft)
16.10.2018 23:08 6,9 °C 86 % 1018,4 hPa 0,0 mm 0,0 km/h (0 Bft) S 175 ° 0 min 0,000 mm 0,0 UV-I 0 W/m² 4,7 °C 6,9 °C 0,0 km/h (0 Bft)
16.10.2018 23:09 6,9 °C 86 % 1018,4 hPa 0,0 mm 0,0 km/h (0 Bft) S 175 ° 0 min 0,000 mm 0,0 UV-I 0 W/m² 4,7 °C 6,9 °C 0,0 km/h (0 Bft)
16.10.2018 23:10 6,8 °C 87 % 1018,4 hPa 0,0 mm 0,0 km/h (0 Bft) S 175 ° 0 min 0,000 mm 0,0 UV-I 0 W/m² 4,8 °C 6,8 °C 0,0 km/h (0 Bft)
16.10.2018 23:11 6,8 °C 87 % 1018,4 hPa 0,0 mm 0,0 km/h (0 Bft) S 175 ° 0 min 0,000 mm 0,0 UV-I 0 W/m² 4,8 °C 6,8 °C 0,0 km/h (0 Bft)
16.10.2018 23:12 6,8 °C 87 % 1018,4 hPa 0,0 mm 0,0 km/h (0 Bft) S 175 ° 0 min 0,000 mm 0,0 UV-I 0 W/m² 4,8 °C 6,8 °C 0,0 km/h (0 Bft)
16.10.2018 23:13 6,8 °C 87 % 1018,4 hPa 0,0 mm 0,0 km/h (0 Bft) S 175 ° 0 min 0,000 mm 0,0 UV-I 0 W/m² 4,8 °C 6,8 °C 0,0 km/h (0 Bft)
16.10.2018 23:14 6,7 °C 87 % 1018,4 hPa 0,0 mm 0,0 km/h (0 Bft) S 175 ° 0 min 0,000 mm 0,0 UV-I 0 W/m² 4,7 °C 6,7 °C 0,0 km/h (0 Bft)
16.10.2018 23:15 6,7 °C 87 % 1018,4 hPa 0,0 mm 0,0 km/h (0 Bft) S 175 ° 0 min 0,000 mm 0,0 UV-I 0 W/m² 4,7 °C 6,7 °C 0,0 km/h (0 Bft)
16.10.2018 23:16 6,7 °C 87 % 1018,4 hPa 0,0 mm 0,0 km/h (0 Bft) S 175 ° 0 min 0,000 mm 0,0 UV-I 0 W/m² 4,7 °C 6,7 °C 0,0 km/h (0 Bft)
16.10.2018 23:17 6,6 °C 88 % 1018,4 hPa 0,0 mm 0,0 km/h (0 Bft) S 175 ° 0 min 0,000 mm 0,0 UV-I 0 W/m² 4,8 °C 6,6 °C 0,0 km/h (0 Bft)
16.10.2018 23:18 6,6 °C 88 % 1018,4 hPa 0,0 mm 0,0 km/h (0 Bft) S 175 ° 0 min 0,000 mm 0,0 UV-I 0 W/m² 4,8 °C 6,6 °C 0,0 km/h (0 Bft)
16.10.2018 23:19 6,6 °C 87 % 1018,4 hPa 0,0 mm 0,0 km/h (0 Bft) S 175 ° 0 min 0,000 mm 0,0 UV-I 0 W/m² 4,6 °C 6,6 °C 0,0 km/h (0 Bft)
16.10.2018 23:20 6,4 °C 87 % 1018,3 hPa 0,0 mm 0,0 km/h (0 Bft) S 175 ° 0 min 0,000 mm 0,0 UV-I 0 W/m² 4,4 °C 6,4 °C 0,0 km/h (0 Bft)
16.10.2018 23:21 6,4 °C 88 % 1018,3 hPa 0,0 mm 0,0 km/h (0 Bft) S 175 ° 0 min 0,000 mm 0,0 UV-I 0 W/m² 4,6 °C 6,4 °C 0,0 km/h (0 Bft)
16.10.2018 23:22 6,3 °C 88 % 1018,3 hPa 0,0 mm 0,0 km/h (0 Bft) S 175 ° 0 min 0,000 mm 0,0 UV-I 0 W/m² 4,5 °C 6,3 °C 0,0 km/h (0 Bft)
16.10.2018 23:23 6,3 °C 88 % 1018,4 hPa 0,0 mm 0,0 km/h (0 Bft) S 175 ° 0 min 0,000 mm 0,0 UV-I 0 W/m² 4,5 °C 6,3 °C 0,0 km/h (0 Bft)
16.10.2018 23:24 6,3 °C 88 % 1018,3 hPa 0,0 mm 0,0 km/h (0 Bft) S 175 ° 0 min 0,000 mm 0,0 UV-I 0 W/m² 4,5 °C 6,3 °C 0,0 km/h (0 Bft)
16.10.2018 23:25 6,2 °C 88 % 1018,4 hPa 0,0 mm 0,0 km/h (0 Bft) S 175 ° 0 min 0,000 mm 0,0 UV-I 0 W/m² 4,4 °C 6,2 °C 0,0 km/h (0 Bft)
16.10.2018 23:26 6,2 °C 89 % 1018,4 hPa 0,0 mm 0,0 km/h (0 Bft) S 175 ° 0 min 0,000 mm 0,0 UV-I 0 W/m² 4,5 °C 6,2 °C 0,0 km/h (0 Bft)
16.10.2018 23:27 6,2 °C 88 % 1018,4 hPa 0,0 mm 0,0 km/h (0 Bft) S 175 ° 0 min 0,000 mm 0,0 UV-I 0 W/m² 4,4 °C 6,2 °C 0,0 km/h (0 Bft)
16.10.2018 23:28 6,2 °C 89 % 1018,3 hPa 0,0 mm 0,0 km/h (0 Bft) S 175 ° 0 min 0,000 mm 0,0 UV-I 0 W/m² 4,5 °C 6,2 °C 0,0 km/h (0 Bft)
16.10.2018 23:29 6,2 °C 89 % 1018,3 hPa 0,0 mm 0,0 km/h (0 Bft) S 175 ° 0 min 0,000 mm 0,0 UV-I 0 W/m² 4,5 °C 6,2 °C 0,0 km/h (0 Bft)
16.10.2018 23:30 6,2 °C 89 % 1018,4 hPa 0,0 mm 0,0 km/h (0 Bft) S 175 ° 0 min 0,000 mm 0,0 UV-I 0 W/m² 4,5 °C 6,2 °C 0,0 km/h (0 Bft)
16.10.2018 23:31 6,2 °C 89 % 1018,4 hPa 0,0 mm 0,0 km/h (0 Bft) S 175 ° 0 min 0,000 mm 0,0 UV-I 0 W/m² 4,5 °C 6,2 °C 0,0 km/h (0 Bft)
16.10.2018 23:32 6,2 °C 89 % 1018,4 hPa 0,0 mm 0,0 km/h (0 Bft) S 175 ° 0 min 0,000 mm 0,0 UV-I 0 W/m² 4,5 °C 6,2 °C 0,0 km/h (0 Bft)
16.10.2018 23:33 6,3 °C 89 % 1018,4 hPa 0,0 mm 0,0 km/h (0 Bft) S 175 ° 0 min 0,000 mm 0,0 UV-I 0 W/m² 4,6 °C 6,3 °C 0,0 km/h (0 Bft)
16.10.2018 23:34 6,3 °C 89 % 1018,4 hPa 0,0 mm 0,0 km/h (0 Bft) S 175 ° 0 min 0,000 mm 0,0 UV-I 0 W/m² 4,6 °C 6,3 °C 0,0 km/h (0 Bft)
16.10.2018 23:35 6,2 °C 89 % 1018,4 hPa 0,0 mm 0,0 km/h (0 Bft) S 175 ° 0 min 0,000 mm 0,0 UV-I 0 W/m² 4,5 °C 6,2 °C 0,0 km/h (0 Bft)
16.10.2018 23:36 6,2 °C 89 % 1018,4 hPa 0,0 mm 0,0 km/h (0 Bft) S 175 ° 0 min 0,000 mm 0,0 UV-I 0 W/m² 4,5 °C 6,2 °C 0,0 km/h (0 Bft)
16.10.2018 23:37 6,1 °C 89 % 1018,4 hPa 0,0 mm 0,0 km/h (0 Bft) S 175 ° 0 min 0,000 mm 0,0 UV-I 0 W/m² 4,4 °C 6,1 °C 0,0 km/h (0 Bft)
16.10.2018 23:38 6,1 °C 89 % 1018,4 hPa 0,0 mm 0,0 km/h (0 Bft) S 175 ° 0 min 0,000 mm 0,0 UV-I 0 W/m² 4,4 °C 6,1 °C 0,0 km/h (0 Bft)
16.10.2018 23:39 6,0 °C 89 % 1018,4 hPa 0,0 mm 0,0 km/h (0 Bft) S 175 ° 0 min 0,000 mm 0,0 UV-I 0 W/m² 4,3 °C 6,0 °C 0,0 km/h (0 Bft)
16.10.2018 23:40 6,0 °C 89 % 1018,4 hPa 0,0 mm 0,0 km/h (0 Bft) S 175 ° 0 min 0,000 mm 0,0 UV-I 0 W/m² 4,3 °C 6,0 °C 0,0 km/h (0 Bft)
16.10.2018 23:41 6,0 °C 90 % 1018,4 hPa 0,0 mm 0,0 km/h (0 Bft) S 175 ° 0 min 0,000 mm 0,0 UV-I 0 W/m² 4,5 °C 6,0 °C 0,0 km/h (0 Bft)
16.10.2018 23:42 6,1 °C 90 % 1018,4 hPa 0,0 mm 0,0 km/h (0 Bft) S 175 ° 0 min 0,000 mm 0,0 UV-I 0 W/m² 4,6 °C 6,1 °C 0,0 km/h (0 Bft)
16.10.2018 23:43 6,1 °C 90 % 1018,4 hPa 0,0 mm 0,0 km/h (0 Bft) S 175 ° 0 min 0,000 mm 0,0 UV-I 0 W/m² 4,6 °C 6,1 °C 0,0 km/h (0 Bft)
16.10.2018 23:44 6,1 °C 90 % 1018,4 hPa 0,0 mm 0,0 km/h (0 Bft) S 175 ° 0 min 0,000 mm 0,0 UV-I 0 W/m² 4,6 °C 6,1 °C 0,0 km/h (0 Bft)
16.10.2018 23:45 6,1 °C 90 % 1018,4 hPa 0,0 mm 0,0 km/h (0 Bft) S 175 ° 0 min 0,000 mm 0,0 UV-I 0 W/m² 4,6 °C 6,1 °C 0,0 km/h (0 Bft)
16.10.2018 23:46 6,1 °C 90 % 1018,4 hPa 0,0 mm 0,0 km/h (0 Bft) S 175 ° 0 min 0,000 mm 0,0 UV-I 0 W/m² 4,6 °C 6,1 °C 0,0 km/h (0 Bft)
16.10.2018 23:47 6,1 °C 90 % 1018,4 hPa 0,0 mm 0,0 km/h (0 Bft) S 175 ° 0 min 0,000 mm 0,0 UV-I 0 W/m² 4,6 °C 6,1 °C 0,0 km/h (0 Bft)
16.10.2018 23:48 6,1 °C 90 % 1018,4 hPa 0,0 mm 0,0 km/h (0 Bft) S 175 ° 0 min 0,000 mm 0,0 UV-I 0 W/m² 4,6 °C 6,1 °C 0,0 km/h (0 Bft)
16.10.2018 23:49 6,1 °C 90 % 1018,4 hPa 0,0 mm 0,0 km/h (0 Bft) S 175 ° 0 min 0,000 mm 0,0 UV-I 0 W/m² 4,6 °C 6,1 °C 0,0 km/h (0 Bft)
16.10.2018 23:50 6,2 °C 90 % 1018,3 hPa 0,0 mm 0,0 km/h (0 Bft) S 175 ° 0 min 0,000 mm 0,0 UV-I 0 W/m² 4,7 °C 6,2 °C 0,0 km/h (0 Bft)
16.10.2018 23:51 6,2 °C 90 % 1018,4 hPa 0,0 mm 0,0 km/h (0 Bft) S 175 ° 0 min 0,000 mm 0,0 UV-I 0 W/m² 4,7 °C 6,2 °C 0,0 km/h (0 Bft)
16.10.2018 23:52 6,2 °C 90 % 1018,3 hPa 0,0 mm 0,0 km/h (0 Bft) S 175 ° 0 min 0,000 mm 0,0 UV-I 0 W/m² 4,7 °C 6,2 °C 0,0 km/h (0 Bft)
16.10.2018 23:53 6,2 °C 90 % 1018,4 hPa 0,0 mm 0,0 km/h (0 Bft) S 175 ° 0 min 0,000 mm 0,0 UV-I 0 W/m² 4,7 °C 6,2 °C 0,0 km/h (0 Bft)
16.10.2018 23:54 6,2 °C 90 % 1018,3 hPa 0,0 mm 0,0 km/h (0 Bft) S 175 ° 0 min 0,000 mm 0,0 UV-I 0 W/m² 4,7 °C 6,2 °C 0,0 km/h (0 Bft)
16.10.2018 23:55 6,2 °C 90 % 1018,3 hPa 0,0 mm 0,0 km/h (0 Bft) S 175 ° 0 min 0,000 mm 0,0 UV-I 0 W/m² 4,7 °C 6,2 °C 0,0 km/h (0 Bft)
16.10.2018 23:56 6,2 °C 90 % 1018,3 hPa 0,0 mm 0,0 km/h (0 Bft) S 175 ° 0 min 0,000 mm 0,0 UV-I 0 W/m² 4,7 °C 6,2 °C 0,0 km/h (0 Bft)
16.10.2018 23:57 6,2 °C 90 % 1018,3 hPa 0,0 mm 0,0 km/h (0 Bft) S 175 ° 0 min 0,000 mm 0,0 UV-I 0 W/m² 4,7 °C 6,2 °C 0,0 km/h (0 Bft)
16.10.2018 23:58 6,2 °C 90 % 1018,3 hPa 0,0 mm 0,0 km/h (0 Bft) S 175 ° 0 min 0,000 mm 0,0 UV-I 0 W/m² 4,7 °C 6,2 °C 0,0 km/h (0 Bft)
16.10.2018 23:59 6,2 °C 89 % 1018,3 hPa 0,0 mm 0,0 km/h (0 Bft) S 175 ° 0 min 0,000 mm 0,0 UV-I 0 W/m² 4,5 °C 6,2 °C 0,0 km/h (0 Bft)
_ Min-Zeit 07:42 15:38 00:14 - 23:59 - - - - - - 07:09 07:42 23:59
Minimum _ 5,3 °C 44 % 1014,4 hPa - 0,0 km/h (0 Bft) - - - - - - 2,7 °C 5,3 °C 0,0 km/h (0 Bft)
_ Max-Zeit 14:53 23:58 22:17 23:59 14:00 - - 23:59 14:01 13:24 13:11 18:01 14:53 14:00
Maximum _ 19,1 °C 90 % 1018,6 hPa 0,0 mm 9,3 km/h
O (2 Bft)
- - 0 min 0,331 mm 3,1 UV-I 540 W/m² 8,3 °C 19,1 °C 14,5 km/h
O (3 Bft)
Durchschnitt _ 11,4 °C 68 % 1016,9 hPa #0,0 mm 0,8 km/h (0 Bft) O-NO - #0 min. #1,702 mm 2,4 UV-I 102 W/m² 5,5 °C 11,4 °C 1,5 km/h (1 Bft)